.

MPMG - Transparência

Contracheque - Remuneração de todos os servidores ativos - Pós Resolução CNMP 200/2019

Período: 2023 - Janeiro

Ordem Matrícula Nome Cargo Efetivo Lotação Rendimentos Descontos Rendimento Líquido Total *14 Data de Referência
Remuneração básica Remuneração eventual ou Temporária Outras Remunerações Temporárias *7 Verbas Indenizatórias *8 Total de Rendimentos Brutos *9 Obrigatórios Legais Outros Descontos Eventuais Total de descontos *13
Remuneração do Cargo Efetivo *1 Outras Verbas Remuneratórias *2 Função de Confiança ou Cargo em Comissão *3 Gratificação Natalina *4 Férias 1/3 Constitucional *5 Abono de Permanência *6 Contribuição Previdenciária *10 Imposto de Renda *11 Retenção por Teto Constitucional *12
1 498900 ABDON MARCIO BARBOSA DA SILVA OFICIAL DO MP ABRE CAMPO - COMARCA; ABRE CAMPO-PJ-01PJ 6.694,66 1.338,93 0,00 0,00 0,00 0,00 827,26 6.731,15 15.592,00 1.066,32 942,36 0,00 0,00 2.008,68 13.583,32 31/01/2023
2 177800 ADALBERTO MENEZES FARIA SAMORA OFICIAL DO MP BELO HORIZONTE - COMARCA; DIRET DE PLANOS PROJETOS E PROGRAMAS INST 19.037,29 7.614,92 0,00 0,00 0,00 0,00 1.977,52 7.241,44 35.871,17 4.045,30 5.243,27 0,00 0,00 9.288,57 26.582,60 31/01/2023
3 306400 ADALBERTO MOREIRA GONCALVES ANALISTA DO MP BELO HORIZONTE - COMARCA; BH-24PJ JUIZO REG BARREIRO-SECRETARIA 19.791,01 5.937,30 0,00 0,00 0,00 0,00 1.833,62 7.056,66 34.618,59 3.897,48 5.134,12 0,00 0,00 9.031,60 25.586,99 31/01/2023
4 179300 ADENISE AUXILIADORA SOUZA SAD OFICIAL DO MP BARBACENA - COMARCA; BARBACENA-PJ-06PJ 18.312,36 7.324,94 0,00 0,00 0,00 0,00 1.749,63 7.038,46 34.425,39 3.882,92 5.008,82 0,00 0,00 8.891,74 25.533,65 31/01/2023
5 272200 ADILSON BATISTA ORNELAS OFICIAL DO MP LAVRAS - COMARCA; LAVRAS-PJ-SECRETARIA 6.694,66 2.008,40 0,00 0,00 0,00 0,00 949,08 7.829,08 17.481,22 1.173,44 1.149,15 0,00 0,00 2.322,59 15.158,63 31/01/2023
6 380100 ADILSON GONCALVES DE MELO JUNIOR ANALISTA DO MP ARAXÁ - COMARCA; ARAXA-PJ-05PJ 14.687,60 2.937,52 0,00 0,00 0,00 0,00 1.474,08 7.551,04 26.650,24 2.600,97 3.158,01 0,00 0,00 5.758,98 20.891,26 31/01/2023
7 148800 ADILSON JANUARIO OFICIAL DO MP BELO HORIZONTE - COMARCA; BH-22PJ PES COM DEF E IDOSOS-SECRETARIA 20.574,59 16.459,68 0,00 477,21 0,00 8.672,35 2.343,85 7.584,95 56.112,63 5.454,90 8.830,61 1.572,05 0,00 15.857,56 40.255,07 31/01/2023
8 322601 ADMILSON SILVEIRA ANALISTA DO MP SAO JOAO DO PARAISO COMARCA; SAO JOAO DO PARAISO-PJ-UNPJ 11.008,33 1.100,83 0,00 0,00 0,00 0,00 1.218,30 8.608,70 21.936,16 1.718,41 1.988,10 0,00 0,00 3.706,51 18.229,65 31/01/2023
9 333700 ADRIANA ABRITTA TEIXEIRA OFICIAL DO MP BELO HORIZONTE - COMARCA; DIRET DE PESSOAL DO MINISTERIO PUBLICO - DPMP 11.008,33 3.302,50 0,00 0,00 0,00 0,00 1.282,25 7.635,33 23.228,41 2.070,68 2.496,68 0,00 0,00 4.567,36 18.661,05 31/01/2023
10 468500 ADRIANA APARECIDA FIRMINO ANALISTA DO MP CARATINGA - COMARCA; CARATINGA-PJ-04PJ 11.008,33 2.201,67 0,00 0,00 0,00 0,00 605,23 1.911,00 15.726,23 1.894,55 2.190,25 0,00 0,00 4.084,80 11.641,43 31/01/2023
11 326100 ADRIANA AUGUSTA AMARAL BELO OFICIAL DO MP BARBACENA - COMARCA; BARBACENA-PJ-08PJ 11.008,33 3.302,50 0,00 0,00 0,00 0,00 1.243,13 7.635,33 23.189,29 2.070,68 2.392,41 0,00 0,00 4.463,09 18.726,20 31/01/2023
12 605700 ADRIANA COSTA LIRA OFICIAL DO MP BELO HORIZONTE - COMARCA; CAO-EDUCACAO 6.694,66 669,47 3.585,64 0,00 0,00 0,00 1.022,79 7.604,88 19.577,44 959,93 1.867,05 0,00 0,00 2.826,98 16.750,46 31/01/2023
13 541100 ADRIANA CRISTINA DE OLIVEIRA OFICIAL DO MP GUAPÉ - COMARCA; GUAPE-PJ-UNPJ 6.694,66 669,47 0,00 0,00 0,00 0,00 607,83 4.856,65 12.828,61 959,93 839,66 0,00 0,00 1.799,59 11.029,02 31/01/2023
14 254800 ADRIANA DAS GRACAS FERNANDES ANALISTA DO MP UBERABA - COMARCA; UBERABA-PJ-07PJ 20.574,59 14.402,22 0,00 0,00 0,00 0,00 2.382,58 7.507,29 44.866,68 5.377,24 7.218,38 0,00 0,00 12.595,62 32.271,06 31/01/2023
15 217400 ADRIANA DE CARVALHO CATAO BRAGA ASSESSOR ADMINISTRATIVO III BELO HORIZONTE - COMARCA; DIV FISCAL ADM CONT TERCEIRIZACAO 0,00 3.873,69 9.684,23 0,00 0,00 0,00 1.039,31 7.334,17 21.931,40 877,22 2.984,41 0,00 0,00 3.861,63 18.069,77 31/01/2023
16 434600 ADRIANA FERREIRA DA SILVA ANALISTA DO MP BELO HORIZONTE - COMARCA; BH-14PJ DEFESA CONSUMIDOR-GAB 112PJ 15.659,55 3.131,91 0,00 0,00 0,00 0,00 876,73 1.911,00 21.579,19 2.787,58 3.531,71 0,00 0,00 6.319,29 15.259,90 31/01/2023
17 499800 ADRIANA FERREIRA TIAGO OFICIAL DO MP SALINAS - COMARCA; SALINAS-PJ-02PJ 8.650,50 1.730,10 0,00 0,00 0,00 0,00 483,80 1.911,00 12.775,40 1.441,84 1.484,52 0,00 0,00 2.926,36 9.849,04 31/01/2023
18 543400 ADRIANA GUIMARAES NUNES DE PAULA ANALISTA DO MP PATROCÍNIO - COMARCA; PATROCINIO-PJ-01PJ 11.008,33 1.100,83 0,00 0,00 0,00 0,00 516,60 1.911,00 14.536,76 982,16 2.035,89 0,00 0,00 3.018,05 11.518,71 31/01/2023
19 471500 ADRIANA HORTA DE CARVALHO RODRIGUES DE SOUSA ANALISTA DO MP BELO HORIZONTE - COMARCA; GRUPO ESP PROM JUST DEF PROB ADM PAT PUB 11.008,33 2.201,67 0,00 0,00 0,00 0,00 580,01 1.911,00 15.701,01 1.894,55 2.190,25 0,00 0,00 4.084,80 11.616,21 31/01/2023
20 86400 ADRIANA MOREIRA CALDEIRA BRANT OFICIAL DO MP BELO HORIZONTE - COMARCA; BH-21PJ TUTELA FUNDACOES-SECRETARIA 19.037,29 13.326,11 0,00 424,74 0,00 7.757,10 1.644,88 1.911,00 44.101,12 4.959,09 8.030,58 0,00 0,00 12.989,67 31.111,45 31/01/2023
21 480700 ADRIANA MOREIRA DE AVELLAR CEZILIO OFICIAL DO MP BELO HORIZONTE - COMARCA; BH-12PJ JUIZO CRIMINAL-SECRETARIA 6.694,66 1.338,93 0,00 0,00 0,00 0,00 690,27 5.124,44 13.848,30 1.066,32 942,36 0,00 0,00 2.008,68 11.839,62 31/01/2023
22 326000 ADRIANA PEREIRA CARNEIRO RESENDE OFICIAL DO MP BELO HORIZONTE - COMARCA; BH-25PJ DEFESA DA EDUCACAO-SECRETARIA 11.008,33 3.302,50 0,00 0,00 0,00 0,00 1.278,41 7.635,33 23.224,57 2.070,68 2.496,68 0,00 0,00 4.567,36 18.657,21 31/01/2023
23 502200 ADRIANA PETRUCCI DAVINA OFICIAL DO MP PATROCÍNIO - COMARCA; PATROCINIO-PJ-01PJ 9.378,86 1.875,77 0,00 0,00 0,00 0,00 1.092,98 8.648,71 20.996,32 1.581,69 1.790,70 0,00 0,00 3.372,39 17.623,93 31/01/2023
24 201900 ADRIANA REIS PIMENTA OFICIAL DO MP TEÓFILO OTONI - COMARCA; TEOFILO OTONI-PJ-03PJ 18.312,36 7.324,94 0,00 0,00 0,00 0,00 1.279,98 1.911,00 28.828,28 3.882,92 5.113,09 0,00 0,00 8.996,01 19.832,27 31/01/2023
25 278700 ADRIANA RODRIGUES PINTO COELHO AMARAL ANALISTA DO MP BELO HORIZONTE - COMARCA; CGMP-ASSESSORIA JURIDICA 20.574,59 6.172,38 0,00 0,00 0,00 0,00 1.726,92 7.260,39 35.734,28 4.060,46 5.369,43 0,00 0,00 9.429,89 26.304,39 31/01/2023
26 468000 ADRIANA SANTOS DE SANTANA MOREIRA ANALISTA DO MP GOVERNADOR VALADARES - COMARCA; GAECO REGIONAL DE GOVERNADOR VALADARES 11.008,33 4.403,33 0,00 0,00 0,00 0,00 1.257,76 7.459,20 24.128,62 2.246,81 2.646,70 0,00 0,00 4.893,51 19.235,11 31/01/2023
27 194700 ADRIANA TSUKIDE OFICIAL DO MP UBERABA - COMARCA; COORD REG BACIAS PARANAIBA BAIXO RIO GRANDE 18.312,36 7.324,94 0,00 0,00 0,00 0,00 1.134,87 1.911,00 28.683,17 3.882,92 5.060,96 0,00 0,00 8.943,88 19.739,29 31/01/2023
28 465500 ADRIANO CASSIANO MATOS ANALISTA DO MP ARAXÁ - COMARCA; ARAXA-PJ-02PJ 11.008,33 2.201,67 0,00 0,00 0,00 0,00 1.114,75 7.723,40 22.048,15 1.894,55 2.242,39 0,00 0,00 4.136,94 17.911,21 31/01/2023
29 500500 ADRIANO DE ALMEIDA SILVA OFICIAL DO MP UBERABA - COMARCA; UBERABA-PJ-12PJ 9.378,86 1.875,77 0,00 0,00 0,00 0,00 1.096,70 8.648,71 21.000,04 1.581,69 1.253,62 0,00 0,00 2.835,31 18.164,73 31/01/2023
30 187200 ADRIANO DE FREITAS MARON OFICIAL DO MP PONTE NOVA - COMARCA; PONTE NOVA-PJ-03PJ 15.659,55 14.093,61 0,00 368,73 0,00 7.015,85 2.002,61 7.861,63 47.001,98 4.541,45 7.312,76 0,00 0,00 11.854,21 35.147,77 31/01/2023
31 477900 ADRIANO FERREIRA DE ALMEIDA OFICIAL DO MP TAIOBEIRAS - COMARCA; TAIOBEIRAS-PJ-UNPJ 9.378,86 1.875,77 0,00 0,00 0,00 0,00 1.111,11 7.763,41 20.129,15 1.581,69 1.686,42 0,00 0,00 3.268,11 16.861,04 31/01/2023
32 269101 ADRIANO PEREIRA SILVA ANALISTA DO MP UBERABA - COMARCA; UBERABA-PJ-02PJ 11.008,33 2.201,67 0,00 0,00 0,00 0,00 1.227,17 7.723,40 22.160,57 1.894,55 2.085,98 0,00 0,00 3.980,53 18.180,04 31/01/2023
33 414200 ADRIANO RODRIGUES FERNANDES ANALISTA DO MP CARANDAÍ - COMARCA; CARANDAI-PJ-UNPJ 11.008,33 2.201,67 0,00 0,00 0,00 0,00 1.121,87 7.723,40 22.055,27 1.894,55 2.085,98 0,00 0,00 3.980,53 18.074,74 31/01/2023
34 536700 ADRIELLE COSTA MARIA MOURAO FIGUEIREDO OFICIAL DO MP SERRO - COMARCA; SERRO-PJ-SECRETARIA 6.694,66 669,47 0,00 0,00 0,00 0,00 335,66 2.796,30 10.496,09 959,93 891,80 0,00 0,00 1.851,73 8.644,36 31/01/2023
35 514300 ADRIENE DAMASCENO BRAGA ANALISTA DO MP ALFENAS - COMARCA; ALFENAS-PJ-03PJ 11.008,33 2.201,67 0,00 0,00 0,00 0,00 1.175,42 7.723,40 22.108,82 1.894,55 2.242,39 0,00 0,00 4.136,94 17.971,88 31/01/2023
36 254600 ADRIENE DOMINGUES COSTA ANALISTA DO MP BELO HORIZONTE - COMARCA; SUPER DE GESTAO DE PESSOAS-LOTACAO TEMPORARIA 20.574,59 6.172,38 0,00 0,00 0,00 0,00 1.299,08 0,00 28.046,05 4.060,46 5.369,43 0,00 0,00 9.429,89 18.616,16 31/01/2023
37 252001 ADRIENE GOMES BARRETO ANALISTA DO MP BELO HORIZONTE - COMARCA; BH-19PJ SAUDE-SECRETARIA 047PJ 16.695,70 8.347,85 0,00 0,00 0,00 0,00 1.650,08 6.919,71 33.613,34 3.787,92 4.975,94 0,00 0,00 8.763,86 24.849,48 31/01/2023
38 714800 ADSON GUSTAVO DE OLIVEIRA ASSESSOR PROCURADOR JUSTICA BELO HORIZONTE - COMARCA; GABINETE DE PROCURADOR DE JUSTIÇA - SALA 803 0,00 0,00 7.857,77 0,00 0,00 0,00 84,52 1.911,00 9.853,29 877,22 1.416,87 0,00 0,00 2.294,09 7.559,20 31/01/2023
39 724600 AECIO BRAS SILVA JUNIOR ASSESSOR PROMOTOR JUSTICA BAMBUÍ - COMARCA; BAMBUI-PJ-UNPJ 0,00 0,00 7.857,77 0,00 0,00 0,00 0,00 1.911,00 9.768,77 877,22 1.416,87 0,00 0,00 2.294,09 7.474,68 31/01/2023
40 302500 AGENOR JOSE DA SILVA JUNIOR ANALISTA DO MP JUIZ DE FORA - COMARCA; JUIZ DE FORA-PJ-07PJ 19.791,01 5.937,30 0,00 0,00 0,00 0,00 1.832,62 7.056,66 34.617,59 3.897,48 4.977,71 0,00 0,00 8.875,19 25.742,40 31/01/2023
41 357500 AILSON WAGNER DE ALENCAR SILVA OFICIAL DO MP BELO HORIZONTE - COMARCA; BH-12PJ JUIZO CRIMINAL-SECRETARIA 13.341,69 5.336,68 0,00 0,00 0,00 0,00 1.614,33 7.888,08 28.180,78 2.769,49 3.349,17 0,00 0,00 6.118,66 22.062,12 31/01/2023
42 366400 AILTON ALEXSSANDRO ALVES OFICIAL DO MP PARÁ DE MINAS - COMARCA; PARA DE MINAS-PJ-05PJ 11.008,33 4.403,33 0,00 0,00 0,00 0,00 762,01 1.911,00 18.084,67 2.246,81 2.750,97 0,00 0,00 4.997,78 13.086,89 31/01/2023
43 318900 AILTON DE CASTRO RIBEIRO JUNIOR OFICIAL DO MP CANDEIAS - COMARCA; CANDEIAS-PJ-UNPJ 11.008,33 3.302,50 0,00 0,00 0,00 0,00 1.224,95 7.635,33 23.171,11 2.070,68 2.288,13 0,00 0,00 4.358,81 18.812,30 31/01/2023
44 464400 ALAN MONTEIRO GASPAR ANALISTA DO MP SETE LAGOAS - COMARCA; SETE LAGOAS-PJ-08PJ 11.008,33 2.201,67 0,00 0,00 0,00 0,00 1.227,30 7.723,40 22.160,70 1.894,55 2.242,39 0,00 0,00 4.136,94 18.023,76 31/01/2023
45 492000 ALANA DE CASTRO FREITAS OFICIAL DO MP BELO HORIZONTE - COMARCA; SECRETARIA DO PROCON-MG 7.137,75 1.427,55 0,00 0,00 0,00 0,00 371,98 1.911,00 10.848,28 1.151,40 1.169,46 0,00 0,00 2.320,86 8.527,42 31/01/2023
46 306700 ALANA MARCIA DE OLIVEIRA OFICIAL DO MP BELO HORIZONTE - COMARCA; DIRETORIA DE ADMINISTRACAO FINANCEIRA 11.008,33 3.302,50 0,00 0,00 0,00 0,00 1.314,35 7.635,33 23.260,51 2.070,68 2.496,68 0,00 0,00 4.567,36 18.693,15 31/01/2023
47 324500 ALANMAR COUTINHO COSTA OFICIAL DO MP LEOPOLDINA - COMARCA; LEOPOLDINA-PJ-02PJ 11.008,33 3.302,50 0,00 0,00 0,00 0,00 1.283,08 7.635,33 23.229,24 2.070,68 2.392,41 0,00 0,00 4.463,09 18.766,15 31/01/2023
48 407300 ALBERTO LUIZ SOARES DE OLIVEIRA ANALISTA DO MP BELO HORIZONTE - COMARCA; DIRETORIA DE PROJETOS DE EDIFICACOES 15.659,55 3.131,91 0,00 0,00 0,00 0,00 794,12 1.911,00 21.496,58 2.787,58 3.531,71 0,00 0,00 6.319,29 15.177,29 31/01/2023
49 118200 ALBERTO PEREIRA DA COSTA OFICIAL DO MP DORES DO INDAIÁ - COMARCA; DORES DO INDAIA-PJ-UNPJ 19.791,01 17.811,91 0,00 380,12 0,00 8.093,30 2.134,77 7.584,96 55.796,07 5.454,90 8.830,61 2.140,70 0,00 16.426,21 39.369,86 31/01/2023
50 282400 ALCILENE MARISE DE ARAUJO ANALISTA DO MP BELO HORIZONTE - COMARCA; BH-23PJ INF-FISC MED SOC FEC 20.574,59 6.172,38 0,00 0,00 0,00 0,00 1.302,57 1.911,00 29.960,54 4.060,46 5.317,29 0,00 0,00 9.377,75 20.582,79 31/01/2023
51 112600 ALCIONE DA MOTA JARDIM OFICIAL DO MP BELO HORIZONTE - COMARCA; CAO-CRIANCAS E ADOLESCENTES-SECRETARIA 19.791,01 13.853,71 0,00 0,00 0,00 0,00 1.252,36 1.911,00 36.808,08 5.164,10 6.910,67 0,00 0,00 12.074,77 24.733,31 31/01/2023
52 396400 ALCIONE DE FREITAS E SILVA ANALISTA DO MP BELO HORIZONTE - COMARCA; ASSESS JUR DO CONS SUPERIOR DO MINISTERIO PUB 16.695,70 6.678,28 0,00 0,00 0,00 0,00 1.189,96 1.911,00 26.474,94 3.520,79 4.590,27 0,00 0,00 8.111,06 18.363,88 31/01/2023
53 657400 ALCIONE MARIA FERREIRA ASSESSOR PROCURADOR JUSTICA BELO HORIZONTE - COMARCA; GABINETE DE PROCURADOR DE JUSTIÇA - SALA 610 0,00 0,00 7.857,77 0,00 0,00 0,00 358,86 2.796,30 11.012,93 877,22 1.416,87 0,00 0,00 2.294,09 8.718,84 31/01/2023
54 161600 ALCIONE NERY SOUZA ASSESSOR ADMINISTRATIVO III BELO HORIZONTE - COMARCA; BH-18PJ DIREITOS HUMANOS-SECRETARIA 0,00 4.842,12 9.684,23 0,00 4.842,12 0,00 584,12 1.911,00 21.863,59 877,22 4.582,31 0,00 0,00 5.459,53 16.404,06 31/01/2023
55 376000 ALDA GOMES LANA OFICIAL DO MP BELO HORIZONTE - COMARCA; BH-18PJ VIOLENCIA DOMESTICA-SECRETARIA 11.008,33 2.201,67 0,00 0,00 0,00 0,00 613,16 1.911,00 15.734,16 1.894,55 2.190,25 0,00 0,00 4.084,80 11.649,36 31/01/2023
56 148000 ALDA MARTINS SIMOES OFICIAL DO MP BELO HORIZONTE - COMARCA; BH-23PJ CIVEL- FISC ENT AB POL 20.574,59 10.287,30 0,00 0,00 0,00 0,00 1.470,97 1.911,00 34.243,86 4.718,85 6.319,98 0,00 0,00 11.038,83 23.205,03 31/01/2023
57 318400 ALDO CREPALDI JUNIOR OFICIAL DO MP BELO HORIZONTE - COMARCA; DIVISAO DE MATERIAIS 11.008,33 3.302,50 0,00 0,00 0,00 0,00 1.304,40 7.635,33 23.250,56 2.070,68 2.444,54 0,00 0,00 4.515,22 18.735,34 31/01/2023
58 604500 ALENIZE APARECIDA RODRIGUES HENRIQUE OFICIAL DO MP RIO NOVO - COMARCA; RIO NOVO-PJ-UNPJ 6.694,66 669,47 0,00 0,00 0,00 0,00 904,08 7.802,30 16.070,51 959,93 891,80 0,00 0,00 1.851,73 14.218,78 31/01/2023
59 197900 ALESSA DE SOUSA E SILVA OFICIAL DO MP OLIVEIRA - COMARCA; OLIVEIRA-PJ-02PJ 19.037,29 7.614,92 0,00 0,00 0,00 0,00 1.488,92 2.109,18 30.250,31 4.045,30 5.243,27 0,00 0,00 9.288,57 20.961,74 31/01/2023
60 428500 ALESSANDRA ALVES DINIZ OFICIAL DO MP BELO HORIZONTE - COMARCA; CENTRAL DE APOIO TECNICO-SECRETARIA 8.932,15 4.466,08 0,00 0,00 0,00 0,00 959,92 1.911,00 16.269,15 1.924,67 2.285,87 0,00 0,00 4.210,54 12.058,61 31/01/2023
61 286801 ALESSANDRA BOTELHO JUNQUEIRA DE MENEZES ANALISTA DO MP PASSOS - COMARCA; PASSOS-PJ-05PJ 16.169,47 6.467,79 0,00 0,00 0,00 0,00 1.783,42 8.229,24 32.649,92 3.402,91 4.211,54 0,00 0,00 7.614,45 25.035,47 31/01/2023
62 307000 ALESSANDRA CRISTINA SANTOS MENDES ANALISTA DO MP BELO HORIZONTE - COMARCA; BH-18PJ VIOLENCIA DOMESTICA-SECRETARIA 18.312,36 5.493,71 0,00 0,00 0,00 0,00 1.562,65 7.624,46 32.993,18 3.589,92 4.637,94 0,00 0,00 8.227,86 24.765,32 31/01/2023
63 264400 ALESSANDRA DE SOUZA SANTOS ANALISTA DO MP BELO HORIZONTE - COMARCA; SUPERINTENDENCIA DOS ORGAOS COLEGIADOS 20.574,59 8.229,84 0,00 0,00 0,00 0,00 1.317,49 1.911,00 32.032,92 4.389,66 5.844,70 0,00 0,00 10.234,36 21.798,56 31/01/2023
64 441500 ALESSANDRA DRUMMOND DE FIGUEIREDO ROSSI ANALISTA DO MP BELO HORIZONTE - COMARCA; DIRETORIA DE PROJETOS DE EDIFICACOES 11.008,33 2.201,67 0,00 0,00 0,00 0,00 576,43 1.911,00 15.697,43 1.894,55 2.242,39 0,00 0,00 4.136,94 11.560,49 31/01/2023
65 524000 ALESSANDRA LUCIOLI DE BARROS GUERRA ANALISTA DO MP BELO HORIZONTE - COMARCA; BH-19PJ SAUDE--SECRETARIA 11.008,33 2.201,67 0,00 0,00 0,00 0,00 621,60 1.911,00 15.742,60 1.894,55 2.138,11 0,00 0,00 4.032,66 11.709,94 31/01/2023
66 479900 ALESSANDRA MARA ANDRADE DE FARIA OFICIAL DO MP UBERABA - COMARCA; UBERABA-PJ-09PJ 9.378,86 1.875,77 0,00 0,00 0,00 0,00 1.083,36 7.763,41 20.101,40 1.581,69 1.790,70 0,00 0,00 3.372,39 16.729,01 31/01/2023
67 226700 ALESSANDRA MARA VASCONCELOS REZENDE OFICIAL DO MP CONSELHEIRO LAFAIETE - COMARCA; CONSELHEIRO LAFAIETE-PJ-07PJ 15.659,55 6.263,82 0,00 0,00 0,00 0,00 1.308,44 7.172,61 30.404,42 3.288,69 4.255,18 0,00 0,00 7.543,87 22.860,55 31/01/2023
68 112100 ALESSANDRA MARCIA FERREIRA OFICIAL DO MP BELO HORIZONTE - COMARCA; BELO HORIZONTE- SECRETARIA DAS PROMOTORIAS 11.008,33 7.705,83 0,00 0,00 0,00 0,00 934,81 1.911,00 21.559,97 2.775,21 3.513,85 0,00 0,00 6.289,06 15.270,91 31/01/2023
69 196500 ALESSANDRA MARIA RIBEIRO LUCIANO OFICIAL DO MP RIO PARANAÍBA - COMARCA; RIO PARANAIBA-PJ-UNPJ 19.037,29 9.518,65 0,00 0,00 0,00 0,00 1.305,46 1.911,00 31.772,40 4.349,90 5.683,03 0,00 0,00 10.032,93 21.739,47 31/01/2023
70 651700 ALESSANDRA PROFIRIO SOUZA OFICIAL DO MP NOVA ERA - COMARCA; NOVA ERA-PJ-UNPJ 5.438,14 543,81 0,00 0,00 0,00 0,00 281,06 1.911,00 8.174,01 749,62 517,39 0,00 0,00 1.267,01 6.907,00 31/01/2023
71 384900 ALESSANDRA RODRIGUES ANALISTA DO MP VISCONDE DO RIO BRANCO - COMARCA; VISCONDE DO RIO BRANCO-PJ-03PJ 16.695,70 3.339,14 0,00 0,00 0,00 0,00 1.544,20 8.406,06 29.985,10 2.986,52 3.714,65 0,00 0,00 6.701,17 23.283,93 31/01/2023
72 390000 ALESSANDRA SPADANO MASSARA VASCONCELOS OFICIAL DO MP BETIM - COMARCA; BETIM-PJ-10PJ 11.008,33 2.201,67 0,00 0,00 0,00 0,00 545,56 1.911,00 15.666,56 1.894,55 2.242,39 0,00 0,00 4.136,94 11.529,62 31/01/2023
73 426500 ALESSANDRO CAMPOS DE PAIVA ANALISTA DO MP BELO HORIZONTE - COMARCA; DIR CRIACAO E MIDIAS 16.169,47 3.233,89 0,00 0,00 0,00 0,00 912,70 1.911,00 22.227,06 2.885,49 3.673,05 0,00 0,00 6.558,54 15.668,52 31/01/2023
74 623400 ALESSANDRO DE OLIVEIRA REZENDE ANALISTA DO MP BELO HORIZONTE - COMARCA; DIRET DE INFORMACAO E CONHECIMENTO-DINC/CEAF 10.325,15 1.032,52 0,00 0,00 0,00 0,00 1.062,88 7.362,68 19.783,23 1.598,18 1.814,50 0,00 0,00 3.412,68 16.370,55 31/01/2023
75 420600 ALESSANDRO SILVA OFICIAL DO MP VISCONDE DO RIO BRANCO - COMARCA; VISCONDE DO RIO BRANCO-PJ-02PJ 10.325,15 4.130,06 0,00 0,00 0,00 0,00 1.190,92 7.693,08 23.339,21 2.093,78 1.299,51 0,00 0,00 3.393,29 19.945,92 31/01/2023
76 375301 ALETHEIA PATRICIA ASSIS MORAIS MOREIRA ANALISTA DO MP ITABIRA - COMARCA; ITABIRA-PJ-02PJ 11.008,33 1.100,83 0,00 0,00 0,00 0,00 1.148,90 8.608,70 21.866,76 1.718,41 1.935,96 0,00 0,00 3.654,37 18.212,39 31/01/2023
77 382300 ALEX CARVALHO LIMA ANALISTA DO MP UBERLÂNDIA - COMARCA; UBERLANDIA-PJ-14PJ 16.695,70 3.339,14 0,00 0,00 0,00 0,00 1.475,67 8.406,06 29.916,57 2.986,52 3.818,93 0,00 0,00 6.805,45 23.111,12 31/01/2023
78 195201 ALEX DE CASTRO PEREIRA ANALISTA DO MP UBERABA - COMARCA; UBERABA-PJ-09PJ 20.574,59 8.229,84 0,00 0,00 0,00 0,00 2.013,54 7.671,89 38.489,86 4.389,66 5.844,70 0,00 0,00 10.234,36 28.255,50 31/01/2023
79 358900 ALEX DE PAULA LANZA ASSESSOR ADMINISTRATIVO IV BELO HORIZONTE - COMARCA; DIR CONTEUDO JORNALISTICO 0,00 0,00 12.920,95 0,00 0,00 0,00 539,99 2.796,30 16.257,24 877,22 2.809,24 0,00 0,00 3.686,46 12.570,78 31/01/2023
80 178400 ALEX RODRIGO SALDANHA GUIMARAES OFICIAL DO MP BELO HORIZONTE - COMARCA; DIRETORIA DE SISTEMAS DE INFORMACAO 6.694,66 2.677,86 0,00 0,00 0,00 0,00 414,38 1.911,00 11.697,90 1.280,55 1.355,93 0,00 0,00 2.636,48 9.061,42 31/01/2023
81 413500 ALEX VILELA OLIVEIRA ANALISTA DO MP GOVERNADOR VALADARES - COMARCA; COORD REG PJ DEF EDU DIR CRIANCA ADOL RIODOCE 16.169,47 3.233,89 0,00 0,00 0,00 0,00 1.545,71 7.343,94 28.293,01 2.885,49 3.673,05 0,00 0,00 6.558,54 21.734,47 31/01/2023
82 264300 ALEXANDRA FATIMA SARAIVA SOARES ANALISTA DO MP BELO HORIZONTE - COMARCA; CENTRAL DE APOIO TECN-SETOR DE MEIO AMBIENTE 20.574,59 6.172,38 0,00 0,00 0,00 0,00 1.309,44 1.911,00 29.967,41 4.060,46 5.369,43 0,00 0,00 9.429,89 20.537,52 31/01/2023
83 488000 ALEXANDRA LARA PAIS DE CARVALHO ANALISTA DO MP SABARÁ - COMARCA; SABARA-PJ-04PJ 11.008,33 2.201,67 0,00 0,00 0,00 0,00 1.183,22 7.723,40 22.116,62 1.894,55 2.085,98 0,00 0,00 3.980,53 18.136,09 31/01/2023
84 256300 ALEXANDRA SANTOS GOMES OFICIAL DO MP BELO HORIZONTE - COMARCA; DIRETORIA GESTAO COMPRAS LICITACOES 11.008,33 3.302,50 0,00 0,00 0,00 0,00 646,45 1.911,00 16.868,28 2.070,68 2.496,68 0,00 0,00 4.567,36 12.300,92 31/01/2023
85 403300 ALEXANDRE AUGUSTO RODRIGUES ANALISTA DO MP ÁGUAS FORMOSAS - COMARCA; AGUAS FORMOSAS-PJ-UNPJ 11.008,33 2.201,67 0,00 0,00 0,00 0,00 608,51 3.681,60 17.500,11 1.894,55 2.242,39 0,00 0,00 4.136,94 13.363,17 31/01/2023
86 640900 ALEXANDRE BARBOSA MASCARENHAS ANALISTA DO MP BETIM - COMARCA; BETIM-PJ-02PJ 8.377,76 837,78 0,00 0,00 0,00 0,00 371,75 1.911,00 11.498,29 982,16 837,96 0,00 0,00 1.820,12 9.678,17 31/01/2023
87 311700 ALEXANDRE BARCELOS RESENDE OFICIAL DO MP BELO HORIZONTE - COMARCA; BH-13ª PJ JUÍZO DE TÓXICOS-SECRETARIA 9.684,23 2.905,27 0,00 0,00 0,00 0,00 1.058,73 7.832,10 21.480,33 1.795,27 2.099,05 0,00 0,00 3.894,32 17.586,01 31/01/2023
88 285600 ALEXANDRE CAMPOS DE OLIVEIRA OFICIAL DO MP UBERABA - COMARCA; COORD REG BACIAS PARANAIBA BAIXO RIO GRANDE 11.008,33 3.302,50 0,00 0,00 0,00 0,00 1.280,65 7.635,33 23.226,81 2.070,68 2.340,27 0,00 0,00 4.410,95 18.815,86 31/01/2023
89 509200 ALEXANDRE CAPUANO DE REZENDE ANALISTA DO MP BELO HORIZONTE - COMARCA; BH-07PJ 03 TRIBUNAL DO JURI-GAB 061PJ 11.008,33 2.201,67 0,00 0,00 0,00 0,00 578,36 1.911,00 15.699,36 1.894,55 2.190,25 0,00 0,00 4.084,80 11.614,56 31/01/2023
90 229400 ALEXANDRE CARLOS BOTREL SUPERINTENDENTE BELO HORIZONTE - COMARCA; SUPERINTENDENCIA DOS ORGAOS COLEGIADOS 24.982,93 7.494,88 0,00 0,00 0,00 0,00 1.741,72 7.107,45 41.326,98 3.144,20 7.090,54 0,00 0,00 10.234,74 31.092,24 31/01/2023
91 411900 ALEXANDRE CARVALHO SANTOS RIBEIRO ANALISTA DO MP OLIVEIRA - COMARCA; OLIVEIRA-PJ-02PJ 16.169,47 3.233,89 0,00 0,00 0,00 0,00 1.485,72 8.229,24 29.118,32 2.885,49 3.673,05 0,00 0,00 6.558,54 22.559,78 31/01/2023
92 641600 ALEXANDRE DA SILVA ASSUNCAO OFICIAL DO MP BELO HORIZONTE - COMARCA; SERVICO MEDICO-DEPTO PERIC MEDICA SAUDE OCUP 5.889,39 588,94 0,00 0,00 0,00 0,00 335,75 2.429,27 9.243,35 822,63 685,96 0,00 0,00 1.508,59 7.734,76 31/01/2023
93 201200 ALEXANDRE DE ALENCAR CORDEIRO OFICIAL DO MP ÁGUAS FORMOSAS - COMARCA; AGUAS FORMOSAS-PJ-UNPJ 6.694,66 3.347,33 0,00 0,00 0,00 0,00 518,09 1.911,00 12.471,08 1.387,67 1.510,58 0,00 0,00 2.898,25 9.572,83 31/01/2023
94 288200 ALEXANDRE DE VASCONCELOS COSTA KER ANALISTA DO MP BELO HORIZONTE - COMARCA; BH-03PJ EMPRESARIAL-SECRETARIA 19.791,01 5.937,30 0,00 0,00 0,00 0,00 1.834,11 7.056,66 34.619,08 3.897,48 5.081,98 0,00 0,00 8.979,46 25.639,62 31/01/2023
95 445000 ALEXANDRE DIOGENES OLIVEIRA ANALISTA DO MP SALINAS - COMARCA; SALINAS-PJ-02PJ 12.118,97 2.423,79 0,00 0,00 0,00 0,00 1.361,26 8.613,40 24.517,42 2.107,79 2.550,26 0,00 0,00 4.658,05 19.859,37 31/01/2023
96 463400 ALEXANDRE LEAL WINKELSTROTER ANALISTA DO MP TEÓFILO OTONI - COMARCA; TEOFILO OTONI-PJ-04PJ 11.008,33 2.201,67 0,00 0,00 0,00 0,00 1.144,77 7.195,00 21.549,77 1.894,55 2.242,39 0,00 0,00 4.136,94 17.412,83 31/01/2023
97 615700 ALEXANDRE LUIZ DE CASTRO MACIEL ANALISTA DO MP BELO HORIZONTE - COMARCA; BH-08PJ JUIZADO ESPECIAL-SECRETARIA 10.325,15 1.032,52 0,00 0,00 0,00 0,00 611,99 1.911,00 13.880,66 1.598,18 1.814,50 0,00 0,00 3.412,68 10.467,98 31/01/2023
98 356900 ALEXANDRE MOISES MENDONCA E ARAUJO OFICIAL DO MP UBERABA - COMARCA; UBERABA-PJ-13PJ 8.650,50 2.595,15 0,00 0,00 0,00 0,00 477,58 1.911,00 13.634,23 1.580,25 1.788,63 0,00 0,00 3.368,88 10.265,35 31/01/2023
99 633300 ALEXANDRE NONATO MARTINS OFICIAL DO MP IGARAPÉ - COMARCA; IGARAPE-PJ-02PJ 5.889,39 588,94 0,00 0,00 0,00 0,00 877,31 7.871,06 15.226,70 824,08 633,42 0,00 0,00 1.457,50 13.769,20 31/01/2023
100 469900 ALEXANDRE PEREIRA GUEDES ANALISTA DO MP CATAGUASES - COMARCA; CATAGUASES-PJ-03PJ 11.008,33 2.201,67 0,00 0,00 0,00 0,00 1.226,10 7.723,40 22.159,50 1.894,55 2.242,39 0,00 0,00 4.136,94 18.022,56 31/01/2023
101 208700 ALEXANDRE RESENDE FRAGA ANALISTA DO MP BELO HORIZONTE - COMARCA; BH-19PJ SAUDE-SECRETARIA 130PJ 20.574,59 8.229,84 0,00 0,00 0,00 0,00 1.392,11 1.911,00 32.107,54 4.389,66 5.688,29 0,00 0,00 10.077,95 22.029,59 31/01/2023
102 216401 ALEXANDRE RIBEIRO DE LIMA MAIORINO ANALISTA DO MP UBERABA - COMARCA; UBERABA-PJ-03PJ 19.791,01 7.916,40 0,00 0,00 0,00 0,00 1.951,88 7.452,48 37.111,77 4.214,13 5.539,15 0,00 0,00 9.753,28 27.358,49 31/01/2023
103 475100 ALEXANDRE TEOTONIO COSTA ANALISTA DO MP ARAGUARI - COMARCA; ARAGUARI-PJ-01PJ 11.008,33 2.201,67 0,00 0,00 0,00 0,00 1.170,73 7.723,40 22.104,13 1.894,55 2.138,11 0,00 0,00 4.032,66 18.071,47 31/01/2023
104 339000 ALEXANDRE VITOR CARDOSO OFICIAL DO MP BELO HORIZONTE - COMARCA; BH-23PJ INFRACIONAL-SEC EXP 6.694,66 2.008,40 0,00 0,00 0,00 0,00 1.000,75 7.829,08 17.532,89 1.173,44 1.044,87 0,00 0,00 2.218,31 15.314,58 31/01/2023
105 623100 ALEXSANDER BATISTA AGUIAR COORDENADOR II BELO HORIZONTE - COMARCA; DIRETORIA DE SUPORTE E MANUTENCAO 18.312,36 1.831,24 0,00 0,00 0,00 0,00 1.350,08 8.436,51 29.930,19 1.598,18 4.126,36 0,00 0,00 5.724,54 24.205,65 31/01/2023
106 513300 ALFSON MIRANDA BRAGA ANALISTA DO MP BELO HORIZONTE - COMARCA; BH-12PJ JUIZO CRIMINAL-GAB 087PJ 11.008,33 2.201,67 0,00 0,00 0,00 0,00 665,21 1.911,00 15.786,21 1.894,55 2.242,39 0,00 0,00 4.136,94 11.649,27 31/01/2023
107 618400 ALICE MAGALHAES MACEDO DE CARVALHO ANALISTA DO MP IPATINGA - COMARCA; IPATINGA-PJ-10PJ 10.325,15 1.032,52 0,00 0,00 0,00 0,00 1.166,55 8.702,29 21.226,51 1.598,18 1.814,50 0,00 0,00 3.412,68 17.813,83 31/01/2023
108 707000 ALICE MARIA RIBEIRO DINIZ ASSESSOR PROMOTOR JUSTICA BELO HORIZONTE - COMARCA; PROC JUST ATUACAO TRIBUNAIS SUPERIORES-GAB004 0,00 0,00 7.857,77 0,00 0,00 0,00 813,16 7.882,91 16.553,84 877,22 1.416,87 0,00 0,00 2.294,09 14.259,75 31/01/2023
109 471000 ALICE TITONELI MOREIRA ANALISTA DO MP MIRADOURO - COMARCA; MIRADOURO-PJ-UNPJ 11.008,33 2.201,67 0,00 0,00 0,00 0,00 637,14 2.796,30 16.643,44 1.894,55 2.138,11 0,00 0,00 4.032,66 12.610,78 31/01/2023
110 731600 ALICIA PAULA RODRIGUES DE LIMA ASSESSOR PROMOTOR JUSTICA TIROS - COMARCA; TIROS-PJ-UNPJ 0,00 0,00 7.857,77 0,00 0,00 0,00 0,00 1.911,00 9.768,77 877,22 1.416,87 0,00 0,00 2.294,09 7.474,68 31/01/2023
111 725800 ALINE ALBIERI FRANCISCO ASSESSOR PROMOTOR JUSTICA BELO HORIZONTE - COMARCA; CAO-ORDEM ECONOMICA E TRIBUTARIA-ASSESS TECN 0,00 0,00 7.857,77 0,00 0,00 0,00 0,00 1.911,00 9.768,77 877,22 1.416,87 0,00 0,00 2.294,09 7.474,68 31/01/2023
112 622400 ALINE BALBINO PORTUGAL LOPES ANALISTA DO MP TRÊS PONTAS - COMARCA; TRES PONTAS-PJ-03PJ 10.325,15 1.032,52 0,00 0,00 0,00 0,00 1.123,80 8.702,29 21.183,76 1.598,18 1.814,50 0,00 0,00 3.412,68 17.771,08 31/01/2023
113 373000 ALINE BOTELHO RESENDE OFICIAL DO MP JUIZ DE FORA - COMARCA; JUIZ DE FORA-PJ-22PJ 10.661,25 2.132,25 0,00 0,00 0,00 0,00 658,65 1.911,00 15.363,15 1.827,91 2.146,18 0,00 0,00 3.974,09 11.389,06 31/01/2023
114 699800 ALINE CRISTINA DE OLIVEIRA AMARAL BARBOSA ASSESSOR PROCURADOR JUSTICA BELO HORIZONTE - COMARCA; GABINETE DE PROCURADOR DE JUSTIÇA - SALA 904 0,00 0,00 7.857,77 0,00 0,00 0,00 309,76 1.911,00 10.078,53 877,22 1.312,59 0,00 0,00 2.189,81 7.888,72 31/01/2023
115 407700 ALINE CRISTINA RODRIGUES PEREIRA COORDENADOR II BELO HORIZONTE - COMARCA; DIRETORIA DE PROJETOS DE EDIFICACOES 18.312,36 3.662,47 0,00 0,00 0,00 0,00 925,67 1.911,00 24.811,50 1.894,55 4.652,72 0,00 0,00 6.547,27 18.264,23 31/01/2023
116 193100 ALINE CRISTINA SENA OLIVEIRA OFICIAL DO MP UBERLÂNDIA - COMARCA; UBERLANDIA-PJ-03PJ 18.312,36 7.324,94 0,00 0,00 0,00 0,00 1.711,54 7.923,76 35.272,60 3.882,92 5.060,96 0,00 0,00 8.943,88 26.328,72 31/01/2023
117 554200 ALINE CRISTINA SILVA SOUZA OFICIAL DO MP TIROS - COMARCA; TIROS-PJ-UNPJ 6.694,66 669,47 0,00 0,00 0,00 0,00 368,41 1.911,00 9.643,54 959,93 891,80 0,00 0,00 1.851,73 7.791,81 31/01/2023
118 505500 ALINE DA CUNHA MARREIROS OLIVEIRA ANALISTA DO MP EUGENÓPOLIS - COMARCA; EUGENOPOLIS-PJ-UNPJ 11.008,33 2.201,67 0,00 0,00 0,00 0,00 566,34 3.681,60 17.457,94 1.894,55 2.190,25 0,00 0,00 4.084,80 13.373,14 31/01/2023
119 433500 ALINE DE MELO QUEIROZ OFICIAL DO MP BELO HORIZONTE - COMARCA; ASSESSORIA JURIDICA DO PROCON-MG 9.999,62 1.999,92 3.585,64 0,00 0,00 0,00 1.189,76 8.406,96 25.181,90 1.700,87 2.930,82 0,00 0,00 4.631,69 20.550,21 31/01/2023
120 691100 ALINE DE MELO SOUZA ASSESSOR PROCURADOR JUSTICA BELO HORIZONTE - COMARCA; GABINETE DE PROCURADOR DE JUSTIÇA - SALA 401 0,00 0,00 7.857,77 0,00 0,00 0,00 313,14 1.911,00 10.081,91 877,22 1.416,87 0,00 0,00 2.294,09 7.787,82 31/01/2023
121 542700 ALINE DE SOUSA ALBINO ANALISTA DO MP CONTAGEM - COMARCA; CONTAGEM-PJ-09PJ 11.008,33 1.100,83 0,00 0,00 0,00 0,00 1.141,64 7.723,40 20.974,20 1.718,41 1.988,10 0,00 0,00 3.706,51 17.267,69 31/01/2023
122 330000 ALINE DIORIO MAYRINK OFICIAL DO MP BELO HORIZONTE - COMARCA; NUCLEO DE ACORDOS DE NAO PERSECUCAO PENAL BH 8.932,15 1.786,43 0,00 0,00 0,00 0,00 1.100,88 7.484,66 19.304,12 1.495,92 1.666,87 0,00 0,00 3.162,79 16.141,33 31/01/2023
123 499000 ALINE FERREIRA LOPES ANALISTA DO MP TEÓFILO OTONI - COMARCA; TEOFILO OTONI-PJ-09PJ 11.008,33 2.201,67 0,00 0,00 0,00 0,00 1.178,06 7.723,40 22.111,46 1.894,55 2.190,25 0,00 0,00 4.084,80 18.026,66 31/01/2023
124 405300 ALINE LAIA CARDOZO SUPERINTENDENTE BELO HORIZONTE - COMARCA; SUPERINTENDENCIA LOGISTICA SERVICOS 24.982,93 4.996,59 0,00 0,00 0,00 0,00 1.764,98 7.906,90 39.651,40 2.986,52 6.523,56 0,00 0,00 9.510,08 30.141,32 31/01/2023
125 278200 ALINE MARCIA FARIA BARBOSA FERNANDES OFICIAL DO MP BARBACENA - COMARCA; BARBACENA-PJ-SECRETARIA 8.650,50 2.595,15 0,00 0,00 0,00 0,00 1.129,18 7.758,74 20.133,57 1.580,25 1.684,35 0,00 0,00 3.264,60 16.868,97 31/01/2023
126 389000 ALINE NERI NOBRE ANALISTA DO MP MONTES CLAROS - COMARCA; COORD REG PJ DEF EDUC DIR CRIANCA ADOL NORTE 16.695,70 6.678,28 0,00 0,00 0,00 0,00 1.669,72 7.520,76 32.564,46 3.520,79 4.590,27 0,00 0,00 8.111,06 24.453,40 31/01/2023
127 294600 ALINE PATRICIA SILVA VIEIRA OFICIAL DO MP UBERLÂNDIA - COMARCA; UBERLANDIA-PJ-03PJ 13.341,69 4.002,51 0,00 0,00 0,00 0,00 3.035,10 7.209,78 27.589,08 2.556,02 3.423,34 0,00 0,00 5.979,36 21.609,72 31/01/2023
128 420000 ALINE RODRIGUES CAMOROPIN ANALISTA DO MP SABARÁ - COMARCA; SABARA-PJ-02PJ 16.169,47 3.233,89 0,00 0,00 0,00 0,00 1.064,20 1.911,00 22.378,56 2.885,49 3.673,05 0,00 0,00 6.558,54 15.820,02 31/01/2023
129 715800 ALINE SANTOS PEDROSA MAIA BARBOSA ASSESSOR PROCURADOR JUSTICA BELO HORIZONTE - COMARCA; GABINETE DE PROCURADOR DE JUSTIÇA - SALA 1010 0,00 0,00 7.857,77 0,00 0,00 0,00 76,95 1.911,00 9.845,72 877,22 1.416,87 0,00 0,00 2.294,09 7.551,63 31/01/2023
130 699600 ALINE SEPULVEDA ROSA PIRES ASSESSOR PROCURADOR JUSTICA BELO HORIZONTE - COMARCA; GABINETE DE PROCURADOR DE JUSTIÇA - SALA 905 0,00 0,00 7.857,77 0,00 0,00 0,00 309,76 1.911,00 10.078,53 877,22 1.416,87 0,00 0,00 2.294,09 7.784,44 31/01/2023
131 408300 ALINE SILVA ARAUJO DE PAULA ANALISTA DO MP SÃO SEBASTIÃO DO PARAÍSO - COMARCA; SAO SEBASTIAO DO PARAISO-PJ-02PJ 16.169,47 3.233,89 0,00 0,00 0,00 0,00 1.610,80 7.343,94 28.358,10 982,16 4.004,85 0,00 0,00 4.987,01 23.371,09 31/01/2023
132 425400 ALINE TRINDADE DE FREITAS CAMPOS OFICIAL DO MP BELO HORIZONTE - COMARCA; BH-14PJ DEFESA CONSUMIDOR-SECRETARIA 9.999,62 1.999,92 0,00 0,00 0,00 0,00 533,38 1.911,00 14.443,92 1.700,87 1.962,77 0,00 0,00 3.663,64 10.780,28 31/01/2023
133 517200 ALISSOM PEREIRA DA SILVA ANALISTA DO MP BORDA DA MATA - COMARCA; BORDA DA MATA-PJ-UNPJ 11.008,33 2.201,67 0,00 0,00 0,00 0,00 1.199,01 8.608,70 23.017,71 1.894,55 2.242,39 0,00 0,00 4.136,94 18.880,77 31/01/2023
134 442400 ALISSON LABRE ANALISTA DO MP VARGINHA - COMARCA; VARGINHA-PJ-03PJ 11.736,91 2.347,38 0,00 0,00 0,00 0,00 1.154,14 7.544,72 22.783,15 982,16 2.763,18 0,00 0,00 3.745,34 19.037,81 31/01/2023
135 643800 ALLAN PAUL FONSECA DE CASTRO OFICIAL DO MP CONTAGEM - COMARCA; CONTAGEM-PJ-SECRETARIA 5.889,39 588,94 2.602,68 0,00 0,00 0,00 855,97 8.608,15 18.545,13 822,63 1.401,69 0,00 0,00 2.224,32 16.320,81 31/01/2023
136 612900 ALLAN VINICIUS VIEIRA ARAUJO COORDENADOR II BELO HORIZONTE - COMARCA; DIRETORIA DE GESTAO DOCUMENTAL 18.312,36 1.831,24 0,00 0,00 0,00 0,00 1.358,47 7.551,21 29.053,28 959,93 4.406,15 0,00 0,00 5.366,08 23.687,20 31/01/2023
137 349000 ALLEC RODRIGUES VIEIRA OFICIAL DO MP CAPINÓPOLIS - COMARCA; CAO-CIVEL 11.008,33 3.302,50 0,00 0,00 0,00 0,00 1.272,36 7.635,33 23.218,52 2.070,68 2.496,68 0,00 0,00 4.567,36 18.651,16 31/01/2023
138 297300 ALLYSON SALIBA MONTEIRO LAIZO ANALISTA DO MP CONSELHEIRO LAFAIETE - COMARCA; CONSELHEIRO LAFAIETE-PJ-03PJ 20.574,59 6.172,38 0,00 0,00 0,00 0,00 1.782,64 8.145,69 36.675,30 4.060,46 5.369,43 0,00 0,00 9.429,89 27.245,41 31/01/2023
139 303700 ALMIR LOPES LOURES ANALISTA DO MP BELO HORIZONTE - COMARCA; CENTRAL DE APOIO TECN-SETOR DE MEIO AMBIENTE 20.574,59 6.172,38 0,00 0,00 0,00 0,00 1.810,16 7.260,39 35.817,52 4.060,46 5.369,43 0,00 0,00 9.429,89 26.387,63 31/01/2023
140 696600 ALOIZIO MARTINS JALES JUNIOR ASSESSOR PROMOTOR JUSTICA CAMPESTRE - COMARCA; CAMPESTRE-PJ-SECRETARIA 0,00 0,00 7.857,77 0,00 0,00 0,00 784,10 6.625,66 15.267,53 877,22 1.416,87 0,00 0,00 2.294,09 12.973,44 31/01/2023
141 515900 ALTAIR NEVES JUNIOR OFICIAL DO MP BELO HORIZONTE - COMARCA; BH-01PJ FAZENDA PUBLICA-SECRETARIA 8.650,50 1.730,10 0,00 0,00 0,00 0,00 1.022,07 7.724,14 19.126,81 1.441,84 1.588,80 0,00 0,00 3.030,64 16.096,17 31/01/2023
142 233300 ALVARINDO BATISTA ANALISTA DO MP BELO HORIZONTE - COMARCA; NUCLEO APOIO TECNICO ESP COMUNICACAO 20.574,59 6.172,38 0,00 0,00 0,00 0,00 1.272,39 2.707,77 30.727,13 4.060,46 5.317,29 0,00 0,00 9.377,75 21.349,38 31/01/2023
143 274100 ALYSSON CARVALHO VIDAL DE LACERDA OFICIAL DO MP MANHUAÇU - COMARCA; MANHUACU-PJ-01PJ 11.008,33 3.302,50 0,00 0,00 0,00 0,00 690,66 1.911,00 16.912,49 2.070,68 2.496,68 0,00 0,00 4.567,36 12.345,13 31/01/2023
144 621000 AMANDA BASTOS ALVES ANALISTA DO MP BELO HORIZONTE - COMARCA; BH-07PJ 02 TRIBUNAL DO JURI-GAB 066PJ 10.325,15 1.032,52 0,00 0,00 0,00 0,00 526,16 1.911,00 13.794,83 982,16 1.850,70 0,00 0,00 2.832,86 10.961,97 31/01/2023
145 521700 AMANDA CRISTINA AGUIAR MACHADO OFICIAL DO MP CONGONHAS - COMARCA; CONGONHAS-PJ-01PJ 6.694,66 1.338,93 0,00 0,00 0,00 0,00 380,50 1.911,00 10.325,09 1.066,32 994,50 0,00 0,00 2.060,82 8.264,27 31/01/2023
146 713900 AMANDA DE ARAUJO CARVALHO ASSESSOR PROMOTOR JUSTICA ARAÇUAÍ - COMARCA; ARACUAI-PJ-01PJ 0,00 0,00 7.857,77 0,00 0,00 0,00 151,52 1.911,00 9.920,29 877,22 1.416,87 0,00 0,00 2.294,09 7.626,20 31/01/2023
147 613400 AMANDA DE ASSIS IUNES SANTOS ANALISTA DO MP CONGONHAS - COMARCA; CONGONHAS-PJ-01PJ 10.325,15 1.032,52 0,00 0,00 0,00 0,00 1.106,82 7.816,99 20.281,48 1.598,18 1.814,50 0,00 0,00 3.412,68 16.868,80 31/01/2023
148 695900 AMANDA DE OLIVEIRA ASSESSOR PROCURADOR JUSTICA BELO HORIZONTE - COMARCA; PROC JUST ATUACAO TRIBUNAIS SUPERIORES-GAB004 0,00 0,00 7.857,77 0,00 0,00 0,00 309,76 1.911,00 10.078,53 877,22 1.416,87 0,00 0,00 2.294,09 7.784,44 31/01/2023
149 520800 AMANDA DE SOUZA MACHADO ANALISTA DO MP BAEPENDI - COMARCA; BAEPENDI-PJ-UNPJ 11.008,33 2.201,67 0,00 0,00 0,00 0,00 1.192,74 7.723,40 22.126,14 1.894,55 2.138,11 0,00 0,00 4.032,66 18.093,48 31/01/2023
150 663900 AMANDA DENISE GONCALVES DA SILVA ASSESSOR ADMINISTRATIVO I BELO HORIZONTE - COMARCA; BH-12PJ JUIZO CRIMINAL-SECRETARIA 0,00 0,00 4.345,58 0,00 0,00 0,00 148,68 1.911,00 6.405,26 877,22 451,01 0,00 0,00 1.328,23 5.077,03 31/01/2023
151 677000 AMANDA LETICIA MESSIAS PEGO ASSESSOR PROMOTOR JUSTICA CORAÇÃO DE JESUS - COMARCA; CORACAO DE JESUS-PJ-UNPJ 0,00 0,00 7.857,77 0,00 0,00 0,00 334,43 1.911,00 10.103,20 877,22 1.416,87 0,00 0,00 2.294,09 7.809,11 31/01/2023
152 543100 AMANDA VIEIRA FREITAS BRESSANE ANALISTA DO MP VARGINHA - COMARCA; COORD REG DEF ORDEM ECON TRIB VARGINHA 11.008,33 1.100,83 0,00 0,00 0,00 0,00 510,08 1.911,00 14.530,24 1.718,41 1.988,10 0,00 0,00 3.706,51 10.823,73 31/01/2023
153 434400 AMARILIS ASSIS SIMAO CURCIO ANALISTA DO MP BELO HORIZONTE - COMARCA; DIRETORIA GESTAO COMPRAS LICITACOES 11.008,33 2.201,67 0,00 0,00 0,00 0,00 584,39 1.911,00 15.705,39 1.894,55 2.242,39 0,00 0,00 4.136,94 11.568,45 31/01/2023
154 652000 AMAURI SILVA ALVES ASSESSOR ADMINISTRATIVO III BELO HORIZONTE - COMARCA; BH-23PJ INFRACIONAL-SEC EXP 9.684,23 968,42 0,00 0,00 0,00 0,00 2.445,34 7.876,48 20.974,47 745,69 2.246,70 0,00 0,00 2.992,39 17.982,08 31/01/2023
155 58000 AMELIA GUARIZE DE CASTRO OFICIAL DO MP JUIZ DE FORA - COMARCA; JUIZ DE FORA-PJ-SECRETARIA 7.370,10 7.370,10 0,00 201,11 0,00 3.478,42 1.320,90 7.807,08 27.547,71 2.139,38 3.184,20 0,00 0,00 5.323,58 22.224,13 31/01/2023
156 324301 AMERICA SUELI FERREIRA DA SILVA ANALISTA DO MP UBERLÂNDIA - COMARCA; UBERLANDIA-PJ-02PJ 11.008,33 2.201,67 0,00 0,00 0,00 0,00 1.195,06 7.723,40 22.128,46 1.894,55 2.190,25 0,00 0,00 4.084,80 18.043,66 31/01/2023
157 273300 AMUJACY DE BRITO ASSIZ OFICIAL DO MP BELO HORIZONTE - COMARCA; BH-12PJ JUIZO CRIMINAL-SECRETARIA 11.008,33 3.302,50 0,00 0,00 0,00 0,00 697,98 1.911,00 16.919,81 2.070,68 2.288,13 0,00 0,00 4.358,81 12.561,00 31/01/2023
158 482200 ANA ALICE LOPES ACHTSCHIN ANALISTA DO MP BELO HORIZONTE - COMARCA; PROC JUST ATUACAO TRIBUNAIS SUPERIORES-GAB002 13.341,69 2.668,34 0,00 0,00 0,00 0,00 1.230,18 7.674,61 24.914,82 2.342,55 2.889,20 0,00 0,00 5.231,75 19.683,07 31/01/2023
159 490400 ANA AMELIA PAULINO GARCIA OFICIAL DO MP CONTAGEM - COMARCA; CONTAGEM-PJ-SECRETARIA 9.378,86 1.875,77 0,00 0,00 0,00 0,00 465,63 2.796,30 14.516,56 1.581,69 1.738,56 0,00 0,00 3.320,25 11.196,31 31/01/2023
160 690400 ANA ANGELICA MOREIRA DA CUNHA ASSESSOR PROMOTOR JUSTICA TIMÓTEO - COMARCA; TIMOTEO-PJ-02PJ 0,00 0,00 7.857,77 0,00 0,00 0,00 370,08 1.911,00 10.138,85 877,22 1.416,87 0,00 0,00 2.294,09 7.844,76 31/01/2023
161 714900 ANA BEATRIZ LOBATO ALVES DE CARVALHO ASSESSOR PROCURADOR JUSTICA BELO HORIZONTE - COMARCA; GABINETE DE PROCURADOR DE JUSTICA - SALA 309 0,00 2.357,33 7.857,77 0,00 0,00 0,00 84,52 1.911,00 12.210,62 877,22 2.065,13 0,00 0,00 2.942,35 9.268,27 31/01/2023
162 715000 ANA CARLA RODRIGUES DE SOUZA ASSESSOR PROMOTOR JUSTICA TRÊS CORACOES - COMARCA; TRES CORACOES-PJ-01PJ 0,00 0,00 7.857,77 0,00 0,00 0,00 84,52 1.911,00 9.853,29 877,22 1.416,87 0,00 0,00 2.294,09 7.559,20 31/01/2023
163 279100 ANA CAROLINA ARAUJO PEREIRA ANALISTA DO MP BELO HORIZONTE - COMARCA; DIRETORIA DE PROJETOS DE EDIFICACOES 20.574,59 6.172,38 0,00 0,00 0,00 0,00 1.265,09 1.911,00 29.923,06 4.060,46 5.317,29 0,00 0,00 9.377,75 20.545,31 31/01/2023
164 653300 ANA CAROLINA CYRNE DINIZ ASSESSOR ADMINISTRATIVO III BELO HORIZONTE - COMARCA; CENTRAL DE APOIO TECNICO-SETOR CONTABIL 0,00 0,00 9.684,23 0,00 0,00 0,00 391,76 1.911,00 11.986,99 877,22 1.919,14 0,00 0,00 2.796,36 9.190,63 31/01/2023
165 359400 ANA CAROLINA DE ABREU FARIA ASSESSOR ADMINISTRATIVO IV BELO HORIZONTE - COMARCA; SUPERINTENDÊNCIA DE ENGENHARIA E ARQUITETURA 0,00 0,00 12.920,95 0,00 0,00 0,00 1.067,43 8.481,52 22.469,90 877,22 2.757,10 0,00 0,00 3.634,32 18.835,58 31/01/2023
166 408500 ANA CAROLINA DE CASTRO CARVALHO ANALISTA DO MP BARBACENA - COMARCA; BARBACENA - SECRETARIA DAS PJS CRIMINAIS 16.169,47 3.233,89 0,00 0,00 0,00 0,00 1.032,78 2.796,30 23.232,44 2.885,49 3.673,05 0,00 0,00 6.558,54 16.673,90 31/01/2023
167 688000 ANA CAROLINA DE OLIVEIRA PINTO ASSESSOR PROCURADOR JUSTICA BELO HORIZONTE - COMARCA; GABINETE DE PROCURADOR DE JUSTIÇA - SALA 1005 0,00 0,00 7.857,77 0,00 0,00 0,00 328,15 1.911,00 10.096,92 877,22 1.416,87 0,00 0,00 2.294,09 7.802,83 31/01/2023
168 420200 ANA CAROLINA FERNANDES SILVA ANALISTA DO MP BELO HORIZONTE - COMARCA; GABINETE DE PROCURADOR DE JUSTIÇA - SALA 704 15.659,55 3.131,91 0,00 0,00 0,00 0,00 801,41 1.911,00 21.503,87 2.787,58 3.531,71 0,00 0,00 6.319,29 15.184,58 31/01/2023
169 522100 ANA CAROLINA FERNANDINO VIDAL PEREIRA SANTOS OFICIAL DO MP BELO HORIZONTE - COMARCA; SECRETARIA DO PROCON-MG 8.650,50 1.730,10 0,00 0,00 0,00 0,00 476,10 1.911,00 12.767,70 982,16 1.621,31 0,00 0,00 2.603,47 10.164,23 31/01/2023
170 716000 ANA CAROLINA FIGUEIREDO SILVA ASSESSOR PROCURADOR JUSTICA BELO HORIZONTE - COMARCA; PROC JUST ATUACAO TRIBUNAIS SUPERIORES-GAB001 0,00 0,00 7.857,77 0,00 0,00 0,00 69,63 1.911,00 9.838,40 877,22 1.416,87 0,00 0,00 2.294,09 7.544,31 31/01/2023
171 502400 ANA CAROLINA GONCALVES FERNANDES ANALISTA DO MP IPATINGA - COMARCA; IPATINGA-PJ-01PJ 11.008,33 2.201,67 0,00 0,00 0,00 0,00 1.164,52 9.494,00 23.868,52 982,16 2.333,95 0,00 0,00 3.316,11 20.552,41 31/01/2023
172 529900 ANA CAROLINA GONCALVES PECANHA CHEQUER ANALISTA DO MP MANHUAÇU - COMARCA; MANHUACU-PJ-04PJ 11.008,33 1.100,83 0,00 0,00 0,00 0,00 574,13 3.681,60 16.364,89 1.718,41 1.988,10 0,00 0,00 3.706,51 12.658,38 31/01/2023
173 431900 ANA CAROLINA MOTTA GUATIMOSIM ANALISTA DO MP BELO HORIZONTE - COMARCA; ASSESSORIA JURIDICO-ADMINISTRATIVA 15.659,55 3.131,91 0,00 0,00 0,00 0,00 929,44 2.796,30 22.517,20 2.787,58 3.531,71 0,00 0,00 6.319,29 16.197,91 31/01/2023
174 490600 ANA CAROLINA XAVIER GODOY ANALISTA DO MP BELO HORIZONTE - COMARCA; BH-18PJ DIREITOS HUMANOS-SECRETARIA 11.008,33 2.201,67 0,00 0,00 0,00 0,00 1.209,95 9.494,00 23.913,95 1.894,55 2.138,11 0,00 0,00 4.032,66 19.881,29 31/01/2023
175 600300 ANA CAROLINE PEREIRA DINIZ ANALISTA DO MP BELO HORIZONTE - COMARCA; PROC JUST ESP ACOES COMP ORIG CRIMINAL-SEC 11.008,33 1.100,83 0,00 0,00 0,00 0,00 1.148,09 8.608,70 21.865,95 1.718,41 1.988,10 0,00 0,00 3.706,51 18.159,44 31/01/2023
176 615800 ANA CAROLINE PEREIRA OLIVEIRA OFICIAL DO MP ALFENAS - COMARCA; ALFENAS-PJ-06PJ 6.694,66 669,47 0,00 0,00 0,00 0,00 962,19 7.802,30 16.128,62 959,93 891,80 0,00 0,00 1.851,73 14.276,89 31/01/2023
177 324800 ANA CECILIA MENDES DA SILVA OFICIAL DO MP OURO FINO - COMARCA; OURO FINO-PJ-01PJ 11.008,33 4.403,33 0,00 0,00 0,00 0,00 619,37 1.911,00 17.942,03 2.246,81 2.698,84 0,00 0,00 4.945,65 12.996,38 31/01/2023
178 704100 ANA CLARA MARTINS ALBUQUERQUE ASSESSOR ADMINISTRATIVO I BELO HORIZONTE - COMARCA; CAO-CRIANCAS E ADOLESCENTES-ASS TECNICA 0,00 0,00 4.345,58 0,00 0,00 0,00 123,03 1.911,00 6.379,61 877,22 451,01 0,00 0,00 1.328,23 5.051,38 31/01/2023
179 698700 ANA CLARA SANTOS ALMEIDA ASSESSOR PROMOTOR JUSTICA SABINÓPOLIS - COMARCA; SABINOPOLIS-PJ-UNPJ 0,00 0,00 7.857,77 0,00 0,00 0,00 320,44 1.911,00 10.089,21 877,22 1.416,87 0,00 0,00 2.294,09 7.795,12 31/01/2023
180 441300 ANA CLAUDIA ALKIMIM MIRANDA BOMTEMPO ANALISTA DO MP MONTES CLAROS - COMARCA; MONTES CLAROS-PJ-11PJ 15.659,55 3.131,91 0,00 0,00 0,00 0,00 801,15 1.911,00 21.503,61 2.787,58 3.427,43 0,00 0,00 6.215,01 15.288,60 31/01/2023
181 642500 ANA CLAUDIA DA COSTA NAVES OFICIAL DO MP MONTE CARMELO - COMARCA; MONTE CARMELO-PJ-02PJ 5.438,14 543,81 0,00 0,00 0,00 0,00 279,06 3.093,58 9.354,59 745,69 570,61 0,00 0,00 1.316,30 8.038,29 31/01/2023
182 716800 ANA CLAUDIA DOURADO MENDES ASSESSOR PROMOTOR JUSTICA ARAÇUAÍ - COMARCA; ARACUAI-PJ-02PJ 0,00 0,00 7.857,77 0,00 2.619,26 0,00 62,30 1.911,00 12.450,33 877,22 2.137,16 0,00 0,00 3.014,38 9.435,95 31/01/2023
183 604900 ANA CLAUDIA OLIVEIRA DE MIRANDA OFICIAL DO MP PONTE NOVA - COMARCA; PONTE NOVA-PJ-04PJ 6.694,66 669,47 0,00 0,00 0,00 0,00 812,86 7.213,17 15.390,16 959,93 839,66 0,00 0,00 1.799,59 13.590,57 31/01/2023
184 379300 ANA CRISTINA ALVES FLAVIO ANALISTA DO MP SÃO GOTARDO - COMARCA; SAO GOTARDO-PJ-01PJ 16.695,70 3.339,14 0,00 0,00 0,00 0,00 1.038,64 2.796,30 23.869,78 2.986,52 3.766,79 0,00 0,00 6.753,31 17.116,47 31/01/2023
185 461200 ANA CRISTINA ALVES PASCHOAL ANALISTA DO MP BELO HORIZONTE - COMARCA; BH-07PJ 03 TRIBUNAL DO JURI-GAB 064PJ 11.008,33 2.201,67 0,00 0,00 0,00 0,00 699,69 1.911,00 15.820,69 1.894,55 2.190,25 0,00 0,00 4.084,80 11.735,89 31/01/2023
186 514100 ANA CRISTINA ARAUJO ASSUNCAO ANALISTA DO MP BELO HORIZONTE - COMARCA; ASSESS JUR DO CONS SUPERIOR DO MINISTERIO PUB 11.008,33 2.201,67 0,00 0,00 0,00 0,00 621,63 2.796,30 16.627,93 1.894,55 2.190,25 0,00 0,00 4.084,80 12.543,13 31/01/2023
187 113401 ANA CRISTINA BRAGA ALBUQUERQUE ASSESSOR ADM. ESPECIAL BELO HORIZONTE - COMARCA; DIRETORIA-GERAL 0,00 0,00 24.982,93 0,00 0,00 0,00 434,94 1.333,00 26.750,87 877,22 6.126,29 0,00 0,00 7.003,51 19.747,36 31/01/2023
188 233800 ANA CRISTINA BRAGA SOARES OFICIAL DO MP CONTAGEM - COMARCA; CONTAGEM-PJ-SECRETARIA 13.341,69 4.002,51 0,00 0,00 0,00 0,00 843,98 1.911,00 20.099,18 2.556,02 3.093,12 0,00 0,00 5.649,14 14.450,04 31/01/2023
189 186400 ANA CRISTINA DE AZEVEDO LOPES OFICIAL DO MP UBÁ - COMARCA; UBA-PJ-01PJ 18.312,36 7.324,94 0,00 0,00 0,00 0,00 1.749,63 7.038,46 34.425,39 3.882,92 5.113,09 0,00 0,00 8.996,01 25.429,38 31/01/2023
190 693000 ANA CRISTINA DE MELO SILVEIRA ASSESSOR PROCURADOR JUSTICA BELO HORIZONTE - COMARCA; COORD DE CONTROLE CONSTITUCIONALIDADE 0,00 0,00 8.039,54 1.964,44 0,00 0,00 343,88 2.614,53 12.962,39 1.035,83 1.416,87 0,00 0,00 2.452,70 10.509,69 31/01/2023
191 465100 ANA CRISTINA DE OLIVEIRA GUIMARAES ANALISTA DO MP ITAJUBA - COMARCA; ITAJUBA-PJ-05PJ 11.008,33 2.201,67 0,00 0,00 0,00 0,00 1.181,65 8.608,70 23.000,35 1.894,55 2.138,11 0,00 0,00 4.032,66 18.967,69 31/01/2023
192 500600 ANA CRISTINA LATADO SUDARIO ANALISTA DO MP UBERLÂNDIA - COMARCA; UBERLANDIA-PJ-09PJ 11.008,33 2.201,67 0,00 0,00 0,00 0,00 588,81 1.911,00 15.709,81 1.894,55 2.242,39 0,00 0,00 4.136,94 11.572,87 31/01/2023
193 331400 ANA CRISTINA RIBEIRO ALVES OFICIAL DO MP BAMBUÍ - COMARCA; BAMBUI-PJ-UNPJ 11.008,33 3.302,50 0,00 0,00 0,00 0,00 1.312,06 7.635,33 23.258,22 2.070,68 2.444,54 0,00 0,00 4.515,22 18.743,00 31/01/2023
194 249300 ANA ELOINA MARTINS OFICIAL DO MP BETIM - COMARCA; BETIM-PJ-02PJ 15.659,55 7.829,78 0,00 0,00 0,00 0,00 1.573,18 7.548,44 32.610,95 3.539,24 4.616,91 0,00 0,00 8.156,15 24.454,80 31/01/2023
195 257400 ANA FLAVIA CAMBRAIA ANALISTA DO MP BELO HORIZONTE - COMARCA; BH-19PJ SAUDE-SECRETARIA 150PJ 20.574,59 6.172,38 0,00 0,00 0,00 0,00 1.411,21 1.911,00 30.069,18 4.060,46 5.317,29 0,00 0,00 9.377,75 20.691,43 31/01/2023
196 248201 ANA FLAVIA DE MORAIS SOUZA ANALISTA DO MP DIVINÓPOLIS - COMARCA; DIVINOPOLIS-PJ-01PJ 13.341,69 4.002,51 0,00 0,00 0,00 0,00 1.439,96 8.346,44 27.130,60 2.556,02 3.093,12 0,00 0,00 5.649,14 21.481,46 31/01/2023
197 621100 ANA FLAVIA DINIZ TEODORO OFICIAL DO MP SANTA LUZIA - COMARCA; SANTA LUZIA-PJ-06PJ 6.694,66 669,47 0,00 0,00 0,00 0,00 394,14 1.911,00 9.669,27 959,93 891,80 0,00 0,00 1.851,73 7.817,54 31/01/2023
198 238600 ANA FLAVIA FRANCO OFICIAL DO MP BELO HORIZONTE - COMARCA; DIRETORIA DE PESSOAL ADMINISTRATIVO - DPAD 16.169,47 6.467,79 0,00 0,00 0,00 0,00 1.646,54 7.343,94 31.627,74 3.402,91 4.420,09 0,00 0,00 7.823,00 23.804,74 31/01/2023
199 690000 ANA FLAVIA LURIAN DE PAIVA ASSESSOR PROCURADOR JUSTICA BELO HORIZONTE - COMARCA; GABINETE DE PROCURADOR DE JUSTIÇA - SALA 609 0,00 0,00 7.857,77 0,00 0,00 0,00 328,57 1.911,00 10.097,34 877,22 1.416,87 0,00 0,00 2.294,09 7.803,25 31/01/2023
200 402900 ANA FLAVIA PORTES DE CARVALHO ANALISTA DO MP BELO HORIZONTE - COMARCA; DIRET DE PLANOS PROJETOS E PROGRAMAS INST 16.695,70 3.339,14 0,00 0,00 0,00 0,00 1.567,89 7.520,76 29.123,49 2.986,52 3.766,79 0,00 0,00 6.753,31 22.370,18 31/01/2023
201 382700 ANA KARENINA SALDANHA GONTIJO ANALISTA DO MP BELO HORIZONTE - COMARCA; ASSESS TECNICO-JUR JUNTO AS PROC. DE JUST 16.944,07 3.388,81 0,00 0,00 0,00 0,00 861,83 1.911,00 23.105,71 3.034,21 3.887,77 0,00 0,00 6.921,98 16.183,73 31/01/2023
202 620500 ANA KARINE DE ANDRADE OLIVEIRA ANALISTA DO MP RIBEIRÃO DAS NEVES - COMARCA; RIBEIRAO NEVES-SEC PJ EXECUCAO PENAL 9.378,86 937,89 0,00 0,00 0,00 0,00 635,43 1.911,00 12.863,18 1.431,63 1.574,05 0,00 0,00 3.005,68 9.857,50 31/01/2023
203 462200 ANA LUCIA ANDRADE TOMICH OTTONI ANALISTA DO MP TEÓFILO OTONI - COMARCA; TEOFILO OTONI-PJ-07PJ 11.008,33 2.201,67 0,00 0,00 0,00 0,00 818,62 4.909,90 18.938,52 1.894,55 2.138,11 0,00 0,00 4.032,66 14.905,86 31/01/2023
204 504100 ANA LUCIA CATAO DE CARVALHO OFICIAL DO MP BELO HORIZONTE - COMARCA; DIR RELACOES INSTITUCIONAIS 9.378,86 1.875,77 0,00 0,00 0,00 0,00 496,01 1.911,00 13.661,64 1.581,69 1.738,56 0,00 0,00 3.320,25 10.341,39 31/01/2023
205 274700 ANA LUCIA DE ALENCAR BRAGATO OFICIAL DO MP UBERABA - COMARCA; UBERABA-PJ-07PJ 11.008,33 3.302,50 0,00 0,00 0,00 0,00 1.270,24 7.635,33 23.216,40 2.070,68 2.496,68 0,00 0,00 4.567,36 18.649,04 31/01/2023
206 509400 ANA LUCIA DORNELAS MALLOSTO ANALISTA DO MP JUIZ DE FORA - COMARCA; JUIZ DE FORA-PJ-25PJ 11.008,33 2.201,67 0,00 0,00 0,00 0,00 1.187,30 7.723,40 22.120,70 1.894,55 2.190,25 0,00 0,00 4.084,80 18.035,90 31/01/2023
207 302600 ANA LUCIA LOPES SANTOS OFICIAL DO MP BELO HORIZONTE - COMARCA; DIVISÃO DE FISCALIZAÇÃO DAS RELAÇÕES DE CONSU 11.008,33 3.302,50 0,00 0,00 0,00 0,00 2.422,63 1.911,00 18.644,46 2.070,68 2.879,04 0,00 0,00 4.949,72 13.694,74 31/01/2023
208 716700 ANA LUISA DE LANA COELHO ASSESSOR PROCURADOR JUSTICA BELO HORIZONTE - COMARCA; GABINETE DE PROCURADOR DE JUSTIÇA - SALA 715 0,00 0,00 7.857,77 0,00 0,00 0,00 63,34 1.911,00 9.832,11 877,22 1.416,87 0,00 0,00 2.294,09 7.538,02 31/01/2023
209 702000 ANA LUISA DE OLIVEIRA RIBEIRO ASSESSOR PROCURADOR JUSTICA BELO HORIZONTE - COMARCA; ASSESS TECNICO-JUR JUNTO AS PROC. DE JUST 0,00 0,00 7.857,77 0,00 0,00 0,00 294,86 1.911,00 10.063,63 877,22 1.416,87 0,00 0,00 2.294,09 7.769,54 31/01/2023
210 493400 ANA LUISA NOGUEIRA MOREIRA ANALISTA DO MP BELO HORIZONTE - COMARCA; BH-19PJ SAUDE-SECRETARIA 130PJ 11.008,33 2.201,67 0,00 0,00 0,00 0,00 655,85 1.911,00 15.776,85 1.894,55 2.242,39 0,00 0,00 4.136,94 11.639,91 31/01/2023
211 389300 ANA LUISA REUTER LIMA ANALISTA DO MP BELO HORIZONTE - COMARCA; DIRETORIA DE SISTEMAS DE INFORMACAO 16.695,70 3.339,14 4.939,72 0,00 0,00 0,00 904,79 1.911,00 27.790,35 2.986,52 5.177,35 0,00 0,00 8.163,87 19.626,48 31/01/2023
212 480600 ANA LUIZA FERNANDES FRAGA E GRECO COORDENADOR I BELO HORIZONTE - COMARCA; OUVIDORIA DO MPMG 14.687,60 2.937,52 0,00 0,00 0,00 0,00 1.386,53 7.551,04 26.562,69 1.441,84 3.581,04 0,00 0,00 5.022,88 21.539,81 31/01/2023
213 726800 ANA LUIZA GOMES PEREIRA ASSESSOR ADMINISTRATIVO I BELO HORIZONTE - COMARCA; OUVIDORIA DO MPMG 0,00 0,00 4.345,58 0,00 0,00 0,00 0,00 1.911,00 6.256,58 621,17 521,42 0,00 0,00 1.142,59 5.113,99 31/01/2023
214 517800 ANA LUIZA MAGALHAES CIRINO PIOTO DE MELO OFICIAL DO MP BELO HORIZONTE - COMARCA; DIVISAO DE MATERIAIS 6.081,20 608,12 0,00 0,00 0,00 0,00 257,20 3.681,60 10.628,12 855,73 734,88 0,00 0,00 1.590,61 9.037,51 31/01/2023
215 481400 ANA MARCIA CANDIDA FERREIRA OFICIAL DO MP BRUMADINHO - COMARCA; BRUMADINHO-PJ-02PJ 6.694,66 1.338,93 0,00 0,00 0,00 0,00 424,64 1.911,00 10.369,23 1.066,32 1.046,64 0,00 0,00 2.112,96 8.256,27 31/01/2023
216 643100 ANA MARIA LOPES MIRANDA ANALISTA DO MP BELO HORIZONTE - COMARCA; CAO-FUNDACOES 9.223,00 922,30 0,00 0,00 0,00 0,00 473,41 2.796,30 13.415,01 982,16 1.327,57 0,00 0,00 2.309,73 11.105,28 31/01/2023
217 556400 ANA MARIA OLIVEIRA SOUZA OFICIAL DO MP ITAPECERICA - COMARCA; ITAPECERICA-PJ-UNPJ 7.137,75 713,78 0,00 0,00 0,00 0,00 389,64 1.911,00 10.152,17 1.037,19 1.004,58 0,00 0,00 2.041,77 8.110,40 31/01/2023
218 409600 ANA OLIVIA FARIA ROSENBURG ANALISTA DO MP BELO HORIZONTE - COMARCA; DIRETORIA DO COLEGIO E DA CAMARA DE PJ 16.169,47 4.850,84 0,00 0,00 0,00 0,00 1.703,36 7.796,69 30.520,36 3.144,20 4.046,57 0,00 0,00 7.190,77 23.329,59 31/01/2023
219 461500 ANA PAULA ALVES CARVALHO ANALISTA DO MP UBERLÂNDIA - COMARCA; UBERLANDIA-PJ-25PJ 11.736,91 2.347,38 0,00 0,00 0,00 0,00 618,78 2.796,30 17.499,37 2.034,43 2.340,08 0,00 0,00 4.374,51 13.124,86 31/01/2023
220 523200 ANA PAULA ALVES DA SILVA OFICIAL DO MP GOVERNADOR VALADARES - COMARCA; GOVERNADOR VALADARES-PJ-10PJ 8.650,50 1.730,10 0,00 0,00 0,00 0,00 1.007,83 11.265,34 22.653,77 982,16 1.519,88 0,00 0,00 2.502,04 20.151,73 31/01/2023
221 381200 ANA PAULA BARROS PEREIRA RIGHI ANALISTA DO MP BELO HORIZONTE - COMARCA; PROC JUST ATUACAO TRIBUNAIS SUPERIORES-GAB003 16.695,70 3.339,14 0,00 0,00 0,00 0,00 897,37 2.796,30 23.728,51 982,16 3.893,37 0,00 0,00 4.875,53 18.852,98 31/01/2023
222 696400 ANA PAULA CARVALHO SILVA ASSESSOR PROMOTOR JUSTICA PERDÕES - COMARCA; PERDOES-PJ-UNPJ 0,00 0,00 7.857,77 0,00 0,00 0,00 309,76 2.796,30 10.963,83 877,22 1.364,73 0,00 0,00 2.241,95 8.721,88 31/01/2023
223 700900 ANA PAULA CRAVO SALOME ASSESSOR ADMINISTRATIVO I BELO HORIZONTE - COMARCA; PROCURADOR-GERAL DE JUSTIÇA 0,00 0,00 4.345,58 0,00 0,00 0,00 304,68 3.823,06 8.473,32 877,22 451,01 0,00 0,00 1.328,23 7.145,09 31/01/2023
224 227200 ANA PAULA DA SILVA CAMPOLINA ANALISTA DO MP BELO HORIZONTE - COMARCA; DIRETORIA DE ORCAMENTO-DIOR/SPC 20.574,59 10.287,30 0,00 0,00 0,00 0,00 2.047,05 6.848,90 39.757,84 4.718,85 6.319,98 0,00 0,00 11.038,83 28.719,01 31/01/2023
225 278500 ANA PAULA DIAS CAPANEMA OFICIAL DO MP BELO HORIZONTE - COMARCA; DIRETORIA DE SEGURANCA 11.736,91 3.521,07 0,00 0,00 0,00 0,00 1.258,90 7.403,87 23.920,75 2.222,23 2.715,47 0,00 0,00 4.937,70 18.983,05 31/01/2023
226 327300 ANA PAULA GARCIA MAXIMO OFICIAL DO MP UNAÍ - COMARCA; UNAI-PJ-01PJ 13.776,02 5.510,41 0,00 0,00 0,00 0,00 1.553,36 7.311,20 28.150,99 2.866,78 3.489,63 0,00 0,00 6.356,41 21.794,58 31/01/2023
227 270000 ANA PAULA GOULART CRUZ DE MAGALHAES ANALISTA DO MP BELO HORIZONTE - COMARCA; ASSESSORIA ESPECIAL DO PGJ 20.574,59 6.172,38 0,00 0,00 0,00 0,00 1.762,27 7.260,39 35.769,63 4.060,46 5.369,43 0,00 0,00 9.429,89 26.339,74 31/01/2023
228 262100 ANA PAULA KOMATSUZAKI ABIJAUDI ANALISTA DO MP BELO HORIZONTE - COMARCA; BH-17PJ PATRIMONIO PUBLICO-SECRETARIA 20.574,59 10.287,30 0,00 0,00 0,00 0,00 1.328,52 1.911,00 34.101,41 4.718,85 6.215,70 0,00 0,00 10.934,55 23.166,86 31/01/2023
229 278900 ANA PAULA MOREIRA GURGEL ANALISTA DO MP BELO HORIZONTE - COMARCA; ASSESSORIA JURIDICO-ADMINISTRATIVA 20.574,59 8.229,84 7.494,88 0,00 0,00 0,00 2.144,88 7.584,96 46.029,15 4.389,66 7.675,59 837,09 0,00 12.902,34 33.126,81 31/01/2023
230 425701 ANA PAULA ROCHA ANALISTA DO MP BELO HORIZONTE - COMARCA; ASSESSORIA DE COMUNICACAO INTEGRADA 11.008,33 1.100,83 0,00 0,00 0,00 0,00 555,31 2.796,30 15.460,77 1.718,41 1.988,10 0,00 0,00 3.706,51 11.754,26 31/01/2023
231 395601 ANA PAULA SALGE OLIVEIRA ANALISTA DO MP UBERABA - COMARCA; UBERABA-PJ-15PJ 11.008,33 3.302,50 0,00 0,00 0,00 0,00 1.279,05 7.635,33 23.225,21 2.070,68 2.496,68 0,00 0,00 4.567,36 18.657,85 31/01/2023
232 473200 ANA PAULA SCOTTON BRASIL ANALISTA DO MP JUIZ DE FORA - COMARCA; JUIZ DE FORA-PJ-09PJ 11.008,33 2.201,67 0,00 0,00 0,00 0,00 695,76 1.911,00 15.816,76 1.894,55 2.242,39 0,00 0,00 4.136,94 11.679,82 31/01/2023
233 633600 ANA PAULA SILVA FERNANDES OFICIAL DO MP CATAGUASES - COMARCA; CATAGUASES-PJ-04PJ 6.483,63 648,36 0,00 0,00 0,00 0,00 294,74 1.911,00 9.337,73 923,95 837,85 0,00 0,00 1.761,80 7.575,93 31/01/2023
234 470900 ANA PAULA VALADARES ANALISTA DO MP PITANGUI - COMARCA; PITANGUI-PJ-01PJ 11.008,33 2.201,67 0,00 0,00 0,00 0,00 581,99 1.911,00 15.702,99 1.894,55 2.138,11 0,00 0,00 4.032,66 11.670,33 31/01/2023
235 447000 ANA PAULA VALENTIM DE ARAUJO ANALISTA DO MP BELO HORIZONTE - COMARCA; PROC JUST ESP ACOES COMP ORIG CRIMINAL-ASSESS 12.118,97 2.423,79 0,00 0,00 0,00 0,00 742,71 1.911,00 17.196,47 2.107,79 2.550,26 0,00 0,00 4.658,05 12.538,42 31/01/2023
236 604200 ANA PAULA VIANA E SILVA OFICIAL DO MP BELO HORIZONTE - COMARCA; BH-17PJ PATRIMONIO PUBLICO-SECRETARIA 6.694,66 669,47 0,00 0,00 0,00 0,00 367,71 1.911,00 9.642,84 959,93 891,80 0,00 0,00 1.851,73 7.791,11 31/01/2023
237 505400 ANA PAULA VIEIRA SOUTO OFICIAL DO MP ALMENARA - COMARCA; ALMENARA-PJ-01PJ 6.694,66 2.677,86 0,00 0,00 0,00 0,00 448,49 1.911,00 11.732,01 1.280,55 1.303,79 0,00 0,00 2.584,34 9.147,67 31/01/2023
238 280200 ANA RACHEL BRANDAO LADEIRA ROLAND ANALISTA DO MP BELO HORIZONTE - COMARCA; SUPERINTENDENCIA GESTÃO DE PESSOAS 20.574,59 6.172,38 7.494,88 0,00 0,00 0,00 1.977,01 7.389,70 43.608,56 4.060,46 7.430,52 0,00 0,00 11.490,98 32.117,58 31/01/2023
239 691000 ANA RACHEL DOS REIS E SENA COSTA ASSESSOR PROMOTOR JUSTICA BELO HORIZONTE - COMARCA; GABINETE DE PROCURADOR DE JUSTIÇA - SALA 601 0,00 0,00 7.857,77 0,00 0,00 0,00 879,10 7.882,91 16.619,78 877,22 1.416,87 0,00 0,00 2.294,09 14.325,69 31/01/2023
240 601200 ANA REGINA RIBEIRO ANALISTA DO MP BELO HORIZONTE - COMARCA; DIV FISCAL ADM CONT TERCEIRIZACAO 11.008,33 1.100,83 4.406,28 480,31 160,10 0,00 7.895,83 8.817,18 33.868,86 982,16 2.876,51 0,00 0,00 3.858,67 30.010,19 31/01/2023
241 384700 ANA RODRIGUES PEREIRA MARRA ANALISTA DO MP COROMANDEL - COMARCA; COROMANDEL-PJ-01PJ 11.008,33 2.201,67 0,00 0,00 0,00 0,00 1.228,38 8.608,70 23.047,08 1.894,55 2.138,11 0,00 0,00 4.032,66 19.014,42 31/01/2023
242 232700 ANA SILVIA SEMBLANO NAKAMURA OFICIAL DO MP BELO HORIZONTE - COMARCA; CENT DE APOIO TEC-SETOR DEF,IDOSO E INFANC 11.008,33 3.302,50 3.585,64 0,00 0,00 0,00 1.303,93 7.637,87 26.838,27 2.070,68 3.482,73 0,00 0,00 5.553,41 21.284,86 31/01/2023
243 602100 ANACLETO FRANCISCO MARCIER PIMENTA OFICIAL DO MP SÃO JOÃO DEL REI - COMARCA; SAO JOAO DEL REI-PJ-03PJ 6.694,66 669,47 0,00 0,00 0,00 0,00 317,31 2.943,85 10.625,29 959,93 631,11 0,00 0,00 1.591,04 9.034,25 31/01/2023
244 310400 ANADEJE DO CARMO DINIZ ARAUJO OFICIAL DO MP BELO HORIZONTE - COMARCA; DIRETORIA DE PESSOAL ADMINISTRATIVO - DPAD 11.008,33 3.302,50 0,00 0,00 0,00 0,00 1.170,60 7.635,33 23.116,76 2.070,68 2.496,68 0,00 0,00 4.567,36 18.549,40 31/01/2023
245 337000 ANAILDES MARIA MENDES OFICIAL DO MP JANAÚBA - COMARCA; JANAUBA-PJ-02PJ 11.008,33 3.302,50 0,00 0,00 0,00 0,00 1.356,93 8.520,63 24.188,39 2.070,68 2.496,68 0,00 0,00 4.567,36 19.621,03 31/01/2023
246 192900 ANATALIA CERQUEIRA LIMA PERES OFICIAL DO MP UBERABA - COMARCA; COORD REG SAUDE MACROR SANIT TRIANGULO SUL 13.776,02 5.510,41 0,00 0,00 0,00 0,00 1.366,16 7.311,20 27.963,79 2.866,78 3.646,04 0,00 0,00 6.512,82 21.450,97 31/01/2023
247 377400 ANDEIRSON DA MATTA BARBOSA ANALISTA DO MP POUSO ALEGRE - COMARCA; POUSO ALEGRE-PJ-01PJ 11.008,33 2.201,67 0,00 0,00 0,00 0,00 1.229,19 8.608,70 23.047,89 1.894,55 2.242,39 0,00 0,00 4.136,94 18.910,95 31/01/2023
248 317400 ANDERSON DA SILVA BICALHO OFICIAL DO MP CONTAGEM - COMARCA; CONTAGEM-PJ-SECRETARIA 10.661,25 3.198,38 0,00 0,00 0,00 0,00 623,63 1.911,00 16.394,26 1.998,49 2.236,04 0,00 0,00 4.234,53 12.159,73 31/01/2023
249 506900 ANDERSON DE SOUZA DAMIANI ANALISTA DO MP BELO HORIZONTE - COMARCA; DIRETORIA DE PAGAMENTO DE PESSOAL-DPAG 11.008,33 3.302,50 4.939,72 0,00 0,00 0,00 1.185,29 7.301,15 27.736,99 2.070,68 3.802,97 0,00 0,00 5.873,65 21.863,34 31/01/2023
250 410000 ANDERSON DE SOUZA NETO ASSESSOR ADMINISTRATIVO II BELO HORIZONTE - COMARCA; DIRETORIA DE ADMINISTRACAO FINANCEIRA 0,00 0,00 6.694,66 0,00 0,00 0,00 813,18 7.802,30 15.310,14 877,22 1.097,01 0,00 0,00 1.974,23 13.335,91 31/01/2023
251 181900 ANDERSON FLAVIO DE OLIVEIRA OFICIAL DO MP ITAGUARA - COMARCA; ITAGUARA-PJ-SECRETARIA 16.169,47 6.467,79 0,00 0,00 0,00 0,00 1.088,66 1.911,00 25.636,92 3.402,91 4.420,09 0,00 0,00 7.823,00 17.813,92 31/01/2023
252 333200 ANDERSON JOSE DE FREITAS OFICIAL DO MP IPATINGA - COMARCA; IPATINGA-PJ-04PJ 11.008,33 3.302,50 0,00 0,00 0,00 0,00 2.951,39 8.517,00 25.779,22 2.070,68 2.774,77 0,00 0,00 4.845,45 20.933,77 31/01/2023
253 699400 ANDERSON LUIZ CABRAL ASSESSOR PROMOTOR JUSTICA ALÉM PARAÍBA - COMARCA; ALEM PARAIBA-PJ-03PJ 0,00 0,00 7.857,77 0,00 0,00 0,00 309,76 1.911,00 10.078,53 877,22 1.416,87 0,00 0,00 2.294,09 7.784,44 31/01/2023
254 462100 ANDERSON LUIZ GUIMARAES CARDOSO ANALISTA DO MP BARBACENA - COMARCA; BARBACENA-PJ-02PJ 13.341,69 2.668,34 0,00 0,00 0,00 0,00 1.312,52 7.674,61 24.997,16 2.342,55 2.889,20 0,00 0,00 5.231,75 19.765,41 31/01/2023
255 429700 ANDERSON MELO DE SOUZA ASSESSOR ADMINISTRATIVO IV BELO HORIZONTE - COMARCA; DIRET DE ESTAGIOS E CONVENIOS ACADEMICOS 12.920,95 2.584,19 0,00 0,00 0,00 0,00 1.238,42 7.492,85 24.236,41 1.066,32 3.101,32 0,00 0,00 4.167,64 20.068,77 31/01/2023
256 545600 ANDERSON MENDES PROCOPIO FERREIRA ANALISTA DO MP BELO HORIZONTE - COMARCA; BH-12PJ JUIZO CRIMINAL-GAB 089PJ 11.008,33 1.100,83 0,00 0,00 0,00 0,00 1.158,12 7.723,40 20.990,68 1.718,41 1.988,10 0,00 0,00 3.706,51 17.284,17 31/01/2023
257 519900 ANDERSON MOREIRA DOEHLER ANALISTA DO MP TEÓFILO OTONI - COMARCA; COORD REG SAUDE MACRORREGIAO SANIT NORDESTE 11.008,33 3.302,50 0,00 0,00 0,00 0,00 684,90 1.911,00 16.906,73 2.070,68 2.496,68 0,00 0,00 4.567,36 12.339,37 31/01/2023
258 103000 ANDERSON TADEU DE DEUS ASSESSOR ADMINISTRATIVO II BELO HORIZONTE - COMARCA; BH-26 CRIME CONT CRIAN ADOL-SECRETARIA 0,00 4.686,26 6.694,66 0,00 0,00 0,00 363,39 5.704,64 17.448,95 877,22 2.385,73 0,00 0,00 3.262,95 14.186,00 31/01/2023
259 309200 ANDITYAS SOARES DE MOURA COSTA MATOS ANALISTA DO MP BELO HORIZONTE - COMARCA; GABINETE DE PROCURADOR DE JUSTIÇA - SALA 909 18.312,36 5.493,71 0,00 0,00 0,00 0,00 996,27 1.911,00 26.713,34 3.589,92 4.690,08 0,00 0,00 8.280,00 18.433,34 31/01/2023
260 519200 ANDRE BORJA LANA ANALISTA DO MP BELO HORIZONTE - COMARCA; DIR CONTEUDO JORNALISTICO 11.008,33 2.201,67 0,00 0,00 0,00 0,00 1.419,49 1.911,00 16.540,49 1.894,55 2.242,39 0,00 0,00 4.136,94 12.403,55 31/01/2023
261 637200 ANDRE FERNANDES DA CUNHA OFICIAL DO MP MORADA NOVA DE MINAS - COMARCA; MORADA NOVA DE MINAS-PJ-UNPJ 6.483,63 648,36 0,00 0,00 0,00 0,00 304,05 1.911,00 9.347,04 923,95 837,85 0,00 0,00 1.761,80 7.585,24 31/01/2023
262 651500 ANDRE GONCALVES MARANHAO OFICIAL DO MP ANDRADAS - COMARCA; ANDRADAS-PJ-02PJ 5.438,14 543,81 0,00 0,00 0,00 0,00 261,80 1.911,00 8.154,75 749,62 569,53 0,00 0,00 1.319,15 6.835,60 31/01/2023
263 521900 ANDRE LUIS GOMES SILVA ANALISTA DO MP FORMIGA - COMARCA; FORMIGA-PJ-02PJ 11.008,33 2.201,67 0,00 0,00 0,00 0,00 1.119,22 9.494,00 23.823,22 1.894,55 1.385,38 0,00 0,00 3.279,93 20.543,29 31/01/2023
264 304300 ANDRE LUIZ AVELAR ANALISTA DO MP BELO HORIZONTE - COMARCA; DIRETORIA DE REDES E BANCOS DE DADOS 9.223,00 2.766,90 0,00 0,00 0,00 0,00 512,67 1.911,00 14.413,57 1.699,33 1.908,41 0,00 0,00 3.607,74 10.805,83 31/01/2023
265 397400 ANDRE PATARO MYRRHA DE PAULA E SILVA ANALISTA DO MP BELO HORIZONTE - COMARCA; ASSESSORIA JURIDICO-ADMINISTRATIVA 16.695,70 3.339,14 0,00 0,00 0,00 0,00 1.523,40 8.406,06 29.964,30 2.986,52 3.818,93 0,00 0,00 6.805,45 23.158,85 31/01/2023
266 650100 ANDRE THOME VARGAS OFICIAL DO MP LEOPOLDINA - COMARCA; LEOPOLDINA-PJ-04PJ 5.889,39 588,94 0,00 0,00 0,00 0,00 870,36 7.871,06 15.219,75 822,63 685,96 0,00 0,00 1.508,59 13.711,16 31/01/2023
267 548500 ANDRE VINICIUS CARVALHO MEIRA ANALISTA DO MP JUIZ DE FORA - COMARCA; JUIZ DE FORA-PJ-24PJ 11.008,33 1.100,83 0,00 0,00 0,00 0,00 589,95 1.911,00 14.610,11 982,16 1.975,81 0,00 0,00 2.957,97 11.652,14 31/01/2023
268 297200 ANDRE WILLE ROSARIO ANALISTA DO MP BELO HORIZONTE - COMARCA; ASSESSORIA ESPECIAL DO PGJ 20.574,59 6.172,38 0,00 0,00 0,00 0,00 1.881,85 7.260,39 35.889,21 4.060,46 5.265,16 0,00 0,00 9.325,62 26.563,59 31/01/2023
269 423600 ANDREA COSTA GUALBERTO ALVES ANALISTA DO MP GOVERNADOR VALADARES - COMARCA; COORD REG PJ DEF EDU DIR CRIANCA ADOL RIODOCE 15.659,55 10.961,69 0,00 329,92 0,00 6.234,74 1.191,54 1.911,00 36.288,44 4.040,35 6.399,34 0,00 0,00 10.439,69 25.848,75 31/01/2023
270 467300 ANDREA DE CASSIA PENNA ALVERNAZ ANALISTA DO MP PONTE NOVA - COMARCA; PONTE NOVA-PJ-01PJ 11.008,33 2.201,67 0,00 0,00 0,00 0,00 1.178,07 7.723,40 22.111,47 1.894,55 2.190,25 0,00 0,00 4.084,80 18.026,67 31/01/2023
271 308000 ANDREA DE CASSIA SANTOS OLIVEIRA ANALISTA DO MP BELO HORIZONTE - COMARCA; COORD DE GABINETE DO PGJ 19.791,01 5.937,30 0,00 0,00 0,00 0,00 1.529,34 1.911,00 29.168,65 3.897,48 5.081,98 0,00 0,00 8.979,46 20.189,19 31/01/2023
272 349500 ANDREA DE OLIVEIRA LOIOLA REGIS OFICIAL DO MP IGUATAMA - COMARCA; IGUATAMA-PJ-UNPJ 11.008,33 3.302,50 0,00 0,00 0,00 0,00 708,49 1.911,00 16.930,32 2.070,68 2.392,41 0,00 0,00 4.463,09 12.467,23 31/01/2023
273 287900 ANDREA FERNANDES PENA MARTINS OFICIAL DO MP MONTES CLAROS - COMARCA; MONTES CLAROS-PJ-09PJ 11.008,33 3.302,50 0,00 0,00 0,00 0,00 1.240,04 7.635,33 23.186,20 2.070,68 2.392,41 0,00 0,00 4.463,09 18.723,11 31/01/2023
274 300800 ANDREA FERREIRA ANALISTA DO MP LAVRAS - COMARCA; LAVRAS-PJ-04PJ 19.037,29 5.711,19 0,00 0,00 0,00 0,00 1.268,41 1.911,00 27.927,89 3.740,71 4.907,78 0,00 0,00 8.648,49 19.279,40 31/01/2023
275 395100 ANDREA LANNA MENDES NOVAIS ANALISTA DO MP BELO HORIZONTE - COMARCA; PROMOT ESTADUAL DE DEF PATRI CULT E TUR DE MG 16.695,70 3.339,14 0,00 0,00 0,00 0,00 907,23 1.911,00 22.853,07 2.986,52 3.766,79 0,00 0,00 6.753,31 16.099,76 31/01/2023
276 67300 ANDREA LEAO MAGALHAES ROQUE ASSESSOR ADMINISTRATIVO IV BELO HORIZONTE - COMARCA; COORD ESTADUAL COMBATE CRIMES CIBERNETICOS 0,00 9.044,67 12.920,95 0,00 0,00 0,00 861,20 1.911,00 24.737,82 877,22 5.244,39 0,00 0,00 6.121,61 18.616,21 31/01/2023
277 335700 ANDREA LOPES PEREIRA ANALISTA DO MP GOVERNADOR VALADARES - COMARCA; COORD REG DO MA DA BACIA DO RIO DOCE 19.791,01 5.937,30 0,00 0,00 0,00 0,00 1.214,23 1.911,00 28.853,54 3.897,48 5.134,12 0,00 0,00 9.031,60 19.821,94 31/01/2023
278 419000 ANDREIA BARBOSA DE ALMEIDA ANALISTA DO MP BELO HORIZONTE - COMARCA; SUPER DE RECURSOS HUMANOS-COOP REMOTA 15.659,55 3.131,91 0,00 0,00 0,00 0,00 1.444,39 7.172,61 27.408,46 2.787,58 3.531,71 0,00 0,00 6.319,29 21.089,17 31/01/2023
279 281501 ANDREIA CARLA COSTA ANALISTA DO MP UBÁ - COMARCA; UBA-PJ-02PJ 16.169,47 3.233,89 0,00 0,00 0,00 0,00 1.567,78 7.343,94 28.315,08 2.885,49 3.673,05 0,00 0,00 6.558,54 21.756,54 31/01/2023
280 477100 ANDREIA DE ALMEIDA RIBEIRO MELO OFICIAL DO MP CONTAGEM - COMARCA; CONTAGEM-PJ-SECRETARIA 9.378,86 1.875,77 0,00 0,00 0,00 0,00 531,67 1.911,00 13.697,30 1.581,69 1.790,70 0,00 0,00 3.372,39 10.324,91 31/01/2023
281 619000 ANDREIA FERREIRA NORONHA COORDENADOR II BELO HORIZONTE - COMARCA; DIRETORIA DE SERVICO CRIMINAL 18.312,36 1.831,24 0,00 0,00 0,00 0,00 1.362,06 7.551,21 29.056,87 959,93 4.372,81 0,00 0,00 5.332,74 23.724,13 31/01/2023
282 424000 ANDREIA LUCIA COUTO ANALISTA DO MP BELO HORIZONTE - COMARCA; BH-18PJ DIREITOS HUMANOS-SECRETARIA 16.169,47 3.233,89 0,00 0,00 0,00 0,00 1.016,86 1.911,00 22.331,22 2.885,49 3.673,05 0,00 0,00 6.558,54 15.772,68 31/01/2023
283 370100 ANDREIA MARIA SILVA PINTO OFICIAL DO MP CORONEL FABRICIANO - COMARCA; CORONEL FABRICIANO-PJ-01PJ 11.008,33 3.302,50 0,00 0,00 0,00 0,00 688,60 2.796,30 17.795,73 982,16 2.589,87 0,00 0,00 3.572,03 14.223,70 31/01/2023
284 382100 ANDREIA NATALI PEREIRA DE OLIVEIRA OFICIAL DO MP PRADOS - COMARCA; PRADOS-PJ-UNPJ 11.008,33 2.201,67 0,00 0,00 0,00 0,00 576,19 1.911,00 15.697,19 1.894,55 2.242,39 0,00 0,00 4.136,94 11.560,25 31/01/2023
285 275200 ANDREIA RIBEIRO FREITAS OFICIAL DO MP VIÇOSA - COMARCA; VICOSA-PJ-04PJ 11.736,91 3.521,07 0,00 0,00 0,00 0,00 687,24 1.911,00 17.856,22 2.222,23 2.663,33 0,00 0,00 4.885,56 12.970,66 31/01/2023
286 352200 ANDREIA XAVIER PEREIRA OFICIAL DO MP CLÁUDIO - COMARCA; CLAUDIO-PJ-UNPJ 11.008,33 3.302,50 0,00 0,00 0,00 0,00 1.262,30 8.963,28 24.536,41 2.070,68 2.496,68 0,00 0,00 4.567,36 19.969,05 31/01/2023
287 638500 ANDRESA ALVES FEITOSA CASAGRANDE ANALISTA DO MP LAVRAS - COMARCA; COORD REG DO MA DA BACIA DO RIO GRANDE 9.999,62 999,96 0,00 0,00 0,00 0,00 506,22 1.911,00 13.416,80 982,16 1.885,43 0,00 0,00 2.867,59 10.549,21 31/01/2023
288 383700 ANDRESSA EDUARDO SOUZA ANALISTA DO MP OURO BRANCO - COMARCA; OURO BRANCO-PJ-SECRETARIA 16.695,70 3.339,14 0,00 0,00 0,00 0,00 877,57 2.796,30 23.708,71 2.986,52 3.818,93 0,00 0,00 6.805,45 16.903,26 31/01/2023
289 678400 ANDRESSA LUIZA SILVA LOPES ASSESSOR PROMOTOR JUSTICA CARMO DO PARANAÍBA - COMARCA; CARMO DO PARANAIBA-PJ-02PJ 0,00 0,00 7.857,77 0,00 0,00 0,00 323,69 1.911,00 10.092,46 877,22 1.416,87 0,00 0,00 2.294,09 7.798,37 31/01/2023
290 426200 ANDRESSA MENDES CASAL OFICIAL DO MP BELO HORIZONTE - COMARCA; DIR ESTRUTURA E PROCESSOS ORGANIZACIONAIS 8.650,50 1.730,10 0,00 0,00 0,00 0,00 462,26 2.796,30 13.639,16 1.441,84 1.536,66 0,00 0,00 2.978,50 10.660,66 31/01/2023
291 390100 ANDRESSA RIBEIRO PUCCI OFICIAL DO MP UBERABA - COMARCA; UBERABA-PJ-14PJ 8.377,76 1.675,55 0,00 0,00 0,00 0,00 979,60 7.540,85 18.573,76 1.389,48 1.513,19 0,00 0,00 2.902,67 15.671,09 31/01/2023
292 462500 ANDREZA APARECIDA COSTA E SILVA ANALISTA DO MP CONSELHEIRO LAFAIETE - COMARCA; CONSELHEIRO LAFAIETE-PJ-02PJ 11.008,33 2.201,67 0,00 0,00 0,00 0,00 636,54 4.212,78 18.059,32 982,16 2.307,53 0,00 0,00 3.289,69 14.769,63 31/01/2023
293 677700 ANDREZA DE LOURDES FERREIRA DE PAIVA ASSESSOR PROMOTOR JUSTICA ABRE CAMPO - COMARCA; ABRE CAMPO-PJ-01PJ 0,00 0,00 7.857,77 0,00 2.619,26 0,00 496,56 3.796,86 14.770,45 877,22 2.137,16 0,00 0,00 3.014,38 11.756,07 31/01/2023
294 537800 ANDREZZA LUZIA DE OLIVEIRA ALVES ANALISTA DO MP PATOS DE MINAS - COMARCA; COORD REG PJ DEF EDU DIR CRI ADO AL PAR NOROE 11.008,33 1.100,83 0,00 0,00 0,00 0,00 1.111,88 7.723,40 20.944,44 1.718,41 1.935,96 0,00 0,00 3.654,37 17.290,07 31/01/2023
295 491600 ANE PATRICIA RIBEIRO DUARTE ANALISTA DO MP SETE LAGOAS - COMARCA; SETE LAGOAS-PJ-11PJ 11.008,33 2.201,67 0,00 0,00 0,00 0,00 577,15 1.911,00 15.698,15 1.894,55 2.190,25 0,00 0,00 4.084,80 11.613,35 31/01/2023
296 465800 ANELISE GAMA ASSESSOR ADMINISTRATIVO III BELO HORIZONTE - COMARCA; BH-18PJ VIOLENCIA DOMESTICA-SECRETARIA 0,00 0,00 9.684,23 0,00 0,00 0,00 391,73 1.911,00 11.986,96 877,22 1.919,14 0,00 0,00 2.796,36 9.190,60 31/01/2023
297 535200 ANELIZE FERNANDA ALVES VILARINHO OFICIAL DO MP CAPINÓPOLIS - COMARCA; CAPINOPOLIS-PJ-UNPJ 6.694,66 669,47 0,00 0,00 0,00 0,00 977,43 8.687,60 17.029,16 959,93 891,80 0,00 0,00 1.851,73 15.177,43 31/01/2023
298 197200 ANGELA COELHO SALDANHA OFICIAL DO MP PARÁ DE MINAS - COMARCA; PARA DE MINAS-PJ-03PJ 19.037,29 7.614,92 0,00 0,00 0,00 0,00 1.276,04 1.911,00 29.839,25 4.045,30 5.347,54 0,00 0,00 9.392,84 20.446,41 31/01/2023
299 307400 ANGELA CRISTINA GONCALVES MUNIZ ANALISTA DO MP UBERLÂNDIA - COMARCA; UBERLANDIA-PJ-SEC FAMILIA 20.574,59 8.229,84 0,00 0,00 0,00 0,00 1.238,11 1.911,00 31.953,54 4.389,66 5.740,43 0,00 0,00 10.130,09 21.823,45 31/01/2023
300 191800 ANGELA MARIA DE OLIVEIRA OFICIAL DO MP GUARANÉSIA - COMARCA; GUARANESIA-PJ-SECRETARIA 19.037,29 13.326,11 0,00 424,74 0,00 7.830,77 1.786,01 1.911,00 44.315,92 4.959,09 8.030,58 0,00 0,00 12.989,67 31.326,25 31/01/2023
301 497400 ANGELA MARIA HENRIQUES ANALISTA DO MP BELO HORIZONTE - COMARCA; COORD REG BACIAS RIO VELHAS E PARAOPEBA 11.008,33 2.201,67 0,00 0,00 0,00 0,00 1.213,42 7.723,40 22.146,82 1.894,55 2.242,39 0,00 0,00 4.136,94 18.009,88 31/01/2023
302 260700 ANGELICA CRISTINA AZEVEDO MOREIRA MOUCO OFICIAL DO MP UBÁ - COMARCA; UBA-PJ-05PJ 15.659,55 4.697,87 0,00 0,00 0,00 0,00 1.528,65 7.611,08 29.497,15 3.038,14 3.893,44 0,00 0,00 6.931,58 22.565,57 31/01/2023
303 708300 ANGELICA NUNES VIEIRA DA SILVA ASSESSOR PROMOTOR JUSTICA IBIRITÉ - COMARCA; IBIRITE-PJ-02PJ 0,00 0,00 7.857,77 0,00 0,00 0,00 255,33 1.911,00 10.024,10 877,22 1.416,87 0,00 0,00 2.294,09 7.730,01 31/01/2023
304 334600 ANGELICA PANISSA DE FREITAS GALLATI OFICIAL DO MP GUAXUPÉ - COMARCA; GUAXUPE-PJ-02PJ 11.008,33 3.302,50 0,00 0,00 0,00 0,00 1.278,37 8.520,63 24.109,83 2.070,68 2.444,54 0,00 0,00 4.515,22 19.594,61 31/01/2023
305 521100 ANGELICA SALES MOREIRA OFICIAL DO MP BELO HORIZONTE - COMARCA; BH-02PJ FAMILIA-SECRETARIA 8.650,50 1.730,10 0,00 0,00 0,00 0,00 1.038,33 7.724,14 19.143,07 1.441,84 1.588,80 0,00 0,00 3.030,64 16.112,43 31/01/2023
306 466500 ANGELLO MARQUES AGRELLI ANALISTA DO MP MAR DE ESPANHA - COMARCA; MAR DE ESPANHA-PJ-UNPJ 11.008,33 2.201,67 0,00 0,00 0,00 0,00 582,16 1.911,00 15.703,16 1.894,55 2.242,39 0,00 0,00 4.136,94 11.566,22 31/01/2023
307 363300 ANGELO VERDOLIN HENRIQUES ANALISTA DO MP SETE LAGOAS - COMARCA; SETE LAGOAS-PJ-04PJ 19.037,29 7.614,92 0,00 0,00 0,00 0,00 1.429,30 1.911,00 29.992,51 4.045,30 5.347,54 0,00 0,00 9.392,84 20.599,67 31/01/2023
308 250900 ANISIO APARECIDO SANTOS OFICIAL DO MP BETIM - COMARCA; BETIM - SECRETARIA DAS PJS CRIMINAIS 6.694,66 2.677,86 0,00 0,00 0,00 0,00 959,82 7.159,61 17.491,95 1.280,55 287,42 0,00 0,00 1.567,97 15.923,98 31/01/2023
309 698100 ANNA CAROLINA POLICARIO BERTOLIN ASSESSOR PROCURADOR JUSTICA BELO HORIZONTE - COMARCA; PROC. JUSTICA DIR. DIFUSOS E COLETIVOS-SEC 0,00 0,00 7.857,77 0,00 0,00 0,00 309,76 1.911,00 10.078,53 877,22 1.416,87 0,00 0,00 2.294,09 7.784,44 31/01/2023
310 253400 ANNA FLAVIA LEHMAN ANALISTA DO MP BELO HORIZONTE - COMARCA; SUPRIN DE PLANEJAMENTO E COORDENACAO 20.574,59 6.172,38 7.494,88 0,00 0,00 0,00 1.606,93 1.911,00 37.759,78 4.060,46 7.274,11 0,00 0,00 11.334,57 26.425,21 31/01/2023
311 688800 ANNA LUIZA MATTOS DUARTE ASSESSOR PROCURADOR JUSTICA BELO HORIZONTE - COMARCA; GABINETE DE PROCURADOR DE JUSTICA - SALA 311 0,00 0,00 7.857,77 0,00 0,00 0,00 328,57 1.911,00 10.097,34 877,22 1.416,87 0,00 0,00 2.294,09 7.803,25 31/01/2023
312 447600 ANNGELUCE ALCANTARA DE CAMPOS OFICIAL DO MP DIVINÓPOLIS - COMARCA; DIVINOPOLIS-PJ-SECRETARIA 9.223,00 2.766,90 0,00 0,00 0,00 0,00 1.112,76 7.666,15 20.768,81 1.699,33 1.960,55 0,00 0,00 3.659,88 17.108,93 31/01/2023
313 119600 ANSELMO BORGES PARREIRAS OFICIAL DO MP BONFIM - COMARCA; BONFIM-PJ-UNPJ 9.684,23 8.715,81 0,00 219,35 0,00 4.158,12 745,51 1.911,00 25.434,02 2.724,95 4.138,51 0,00 0,00 6.863,46 18.570,56 31/01/2023
314 630300 ANTONIA GOMES RAMALHO OFICIAL DO MP NOVO CRUZEIRO - COMARCA; NOVO CRUZEIRO-PJ-UNPJ 6.694,66 669,47 0,00 0,00 0,00 0,00 333,77 4.018,14 11.716,04 959,93 891,80 0,00 0,00 1.851,73 9.864,31 31/01/2023
315 401600 ANTONIO CARLOS GUEDES AROUCA ANALISTA DO MP BELO HORIZONTE - COMARCA; ASSESSORIA JURIDICO-ADMINISTRATIVA 14.687,60 2.937,52 0,00 0,00 5.875,04 0,00 900,43 1.911,00 26.311,59 2.600,97 4.877,92 0,00 0,00 7.478,89 18.832,70 31/01/2023
316 333900 ANTONIO GONCALVES DE SOUZA FILHO OFICIAL DO MP BELO HORIZONTE - COMARCA; DIRETORIA DE CONTABILIDADE 11.008,33 3.302,50 0,00 0,00 0,00 0,00 699,92 1.911,00 16.921,75 2.070,68 2.496,68 0,00 0,00 4.567,36 12.354,39 31/01/2023
317 176100 ANTONIO MARCELO CAMPOS CAMPANELLA OFICIAL DO MP BELO HORIZONTE - COMARCA; COORD DE GABINETE DO PGJ 19.037,29 9.518,65 0,00 0,00 0,00 0,00 2.058,41 7.622,19 38.236,54 4.349,90 5.787,30 0,00 0,00 10.137,20 28.099,34 31/01/2023
318 321001 ANTONIO OLINTO VIEIRA MACHADO ANALISTA DO MP BELO HORIZONTE - COMARCA; CENTRAL DE APOIO TECN-SETOR DE MEIO AMBIENTE 16.695,70 3.339,14 0,00 264,73 0,00 4.763,83 1.586,64 7.520,76 34.170,80 2.986,52 4.535,95 0,00 0,00 7.522,47 26.648,33 31/01/2023
319 356200 ANTONIO PAULA DA SILVA OFICIAL DO MP JUIZ DE FORA - COMARCA; JUIZ DE FORA-PJ-20PJ 10.661,25 4.264,50 0,00 0,00 0,00 0,00 1.347,79 7.881,30 24.154,84 2.169,07 2.638,73 0,00 0,00 4.807,80 19.347,04 31/01/2023
320 119900 ANTONIO RODRIGUES DE PINHO OFICIAL DO MP GUANHÃES - COMARCA; GUANHAES-PJ-01PJ 18.312,36 12.818,65 0,00 0,00 0,00 0,00 1.525,67 1.911,00 34.567,68 4.761,91 6.277,87 0,00 0,00 11.039,78 23.527,90 31/01/2023
321 373300 ANTONIO SERGIO ANANIAS OFICIAL DO MP SÃO JOÃO NEPOMUCENO - COMARCA; SAO JOAO NEPOMUCENO-PJ-01PJ 9.999,62 1.999,92 0,00 0,00 0,00 0,00 541,69 1.911,00 14.452,23 982,16 2.125,00 0,00 0,00 3.107,16 11.345,07 31/01/2023
322 608100 ANTONIO SIDINEY VIEIRA LEMOS ANALISTA DO MP PIRAPORA - COMARCA; PIRAPORA-PJ-01PJ 10.325,15 4.130,06 0,00 0,00 0,00 0,00 1.333,46 8.578,38 24.367,05 2.093,78 2.477,90 0,00 0,00 4.571,68 19.795,37 31/01/2023
323 374700 ANTONIO SILVA NETO OFICIAL DO MP BELO HORIZONTE - COMARCA; BH-12PJ JUIZO CRIMINAL-SECRETARIA 11.008,33 2.201,67 0,00 0,00 0,00 0,00 602,43 2.796,30 16.608,73 1.894,55 2.242,39 0,00 0,00 4.136,94 12.471,79 31/01/2023
324 636700 ANTONIUS VITORIANO FERNANDES OFICIAL DO MP BELO HORIZONTE - COMARCA; ASSESSORIA JURIDICA DO PROCON-MG 5.889,39 588,94 0,00 0,00 0,00 0,00 275,96 1.911,00 8.665,29 822,63 685,96 0,00 0,00 1.508,59 7.156,70 31/01/2023
325 413200 ANY PEREIRA SILVA ANALISTA DO MP TRÊS PONTAS - COMARCA; TRES PONTAS-PJ-01PJ 15.659,55 3.131,91 0,00 0,00 0,00 0,00 1.412,30 7.172,61 27.376,37 2.787,58 3.531,71 0,00 0,00 6.319,29 21.057,08 31/01/2023
326 151401 APARECIDA DE FATIMA MENDES DE ALMEIDA ASSESSOR ADMINISTRATIVO II JUIZ DE FORA - COMARCA; JUIZ DE FORA-PJ-SECRETARIA 0,00 0,00 6.694,66 0,00 0,00 0,00 810,41 7.802,30 15.307,37 877,22 1.097,01 0,00 0,00 1.974,23 13.333,14 31/01/2023
327 329300 APARECIDA MARIA MELO DE ASSIS OFICIAL DO MP BELO HORIZONTE - COMARCA; BH-18PJ DIREITOS HUMANOS-SECRETARIA 11.008,33 3.302,50 0,00 0,00 0,00 0,00 628,58 1.911,00 16.850,41 2.070,68 2.496,68 0,00 0,00 4.567,36 12.283,05 31/01/2023
328 653000 APARECIDA ROSA DE LIMA ASSESSOR ADMINISTRATIVO III BELO HORIZONTE - COMARCA; SECRETARIA PROCESSOS DISCIPES ADMINISTRATIVOS 0,00 0,00 9.684,23 0,00 0,00 0,00 954,96 7.721,54 18.360,73 877,22 1.919,14 0,00 0,00 2.796,36 15.564,37 31/01/2023
329 354500 APARECIDA VIEIRA DE CARVALHO OFICIAL DO MP BELO HORIZONTE - COMARCA; DIVISÃO DE EDUCAÇÃO PARA O CONSUMO 9.378,86 2.813,66 0,00 0,00 0,00 0,00 1.151,01 7.763,41 21.106,94 1.731,75 2.007,35 0,00 0,00 3.739,10 17.367,84 31/01/2023
330 551000 ARACELES BICALHO FELIX ANALISTA DO MP MANHUAÇU - COMARCA; MANHUACU-PJ-SECRETARIA 11.008,33 1.100,83 0,00 0,00 0,00 0,00 512,94 3.681,60 16.303,70 1.718,41 1.988,10 0,00 0,00 3.706,51 12.597,19 31/01/2023
331 286200 ARACELI MEDRADO DOS SANTOS LIMA OFICIAL DO MP PARACATU - COMARCA; PARACATU-PJ-03PJ 6.694,66 2.008,40 0,00 0,00 0,00 0,00 434,02 1.911,00 11.048,08 1.173,44 1.201,29 0,00 0,00 2.374,73 8.673,35 31/01/2023
332 112200 ARAQUEM AUGUSTO DE MATOS AGENTE DO MP BELO HORIZONTE - COMARCA; BH-23PJ CIVEL-SEC EXP CIVEIS 11.736,91 10.563,22 0,00 2.977,19 0,00 8.996,39 891,40 1.911,00 37.076,11 3.348,97 5.158,90 0,00 0,00 8.507,87 28.568,24 31/01/2023
333 280600 ARDUINO FRATTEZI ANALISTA DO MP BELO HORIZONTE - COMARCA; CENTRAL DE APOIO TECNICO-SETOR CONTABIL 20.574,59 6.172,38 0,00 0,00 0,00 0,00 1.881,62 7.260,39 35.888,98 4.060,46 5.369,43 0,00 0,00 9.429,89 26.459,09 31/01/2023
334 520201 ARIANE DE FATIMA CARVALHO ALMEIDA RODRIGUES ANALISTA DO MP VESPASIANO - COMARCA; VESPASIANO-PJ-SECRETARIA 10.325,15 1.032,52 0,00 0,00 0,00 0,00 583,89 3.238,95 15.180,51 1.598,18 1.658,09 0,00 0,00 3.256,27 11.924,24 31/01/2023
335 537600 ARIELA FREIRE MONTIJO ANALISTA DO MP ARCOS - COMARCA; ARCOS-PJ-01PJ 11.008,33 1.100,83 0,00 0,00 0,00 0,00 573,20 1.911,00 14.593,36 1.718,41 1.883,82 0,00 0,00 3.602,23 10.991,13 31/01/2023
336 182000 ARILSON ALEXANDRE MARTINS MAGALHAES OFICIAL DO MP JOÃO MONLEVADE - COMARCA; JOAO MONLEVADE-PJ-01PJ 18.312,36 9.156,18 0,00 0,00 0,00 0,00 1.848,13 10.503,26 39.819,93 4.175,91 5.275,43 0,00 0,00 9.451,34 30.368,59 31/01/2023
337 511000 ARISLANE CAROLINA DA SILVA ANALISTA DO MP MONTE CARMELO - COMARCA; MONTE CARMELO-PJ-02PJ 11.008,33 2.201,67 0,00 0,00 0,00 0,00 567,76 3.681,60 17.459,36 1.894,55 2.242,39 0,00 0,00 4.136,94 13.322,42 31/01/2023
338 170000 ARLEY BRITES DA SILVA ASSESSOR ADMINISTRATIVO II BELO HORIZONTE - COMARCA; BH-14PJ DEFESA CONSUMIDOR-SECRETARIA 0,00 2.677,86 6.694,66 0,00 0,00 0,00 939,98 7.909,41 18.221,91 877,22 819,41 0,00 0,00 1.696,63 16.525,28 31/01/2023
339 120400 ARLINDO CASSIO DA CRUZ OFICIAL DO MP SÃO GONÇALO DO SAPUCAÍ - COMARCA; SAO GONCALO DO SAPUCAI-PJ-01PJ 20.574,59 16.459,68 0,00 253,76 0,00 7.272,56 1.008,44 1.911,00 47.480,03 5.454,90 8.778,48 1.572,05 0,00 15.805,43 31.674,60 31/01/2023
340 243700 ARLINDO MARCIO LACERDA OFICIAL DO MP CONTAGEM - COMARCA; CONTAGEM-PJ-SECRETARIA 15.659,55 6.263,82 0,00 0,00 0,00 0,00 2.562,40 1.911,00 26.396,77 3.288,69 4.689,68 0,00 0,00 7.978,37 18.418,40 31/01/2023
341 392100 ARNALDO DE ANDRADE OFICIAL DO MP DIVINÓPOLIS - COMARCA; DIVINOPOLIS-PJ-02PJ 11.008,33 2.201,67 0,00 0,00 0,00 0,00 2.801,02 7.827,00 23.838,02 1.894,55 2.624,75 0,00 0,00 4.519,30 19.318,72 31/01/2023
342 642400 ARTANE INARDE DE SIQUEIRA DAMASCENO ANALISTA DO MP BELO HORIZONTE - COMARCA; SECRETARIA DE ASSUNTOS INTERNACIONAIS 8.932,15 893,22 0,00 0,00 0,00 0,00 430,54 1.911,00 12.166,91 982,16 1.428,32 0,00 0,00 2.410,48 9.756,43 31/01/2023
343 712100 ARTUR FONTE BOA TEOFILO ASSESSOR ADMINISTRATIVO I BELO HORIZONTE - COMARCA; DIRET DE ESTAGIOS E CONVENIOS ACADEMICOS 0,00 0,00 4.345,58 0,00 0,00 0,00 81,90 1.911,00 6.338,48 877,22 451,01 0,00 0,00 1.328,23 5.010,25 31/01/2023
344 302100 AUGUSTO ROUSSEAU DE CASTRO ANALISTA DO MP CATAGUASES - COMARCA; CATAGUASES-PJ-02PJ 20.574,59 6.172,38 0,00 0,00 0,00 0,00 1.874,93 7.260,39 35.882,29 4.060,46 5.369,43 0,00 0,00 9.429,89 26.452,40 31/01/2023
345 540200 AUREA AVELAR BITTENCOURT OFICIAL DO MP BELO HORIZONTE - COMARCA; GRUPO ESP PROM JUST DEF PROB ADM PAT PUB 6.694,66 669,47 0,00 0,00 0,00 0,00 329,06 1.911,00 9.604,19 959,93 824,13 0,00 0,00 1.784,06 7.820,13 31/01/2023
346 633501 AUREA GONTIJO BIRCHAL ASSESSOR DE GABINETE I BELO HORIZONTE - COMARCA; PROCURADOR-GERAL DE JUSTIÇA 0,00 0,00 16.169,47 0,00 0,00 0,00 398,76 1.911,00 18.479,23 877,22 3.702,58 0,00 0,00 4.579,80 13.899,43 31/01/2023
347 183200 AURELIANO MAGELA DE REZENDE OFICIAL DO MP BELO HORIZONTE - COMARCA; COORD DE GABINETE DO PGJ 18.312,36 7.324,94 5.493,71 0,00 0,00 0,00 1.902,20 6.891,96 39.925,17 3.882,92 6.623,86 0,00 0,00 10.506,78 29.418,39 31/01/2023
348 629400 AYESKA DA COSTA VAL MOURA DABIEN OFICIAL DO MP BELO HORIZONTE - COMARCA; BH-09PJ AUDITORIA MILITAR-SECRETARIA 6.081,20 608,12 0,00 0,00 0,00 0,00 298,18 1.911,00 8.898,50 855,73 734,88 0,00 0,00 1.590,61 7.307,89 31/01/2023
349 707400 AYMEE JOHANSSENN TYNEE CORREIA ALVES ASSESSOR PROMOTOR JUSTICA NOVA LIMA - COMARCA; NOVA LIMA-PJ-01PJ 0,00 0,00 7.857,77 0,00 0,00 0,00 807,16 7.882,91 16.547,84 877,22 1.416,87 0,00 0,00 2.294,09 14.253,75 31/01/2023
350 701600 BARBARA CHAVES OLIVEIRA ASSESSOR PROCURADOR JUSTICA BELO HORIZONTE - COMARCA; PROC. JUSTICA DIR. DIFUSOS E COLETIVOS-SEC 0,00 0,00 7.857,77 0,00 0,00 0,00 300,04 1.911,00 10.068,81 877,22 1.416,87 0,00 0,00 2.294,09 7.774,72 31/01/2023
351 691900 BARBARA COUTINHO REIS ASSESSOR PROCURADOR JUSTICA BELO HORIZONTE - COMARCA; GABINETE DE PROCURADOR DE JUSTIÇA - SALA 910 0,00 0,00 7.857,77 0,00 0,00 0,00 313,14 1.911,00 10.081,91 877,22 1.416,87 0,00 0,00 2.294,09 7.787,82 31/01/2023
352 692200 BARBARA CRISTINA MENDES BANDEIRA DE MELO DUTRA ASSESSOR PROCURADOR JUSTICA BELO HORIZONTE - COMARCA; GABINETE DE PROCURADOR DE JUSTIÇA - SALA 1009 0,00 0,00 7.857,77 0,00 0,00 0,00 871,29 7.882,91 16.611,97 877,22 1.416,87 0,00 0,00 2.294,09 14.317,88 31/01/2023
353 723400 BARBARA CRISTINA TAVARES CARNEIRO ASSESSOR PROCURADOR JUSTICA BELO HORIZONTE - COMARCA; GABINETE DE PROCURADOR DE JUSTIÇA - SALA 502 0,00 0,00 7.857,77 0,00 0,00 0,00 0,00 1.911,00 9.768,77 877,22 1.416,87 0,00 0,00 2.294,09 7.474,68 31/01/2023
354 727200 BARBARA FERNANDES AMARAL ASSESSOR PROMOTOR JUSTICA GOVERNADOR VALADARES - COMARCA; GOVERNADOR VALADARES-PJ-SECRETARIA 0,00 0,00 7.857,77 0,00 0,00 0,00 0,00 1.911,00 9.768,77 877,22 1.416,87 0,00 0,00 2.294,09 7.474,68 31/01/2023
355 652800 BARBARA JULIANNE MOREIRA CASTRO ASSESSOR PROCURADOR JUSTICA BELO HORIZONTE - COMARCA; ASSESS TECNICO-JUR JUNTO AS PROC. DE JUST 0,00 0,00 7.857,77 0,00 0,00 0,00 352,27 1.911,00 10.121,04 877,22 1.416,87 0,00 0,00 2.294,09 7.826,95 31/01/2023
356 707700 BARBARA LOUISE PUFF DE OLIVEIRA ASSESSOR PROMOTOR JUSTICA RIBEIRÃO DAS NEVES - COMARCA; RIBEIRAO DAS NEVES-PJ-02PJ 0,00 0,00 7.857,77 0,00 0,00 0,00 803,31 7.882,91 16.543,99 877,22 1.416,87 0,00 0,00 2.294,09 14.249,90 31/01/2023
357 663600 BARBARA REGINA PEREIRA DE PINHO MAGALHAES ASSESSOR PROMOTOR JUSTICA BELO HORIZONTE - COMARCA; CAO-DH CONT EXT ATIV POLIC E AP COMUNIT 0,00 0,00 7.857,77 0,00 0,00 0,00 398,75 1.911,00 10.167,52 877,22 1.416,87 0,00 0,00 2.294,09 7.873,43 31/01/2023
358 692400 BARBARA SOUZA OLIVEIRA ASSESSOR PROMOTOR JUSTICA DIVINO - COMARCA; DIVINO-PJ-UNPJ 0,00 0,00 7.857,77 0,00 0,00 0,00 313,14 1.911,00 10.081,91 877,22 1.416,87 0,00 0,00 2.294,09 7.787,82 31/01/2023
359 546500 BARBARA ZACARONI GOULART OFICIAL DO MP BETIM - COMARCA; BETIM-PJ-08PJ 6.694,66 669,47 0,00 0,00 0,00 0,00 967,74 7.802,30 16.134,17 959,93 891,80 0,00 0,00 1.851,73 14.282,44 31/01/2023
360 316500 BEATRIZ ABILVIA DA SILVA ANALISTA DO MP GOVERNADOR VALADARES - COMARCA; GOVERNADOR VALADARES-PJ-07PJ 19.791,01 5.937,30 0,00 337,66 0,00 6.170,70 1.834,38 7.056,66 41.127,71 3.897,48 6.205,93 0,00 0,00 10.103,41 31.024,30 31/01/2023
361 311800 BEATRIZ APARECIDA SOARES GANEM OFICIAL DO MP ITAMBACURI - COMARCA; ITAMBACURI-PJ-02PJ 12.118,97 4.847,59 0,00 0,00 0,00 0,00 1.374,94 7.340,30 25.681,80 2.495,60 2.953,74 0,00 0,00 5.449,34 20.232,46 31/01/2023
362 266800 BEATRIZ AUGUSTA VILACA GOMES DE HUBER OFICIAL DO MP BELO HORIZONTE - COMARCA; BH-05PJ-JUÍZO SUCESSÕES-SEC 11.008,33 3.302,50 0,00 0,00 0,00 0,00 707,95 1.911,00 16.929,78 2.070,68 2.496,68 0,00 0,00 4.567,36 12.362,42 31/01/2023
363 235200 BEATRIZ BOTELHO BATISTA OFICIAL DO MP MATEUS LEME - COMARCA; MATEUS LEME-PJ-02PJ 11.008,33 4.403,33 0,00 0,00 0,00 0,00 681,04 1.911,00 18.003,70 2.246,81 2.750,97 0,00 0,00 4.997,78 13.005,92 31/01/2023
364 182300 BEATRIZ PAULA SOUSA RAMOS OFICIAL DO MP MARIANA - COMARCA; MARIANA-PJ-01PJ 18.312,36 9.156,18 0,00 0,00 0,00 0,00 1.278,84 1.911,00 30.658,38 4.175,91 5.536,11 0,00 0,00 9.712,02 20.946,36 31/01/2023
365 507000 BELCHIOR FRANKLIN AMARAL LEITE ANALISTA DO MP BELO HORIZONTE - COMARCA; CAO ORGAOS MPMG DESIG FUNC ELEITORAIS-SEC 12.118,97 2.423,79 0,00 0,00 0,00 0,00 1.305,90 7.728,10 23.576,76 2.107,79 2.393,85 0,00 0,00 4.501,64 19.075,12 31/01/2023
366 345100 BENITO ELIAS RODRIGUES ANALISTA DO MP BARBACENA - COMARCA; BARBACENA - SECRETARIA DAS PJS CRIMINAIS 19.037,29 5.711,19 0,00 0,00 0,00 0,00 1.835,89 7.850,64 34.435,01 3.740,71 4.855,64 0,00 0,00 8.596,35 25.838,66 31/01/2023
367 207300 BENITO VIEIRA DOS SANTOS ANALISTA DO MP BELO HORIZONTE - COMARCA; PROC JUST ESP ACOES COMP ORIG CRIMINAL-ASSESS 20.574,59 8.229,84 0,00 392,99 0,00 7.013,72 1.997,88 7.671,89 45.880,91 4.389,66 4.589,27 0,00 0,00 8.978,93 36.901,98 31/01/2023
368 480200 BERNADETE NUNES DOS SANTOS ANALISTA DO MP GUANHÃES - COMARCA; GUANHAES-PJ-02PJ 11.008,33 3.302,50 0,00 0,00 0,00 0,00 1.259,90 7.635,33 23.206,06 2.070,68 2.496,68 0,00 0,00 4.567,36 18.638,70 31/01/2023
369 378400 BETANIA FARNESI DE SOUZA E SILVA OFICIAL DO MP CURVELO - COMARCA; CURVELO-PJ-01PJ 11.008,33 4.403,33 0,00 0,00 0,00 0,00 689,50 1.911,00 18.012,16 2.246,81 2.698,84 0,00 0,00 4.945,65 13.066,51 31/01/2023
370 387400 BETANIA MENDONCA DE ASSIS CARVALHO ANALISTA DO MP JUIZ DE FORA - COMARCA; JUIZ DE FORA-PJ-03PJ 16.695,70 3.339,14 0,00 0,00 0,00 0,00 889,01 2.796,30 23.720,15 2.986,52 3.766,79 0,00 0,00 6.753,31 16.966,84 31/01/2023
371 714400 BIANCA DE CASTRO RAMOS ASSESSOR PROMOTOR JUSTICA BETIM - COMARCA; BETIM-PJ-13PJ 0,00 0,00 7.857,77 0,00 0,00 0,00 114,64 1.911,00 9.883,41 877,22 1.416,87 0,00 0,00 2.294,09 7.589,32 31/01/2023
372 712700 BIANCA DE JESUS SOUZA ASSESSOR ADMINISTRATIVO I GOVERNADOR VALADARES - COMARCA; COOR REG APOIO COM INC MOB VALE DO RIO DOCE 0,00 0,00 4.345,58 0,00 0,00 0,00 79,06 1.911,00 6.335,64 877,22 451,01 0,00 0,00 1.328,23 5.007,41 31/01/2023
373 450300 BIANCA OLIVEIRA DE ALBUQUERQUE ANALISTA DO MP BELO HORIZONTE - COMARCA; BH-10PJ EXECUÇÃO PENAL-SECRETARIA 11.008,33 2.201,67 0,00 0,00 0,00 0,00 584,66 2.796,30 16.590,96 1.894,55 2.242,39 0,00 0,00 4.136,94 12.454,02 31/01/2023
374 535400 BIANCA SALOTO ROSSI ANALISTA DO MP SANTOS DUMONT - COMARCA; SANTOS DUMONT-PJ-01PJ 11.008,33 1.100,83 0,00 0,00 0,00 0,00 571,36 2.796,30 15.476,82 1.718,41 1.988,10 0,00 0,00 3.706,51 11.770,31 31/01/2023
375 120800 BRAS MARQUES DE SOUZA ANALISTA DO MP BELO HORIZONTE - COMARCA; SUPERINTENDENCIA DE GESTAO ADMINISTRATIVA 25.971,96 23.374,77 0,00 0,00 0,00 5.454,90 520,11 7.584,96 62.906,70 5.454,90 8.778,48 13.884,51 0,00 28.117,89 34.788,81 31/01/2023
376 724400 BRENDA PIMENTEL DE SOUZA VIANA ASSESSOR PROMOTOR JUSTICA MANHUMIRIM - COMARCA; MANHUMIRIM-PJ-01PJ 0,00 0,00 7.857,77 0,00 0,00 0,00 0,00 1.911,00 9.768,77 877,22 1.416,87 0,00 0,00 2.294,09 7.474,68 31/01/2023
377 710500 BRENNO VINICIUS MAGESTE ROSA ASSESSOR PROMOTOR JUSTICA MANHUAÇU - COMARCA; MANHUACU-PJ-02PJ 0,00 0,00 7.857,77 0,00 0,00 0,00 606,72 5.997,04 14.461,53 877,22 1.416,87 0,00 0,00 2.294,09 12.167,44 31/01/2023
378 460900 BRENO CRISTIANO DE SOUZA REZENDE ANALISTA DO MP ITAÚNA - COMARCA; ITAUNA-PJ-02PJ 11.008,33 2.201,67 0,00 0,00 0,00 0,00 640,16 1.911,00 15.761,16 1.894,55 2.242,39 0,00 0,00 4.136,94 11.624,22 31/01/2023
379 239000 BRENO VENANCIO ROMANINI OFICIAL DO MP BELO HORIZONTE - COMARCA; BH-20PJ ORD ECON TRIBUTARIA-SECRETARIA 11.008,33 3.302,50 0,00 0,00 0,00 0,00 707,32 1.911,00 16.929,15 2.070,68 2.496,68 0,00 0,00 4.567,36 12.361,79 31/01/2023
380 722700 BRUNA DE SA FERREIRA LIMA ASSESSOR PROMOTOR JUSTICA MANGA - COMARCA; MANGA-PJ-01PJ 0,00 0,00 7.857,77 0,00 0,00 0,00 0,00 1.911,00 9.768,77 877,22 1.416,87 0,00 0,00 2.294,09 7.474,68 31/01/2023
381 722100 BRUNA HENRIQUE DE SOUZA ASSESSOR PROMOTOR JUSTICA PIRAPETINGA - COMARCA; PIRAPETINGA-PJ-UNPJ 0,00 0,00 7.857,77 0,00 0,00 0,00 0,00 1.911,00 9.768,77 877,22 1.416,87 0,00 0,00 2.294,09 7.474,68 31/01/2023
382 642300 BRUNA IZABELITA DE FATIMA OLIVEIRA COSTA OFICIAL DO MP BELO HORIZONTE - COMARCA; BH-02PJ FAMILIA-SECRETARIA 6.483,63 648,36 0,00 0,00 0,00 0,00 308,24 1.911,00 9.351,23 923,95 837,85 0,00 0,00 1.761,80 7.589,43 31/01/2023
383 513600 BRUNA KARLA MARTINS CARVALHO ANALISTA DO MP GOVERNADOR VALADARES - COMARCA; GOVERNADOR VALADARES-PJ-14PJ 11.008,33 2.201,67 0,00 0,00 0,00 0,00 1.213,43 7.723,40 22.146,83 982,16 2.262,94 0,00 0,00 3.245,10 18.901,73 31/01/2023
384 415100 BRUNA MARIA SOARES OLIVEIRA COSTA RAMOS ANALISTA DO MP UBÁ - COMARCA; COORD REG BACIA DO RIO PARAIBA DO SUL 16.169,47 3.233,89 0,00 0,00 0,00 0,00 1.023,35 1.911,00 22.337,71 982,16 3.896,34 0,00 0,00 4.878,50 17.459,21 31/01/2023
385 692900 BRUNA MENDES COELHO ASSESSOR PROCURADOR JUSTICA BELO HORIZONTE - COMARCA; GABINETE DE PROCURADOR DE JUSTIÇA - SALA 801 0,00 0,00 7.857,77 0,00 0,00 0,00 313,14 1.911,00 10.081,91 877,22 1.416,87 0,00 0,00 2.294,09 7.787,82 31/01/2023
386 470000 BRUNA MORAES ANALISTA DO MP TOMBOS - COMARCA; TOMBOS-PJ-UNPJ 14.224,47 2.844,89 0,00 0,00 0,00 0,00 1.362,12 7.373,20 25.804,68 2.512,05 2.977,49 0,00 0,00 5.489,54 20.315,14 31/01/2023
387 614700 BRUNA NATTANY DE LIMA OFICIAL DO MP MANTENA - COMARCA; MANTENA-PJ-01PJ 6.694,66 669,47 0,00 0,00 0,00 0,00 962,22 8.687,60 17.013,95 959,93 891,80 0,00 0,00 1.851,73 15.162,22 31/01/2023
388 729800 BRUNA PAULA AMARAL CEOLIN ASSESSOR PROMOTOR JUSTICA COMARCA - JUATUBA; JUATUBA-PJ-UNPJ 0,00 0,00 7.857,77 0,00 0,00 0,00 0,00 1.911,00 9.768,77 877,22 1.416,87 0,00 0,00 2.294,09 7.474,68 31/01/2023
389 631800 BRUNA RAPOSO JORGE OFICIAL DO MP JUIZ DE FORA - COMARCA; JUIZ DE FORA-PJ-06PJ 6.694,66 669,47 0,00 0,00 0,00 0,00 386,06 1.911,00 9.661,19 959,93 891,80 0,00 0,00 1.851,73 7.809,46 31/01/2023
390 707800 BRUNA ROMIE WERDINE ASSESSOR PROMOTOR JUSTICA IBIRITÉ - COMARCA; IBIRITE-PJ-06PJ 0,00 0,00 7.857,77 0,00 0,00 0,00 800,54 7.882,91 16.541,22 877,22 1.416,87 0,00 0,00 2.294,09 14.247,13 31/01/2023
391 697400 BRUNA SILVA SANTOS ASSESSOR PROMOTOR JUSTICA TIMÓTEO - COMARCA; TIMOTEO-PJ-04PJ 0,00 0,00 7.857,77 0,00 0,00 0,00 309,76 1.911,00 10.078,53 877,22 1.416,87 0,00 0,00 2.294,09 7.784,44 31/01/2023
392 699300 BRUNA URSINE TIMO ASSESSOR PROCURADOR JUSTICA BELO HORIZONTE - COMARCA; PROC JUST ESP ACOES COMP ORIG CRIMINAL-ASSESS 0,00 0,00 7.857,77 0,00 0,00 0,00 752,71 6.625,66 15.236,14 877,22 1.416,87 0,00 0,00 2.294,09 12.942,05 31/01/2023
393 463800 BRUNO ALVES TEIXEIRA ANALISTA DO MP UBERLÂNDIA - COMARCA; UBERLANDIA-PJ-04PJ 11.008,33 2.201,67 0,00 0,00 0,00 0,00 1.201,59 7.723,40 22.134,99 1.894,55 2.242,39 0,00 0,00 4.136,94 17.998,05 31/01/2023
394 538500 BRUNO AUGUSTO DA SILVA OFICIAL DO MP SANTA LUZIA - COMARCA; SANTA LUZIA-PJ-03PJ 6.694,66 669,47 0,00 0,00 0,00 0,00 359,22 1.911,00 9.634,35 959,93 891,80 0,00 0,00 1.851,73 7.782,62 31/01/2023
395 318200 BRUNO BARROS DE SOUZA OFICIAL DO MP UBÁ - COMARCA; UBA-PJ-04PJ 11.008,33 3.302,50 0,00 0,00 0,00 0,00 1.286,77 7.635,33 23.232,93 982,16 1.886,38 0,00 0,00 2.868,54 20.364,39 31/01/2023
396 427400 BRUNO CESAR RIBEIRO DE PAIVA ANALISTA DO MP BELO HORIZONTE - COMARCA; DIRETORIA DO COLEGIO E DA CAMARA DE PJ 16.169,47 3.233,89 0,00 0,00 0,00 0,00 990,57 1.911,00 22.304,93 2.885,49 3.673,05 0,00 0,00 6.558,54 15.746,39 31/01/2023
397 380900 BRUNO CIRILO ANTUNES OFICIAL DO MP VARGINHA - COMARCA; VARGINHA-PJ-05PJ 10.661,25 2.132,25 0,00 0,00 0,00 0,00 1.219,84 7.540,14 21.553,48 1.827,91 2.146,18 0,00 0,00 3.974,09 17.579,39 31/01/2023
398 329000 BRUNO DE MELO REIS ANALISTA DO MP PATROCÍNIO - COMARCA; PATROCINIO-PJ-02PJ 19.791,01 7.916,40 0,00 0,00 0,00 0,00 1.841,52 9.223,08 38.772,01 4.214,13 5.487,02 0,00 0,00 9.701,15 29.070,86 31/01/2023
399 697800 BRUNO GAZZOLA BEZERRA FALCAO ASSESSOR PROCURADOR JUSTICA BELO HORIZONTE - COMARCA; PROCURADOR-GERAL ADJUNTO JURIDICO- GABINETE 0,00 0,00 7.857,77 0,00 0,00 0,00 320,36 1.911,00 10.089,13 877,22 1.416,87 0,00 0,00 2.294,09 7.795,04 31/01/2023
400 378300 BRUNO HERDY LOPES DE OLIVEIRA ANALISTA DO MP GOVERNADOR VALADARES - COMARCA; GOVERNADOR VALADARES-PJ-03PJ 16.695,70 3.339,14 0,00 0,00 0,00 0,00 1.550,85 7.520,76 29.106,45 2.986,52 3.818,93 0,00 0,00 6.805,45 22.301,00 31/01/2023
401 529700 BRUNO JOSE BUENO DIAS OFICIAL DO MP SÃO SEBASTIÃO DO PARAÍSO - COMARCA; SAO SEBASTIAO DO PARAISO-PJ-02PJ 6.694,66 669,47 0,00 0,00 0,00 0,00 940,56 7.802,30 16.106,99 959,93 839,66 0,00 0,00 1.799,59 14.307,40 31/01/2023
402 691600 BRUNO JOSE RIBEIRO ASSESSOR PROMOTOR JUSTICA CLÁUDIO - COMARCA; CLAUDIO-PJ-UNPJ 0,00 0,00 7.857,77 0,00 0,00 0,00 860,57 7.882,91 16.601,25 877,22 1.416,87 0,00 0,00 2.294,09 14.307,16 31/01/2023
403 350100 BRUNO LAUD SERRANO DOS REIS OFICIAL DO MP UBÁ - COMARCA; UBA-PJ-02PJ 11.008,33 3.302,50 0,00 0,00 0,00 0,00 1.289,65 7.635,33 23.235,81 2.070,68 2.444,54 0,00 0,00 4.515,22 18.720,59 31/01/2023
404 728900 BRUNO LIMA PITANGA ASSESSOR PROMOTOR JUSTICA BELO HORIZONTE - COMARCA; NUCLEO DA EXECUCAO PENAL 0,00 0,00 7.857,77 0,00 0,00 0,00 0,00 2.383,16 10.240,93 877,22 1.416,87 0,00 0,00 2.294,09 7.946,84 31/01/2023
405 373800 BRUNO MARTINO DE ALBUQUERQUE ANALISTA DO MP PONTE NOVA - COMARCA; PONTE NOVA-PJ-03PJ 16.695,70 3.339,14 0,00 0,00 0,00 0,00 1.547,53 7.520,76 29.103,13 2.986,52 3.714,65 0,00 0,00 6.701,17 22.401,96 31/01/2023
406 470400 BRUNO NOVAIS CABRAL ANALISTA DO MP MUTUM - COMARCA; MUTUM-PJ-UNPJ 11.008,33 2.201,67 0,00 0,00 0,00 0,00 1.186,87 7.723,40 22.120,27 1.894,55 1.884,34 0,00 0,00 3.778,89 18.341,38 31/01/2023
407 648600 BRUNO RIBEIRO E MELO ASSESSOR ADMINISTRATIVO IV BELO HORIZONTE - COMARCA; DIR RELACOES INSTITUCIONAIS 0,00 0,00 12.920,95 0,00 0,00 0,00 956,76 7.596,22 21.473,93 877,22 2.809,24 0,00 0,00 3.686,46 17.787,47 31/01/2023
408 369200 BRUNO ROBERTO DIAS DE OLIVEIRA OFICIAL DO MP BELO HORIZONTE - COMARCA; BH-22PJ PES COM DEF E IDOSOS-SECRETARIA 11.008,33 3.302,50 0,00 0,00 0,00 0,00 1.255,12 7.635,33 23.201,28 982,16 2.607,82 0,00 0,00 3.589,98 19.611,30 31/01/2023
409 547700 BRUNO ROBERTO SOUZA GONCALVES ANALISTA DO MP PARACATU - COMARCA; PARACATU-PJ-03PJ 11.008,33 1.100,83 0,00 0,00 0,00 0,00 567,81 2.796,30 15.473,27 1.718,41 1.988,10 0,00 0,00 3.706,51 11.766,76 31/01/2023
410 546100 BRUNO SA VIEIRA ANALISTA DO MP BARBACENA - COMARCA; BARBACENA-PJ-SECRETARIA 11.008,33 1.100,83 0,00 0,00 0,00 0,00 1.149,70 8.608,70 21.867,56 1.718,41 1.883,82 0,00 0,00 3.602,23 18.265,33 31/01/2023
411 438200 BRUNO SALES PEREIRA ANALISTA DO MP BELO HORIZONTE - COMARCA; CENTRAL DE APOIO TECNICO-SETOR CONTABIL 14.224,47 2.844,89 0,00 0,00 0,00 0,00 1.310,38 7.373,20 25.752,94 2.512,05 3.081,76 0,00 0,00 5.593,81 20.159,13 31/01/2023
412 537400 BRUNO SANT'ANA CESAR ANALISTA DO MP BELO HORIZONTE - COMARCA; BH-12PJ JUIZO CRIMINAL-GAB 105PJ 11.008,33 1.100,83 0,00 0,00 0,00 0,00 1.158,72 7.723,40 20.991,28 1.718,41 1.988,10 0,00 0,00 3.706,51 17.284,77 31/01/2023
413 727700 BYANKA DA SILVA MORAIS ASSESSOR PROCURADOR JUSTICA BELO HORIZONTE - COMARCA; GABINETE DE PROCURADOR DE JUSTIÇA - SALA 805 0,00 0,00 7.857,77 0,00 0,00 0,00 0,00 1.911,00 9.768,77 877,22 1.416,87 0,00 0,00 2.294,09 7.474,68 31/01/2023
414 405800 CAIO FERNANDO RODRIGUES DE OLIVEIRA ANALISTA DO MP BELO HORIZONTE - COMARCA; ASSESSORIA JURIDICO-ADMINISTRATIVA 16.169,47 3.233,89 0,00 0,00 0,00 0,00 1.503,85 7.343,94 28.251,15 982,16 3.989,42 0,00 0,00 4.971,58 23.279,57 31/01/2023
415 530000 CAIO GUEDES DE OLIVEIRA ANALISTA DO MP DIAMANTINA - COMARCA; DIAMANTINA-PJ-02PJ 11.008,33 1.100,83 0,00 0,00 0,00 0,00 1.135,98 7.723,40 20.968,54 1.718,41 1.935,96 0,00 0,00 3.654,37 17.314,17 31/01/2023
416 491400 CAIO MIRANDA JUNQUEIRA ANALISTA DO MP BUENO BRANDAO - COMARCA; BUENO BRANDAO-PJ-UNPJ 11.008,33 2.201,67 0,00 0,00 0,00 0,00 581,37 1.911,00 15.702,37 1.894,55 2.138,11 0,00 0,00 4.032,66 11.669,71 31/01/2023
417 415800 CAMILA ALVES DA SILVA ANALISTA DO MP CAETÉ - COMARCA; CAETE-PJ-01PJ 16.169,47 3.233,89 0,00 0,00 0,00 0,00 1.548,35 7.343,94 28.295,65 2.885,49 3.673,05 0,00 0,00 6.558,54 21.737,11 31/01/2023
418 555800 CAMILA CAROLINE ROCHA CHAVES OFICIAL DO MP SALINAS - COMARCA; SALINAS-PJ-01PJ 6.694,66 669,47 0,00 0,00 0,00 0,00 651,06 4.856,65 12.871,84 959,93 891,80 0,00 0,00 1.851,73 11.020,11 31/01/2023
419 445200 CAMILA CONDE ROCHA ANALISTA DO MP CONTAGEM - COMARCA; CONTAGEM-PJ-21PJ 12.118,97 2.423,79 0,00 0,00 0,00 0,00 1.267,54 7.728,10 23.538,40 2.107,79 2.550,26 0,00 0,00 4.658,05 18.880,35 31/01/2023
420 419900 CAMILA CUNNINGHAM PIMENTA DE PADUA ANALISTA DO MP BELO HORIZONTE - COMARCA; ASSESSORIA PSICOSSOCIAL 16.169,47 3.233,89 0,00 0,00 6.467,79 0,00 919,08 1.911,00 28.701,23 2.885,49 5.451,70 0,00 0,00 8.337,19 20.364,04 31/01/2023
421 714200 CAMILA DE SOUSA CUNHA ASSESSOR PROMOTOR JUSTICA PRADOS - COMARCA; PRADOS-PJ-UNPJ 0,00 0,00 7.857,77 0,00 0,00 0,00 128,62 1.911,00 9.897,39 877,22 1.416,87 0,00 0,00 2.294,09 7.603,30 31/01/2023
422 507700 CAMILA ELIZABETH RODRIGUES ANALISTA DO MP BELO HORIZONTE - COMARCA; BH-02PJ FAMILIA-SECRETARIA 13.341,69 2.668,34 0,00 0,00 0,00 0,00 1.245,18 7.674,61 24.929,82 2.342,55 2.889,20 0,00 0,00 5.231,75 19.698,07 31/01/2023
423 372700 CAMILA FONSECA LIMONGE ANALISTA DO MP BETIM - COMARCA; BETIM-PJ-01PJ 16.695,70 3.339,14 0,00 0,00 0,00 0,00 1.488,63 7.520,76 29.044,23 2.986,52 3.818,93 0,00 0,00 6.805,45 22.238,78 31/01/2023
424 621300 CAMILA GOLFETO DE SOUSA VALENTE OFICIAL DO MP CARANGOLA - COMARCA; CARANGOLA-PJ-SECRETARIA 6.694,66 669,47 0,00 0,00 0,00 0,00 952,89 9.130,25 17.447,27 959,93 787,52 0,00 0,00 1.747,45 15.699,82 31/01/2023
425 409800 CAMILA GONCALVES COSTA RIBEIRO ANALISTA DO MP INHAPIM - COMARCA; INHAPIM-PJ-02PJ 11.008,33 2.201,67 0,00 0,00 0,00 0,00 1.197,51 8.608,70 23.016,21 1.894,55 2.138,11 0,00 0,00 4.032,66 18.983,55 31/01/2023
426 335000 CAMILA GONTIJO DE PAIVA ANALISTA DO MP BELO HORIZONTE - COMARCA; COORD DE CONTROLE CONSTITUCIONALIDADE 20.574,59 6.172,38 0,00 0,00 0,00 0,00 1.204,91 1.911,00 29.862,88 4.060,46 5.317,29 0,00 0,00 9.377,75 20.485,13 31/01/2023
427 693400 CAMILA HECKSHER MONTEIRO ASSESSOR PROCURADOR JUSTICA BELO HORIZONTE - COMARCA; GABINETE DE PROCURADOR DE JUSTIÇA - SALA 613 0,00 0,00 7.857,77 0,00 0,00 0,00 313,14 1.911,00 10.081,91 877,22 1.416,87 0,00 0,00 2.294,09 7.787,82 31/01/2023
428 696000 CAMILA IMACULADA OLIVEIRA ASSESSOR PROCURADOR JUSTICA BELO HORIZONTE - COMARCA; GABINETE DE PROCURADOR DE JUSTIÇA - SALA 816 0,00 0,00 7.857,77 0,00 -2.619,26 0,00 309,76 1.911,00 7.459,27 877,22 1.416,87 0,00 0,00 2.294,09 5.165,18 31/01/2023
429 547800 CAMILA MATTARELLI DE ABREU E SILVA ANALISTA DO MP BELO HORIZONTE - COMARCA; CAO-VIOLENCIA DOMESTICA E FAMILIAR 11.008,33 1.100,83 0,00 0,00 0,00 0,00 1.154,05 7.723,40 20.986,61 1.718,41 1.988,10 0,00 0,00 3.706,51 17.280,10 31/01/2023
430 430000 CANDIDA MARINA COSTA ANALISTA DO MP BELO HORIZONTE - COMARCA; DIRET DE INFORMACAO E CONHECIMENTO-DINC/CEAF 16.169,47 3.233,89 0,00 0,00 0,00 0,00 882,08 1.911,00 22.196,44 2.885,49 3.673,05 0,00 0,00 6.558,54 15.637,90 31/01/2023
431 614300 CARINA CORTIELHA OFICIAL DO MP BELO HORIZONTE - COMARCA; BH-23PJ CIVEL-FISC AC POL PUB I 6.081,20 608,12 0,00 0,00 0,00 0,00 362,20 1.911,00 8.962,52 855,73 734,88 0,00 0,00 1.590,61 7.371,91 31/01/2023
432 380400 CARINA DIAS FACANHA DE SOUZA ANALISTA DO MP SANTA RITA DO SAPUCAÍ - COMARCA; SANTA RITA DO SAPUCAI-PJ-01PJ 16.695,70 3.339,14 0,00 0,00 0,00 0,00 1.395,35 8.406,06 29.836,25 2.986,52 3.818,93 0,00 0,00 6.805,45 23.030,80 31/01/2023
433 255000 CARLA ADRIANA DE MENEZES OFICIAL DO MP BELO HORIZONTE - COMARCA; CENT DE APOIO TEC-SETOR DEF,IDOSO E INFANC 11.008,33 3.302,50 0,00 0,00 0,00 0,00 1.221,65 7.635,33 23.167,81 2.070,68 2.496,68 0,00 0,00 4.567,36 18.600,45 31/01/2023
434 425100 CARLA ADRIANA DINIZ AMARAL OFICIAL DO MP CONTAGEM - COMARCA; CONTAGEM-PJ-SECRETARIA 9.999,62 1.999,92 2.602,68 0,00 0,00 0,00 1.135,89 7.751,89 23.490,00 1.700,87 2.678,51 0,00 0,00 4.379,38 19.110,62 31/01/2023
435 508100 CARLA ALESSANDRA FONSECA ANALISTA DO MP BELO HORIZONTE - COMARCA; CAO-ORDEM ECONOMICA E TRIBUTARIA-SECRETARIA 11.008,33 2.201,67 0,00 0,00 0,00 0,00 1.215,56 7.723,40 22.148,96 1.894,55 2.242,39 0,00 0,00 4.136,94 18.012,02 31/01/2023
436 607100 CARLA ANGELICA DIAS MIRANDA OFICIAL DO MP JABOTICATUBAS - COMARCA; JABOTICATUBAS-PJ-UNPJ 6.694,66 669,47 0,00 0,00 0,00 0,00 927,87 7.802,30 16.094,30 959,93 735,38 0,00 0,00 1.695,31 14.398,99 31/01/2023
437 351500 CARLA APARECIDA MENDES RAMIRIO OFICIAL DO MP PASSOS - COMARCA; PASSOS-PJ-01PJ 11.008,33 3.302,50 0,00 0,00 0,00 0,00 688,10 1.911,00 16.909,93 2.070,68 2.444,54 0,00 0,00 4.515,22 12.394,71 31/01/2023
438 713100 CARLA DOS SANTOS SOUZA ASSESSOR PROMOTOR JUSTICA ESPERA FELIZ - COMARCA; ESPERA FELIZ-PJ-UNPJ 0,00 0,00 7.857,77 0,00 0,00 0,00 176,38 1.911,00 9.945,15 877,22 1.416,87 0,00 0,00 2.294,09 7.651,06 31/01/2023
439 442800 CARLA GONCALVES COSTA SOALHEIRO ANALISTA DO MP GOVERNADOR VALADARES - COMARCA; GOVERNADOR VALADARES-PJ-11PJ 10.643,70 2.347,38 0,00 0,00 0,00 0,00 1.163,18 8.430,02 22.584,28 2.034,43 2.091,58 0,00 0,00 4.126,01 18.458,27 31/01/2023
440 321500 CARLA GONCALVES MASSOTE OFICIAL DO MP CAMPO BELO - COMARCA; CAMPO BELO-PJ-02PJ 11.008,33 3.302,50 0,00 0,00 0,00 0,00 1.148,61 7.635,33 23.094,77 2.070,68 2.496,68 0,00 0,00 4.567,36 18.527,41 31/01/2023
441 429200 CARLA HAUTEQUESTT BECHARA ANALISTA DO MP BELO HORIZONTE - COMARCA; DIRET DE INFORMACAO E CONHECIMENTO-DINC/CEAF 16.169,47 3.233,89 0,00 0,00 0,00 0,00 1.035,05 1.911,00 22.349,41 2.885,49 3.673,05 0,00 0,00 6.558,54 15.790,87 31/01/2023
442 247500 CARLA MATILDE GUIMARAES DE OLIVEIRA OFICIAL DO MP ITAJUBA - COMARCA; ITAJUBA-PJ-SECRETARIA 11.008,33 4.403,33 0,00 0,00 0,00 0,00 736,86 1.911,00 18.059,52 2.246,81 2.698,84 0,00 0,00 4.945,65 13.113,87 31/01/2023
443 226100 CARLA MERLI DA CONCEICAO ANALISTA DO MP BELO HORIZONTE - COMARCA; CENTRAL DE APOIO TECNICO-SETOR CONTABIL 20.574,59 8.229,84 0,00 0,00 0,00 0,00 1.892,35 7.671,89 38.368,67 4.389,66 5.792,56 0,00 0,00 10.182,22 28.186,45 31/01/2023
444 181401 CARLO MICHEL GAUDENSI COELHO ANALISTA DO MP BELO HORIZONTE - COMARCA; BH-08PJ JUIZADO ESPECIAL-SECRETARIA 15.659,55 6.263,82 0,00 0,00 0,00 0,00 1.579,34 7.172,61 30.675,32 3.288,69 4.255,18 0,00 0,00 7.543,87 23.131,45 31/01/2023
445 634000 CARLOS ALBERTO AMORMINO TRIGUEIRO ANALISTA DO MP BELO HORIZONTE - COMARCA; DIRET DE APOIO AS PROCURADORIAS DE JUSTICA 9.999,62 999,96 0,00 0,00 0,00 0,00 515,04 2.796,30 14.310,92 982,16 1.703,23 0,00 0,00 2.685,39 11.625,53 31/01/2023
446 637900 CARLOS ALBERTO DE MOURA OFICIAL DO MP SETE LAGOAS - COMARCA; SETE LAGOAS-PJ-07PJ 6.483,63 648,36 0,00 0,00 0,00 0,00 322,49 1.911,00 9.365,48 923,95 785,71 0,00 0,00 1.709,66 7.655,82 31/01/2023
447 638700 CARLOS ALBERTO FERREIRA BRAGA ANALISTA DO MP VESPASIANO - COMARCA; VESPASIANO-PJ-06PJ 9.999,62 999,96 0,00 0,00 0,00 0,00 1.079,73 7.630,78 19.710,09 982,16 1.781,16 0,00 0,00 2.763,32 16.946,77 31/01/2023
448 375801 CARLOS ALBERTO ROCHA ANALISTA DO MP VARGINHA - COMARCA; GAECO REGIONAL DE VARGINHA 11.008,33 1.100,83 0,00 0,00 0,00 0,00 593,23 2.796,30 15.498,69 1.718,41 1.935,96 0,00 0,00 3.654,37 11.844,32 31/01/2023
449 462800 CARLOS ANDREI SOARES FAGUNDES ANALISTA DO MP MONTES CLAROS - COMARCA; MONTES CLAROS-PJ-09PJ 11.008,33 2.201,67 0,00 0,00 0,00 0,00 1.172,74 7.723,40 22.106,14 1.894,55 2.190,25 0,00 0,00 4.084,80 18.021,34 31/01/2023
450 370300 CARLOS AUGUSTO BUENO DIAS ASSESSOR ADMINISTRATIVO IV BELO HORIZONTE - COMARCA; SUPERINTENDÊNCIA DE ENGENHARIA E ARQUITETURA 0,00 0,00 12.920,95 0,00 0,00 0,00 1.038,63 7.596,22 21.555,80 877,22 1.371,85 0,00 0,00 2.249,07 19.306,73 31/01/2023
451 505100 CARLOS CEZAR CARVALHO ANALISTA DO MP CONTAGEM - COMARCA; CONTAGEM-PJ-02PJ 11.008,33 4.403,33 0,00 0,00 0,00 0,00 1.308,85 7.459,20 24.179,71 2.246,81 2.646,70 0,00 0,00 4.893,51 19.286,20 31/01/2023
452 196800 CARLOS EDUARDO DE OLIVEIRA MARINHO OFICIAL DO MP ALPINÓPOLIS - COMARCA; ALPINOPOLIS-PJ-UNPJ 19.037,29 13.326,11 0,00 0,00 0,00 0,00 2.200,87 7.089,14 41.653,41 4.959,09 6.614,69 0,00 0,00 11.573,78 30.079,63 31/01/2023
453 650800 CARLOS EDUARDO NIZA DA SILVA OFICIAL DO MP IGARAPÉ - COMARCA; IGARAPE-PJ-01PJ 5.889,39 588,94 0,00 0,00 0,00 0,00 291,09 2.796,30 9.565,72 822,63 581,68 0,00 0,00 1.404,31 8.161,41 31/01/2023
454 491800 CARLOS EDUARDO ROMAN OFICIAL DO MP BARBACENA - COMARCA; BARBACENA-PJ-09PJ 9.378,86 1.875,77 0,00 0,00 0,00 0,00 514,82 1.911,00 13.680,45 1.581,69 1.790,70 0,00 0,00 3.372,39 10.308,06 31/01/2023
455 299300 CARLOS HENRIQUE BICALHO ANALISTA DO MP BELO HORIZONTE - COMARCA; BH-17PJ PATRIMONIO PUBLICO-SECRETARIA 20.574,59 8.229,84 0,00 0,00 0,00 0,00 2.010,45 8.557,19 39.372,07 4.389,66 5.844,70 0,00 0,00 10.234,36 29.137,71 31/01/2023
456 205100 CARLOS HENRIQUE ESTEVES OFICIAL DO MP ITAMBACURI - COMARCA; ITAMBACURI-PJ-01PJ 19.037,29 7.614,92 0,00 0,00 0,00 0,00 1.384,18 1.911,00 29.947,39 4.045,30 5.295,40 0,00 0,00 9.340,70 20.606,69 31/01/2023
457 351600 CARLOS HENRIQUE FELICIO DA FONSECA OFICIAL DO MP JUIZ DE FORA - COMARCA; JUIZ DE FORA-PJ-21PJ 11.008,33 3.302,50 0,00 0,00 0,00 0,00 1.245,14 7.635,33 23.191,30 2.070,68 2.444,54 0,00 0,00 4.515,22 18.676,08 31/01/2023
458 729100 CARLOS HENRIQUE TEIXEIRA BRAGA ASSESSOR ADMINISTRATIVO II BELO HORIZONTE - COMARCA; DIRETORIA DE SUPORTE E MANUTENCAO 0,00 0,00 6.694,66 0,00 0,00 0,00 0,00 1.911,00 8.605,66 877,22 1.097,01 0,00 0,00 1.974,23 6.631,43 31/01/2023
459 85400 CARLOS JOSE VIEIRA OFICIAL DO MP BELO HORIZONTE - COMARCA; DIRETORIA DO COLEGIO E DA CAMARA DE PJ 25.971,96 20.777,57 0,00 0,00 0,00 5.454,90 520,11 7.584,95 60.309,49 5.454,90 8.882,75 11.287,31 0,00 25.624,96 34.684,53 31/01/2023
460 229100 CARLOS MERCES DE OLIVEIRA ANALISTA DO MP BELO HORIZONTE - COMARCA; CENTRAL DE APOIO TECN-SETOR DE MEIO AMBIENTE 20.574,59 8.229,84 0,00 0,00 0,00 0,00 1.263,12 1.911,00 31.978,55 4.389,66 3.479,09 0,00 0,00 7.868,75 24.109,80 31/01/2023
461 538300 CARLOS RANGEL SILVA DE MELO ANALISTA DO MP BELO HORIZONTE - COMARCA; DIVISAO DE CONTROLE IMOBILIARIO 11.008,33 3.302,50 0,00 0,00 0,00 0,00 672,54 3.681,60 18.664,97 2.070,68 2.496,68 0,00 0,00 4.567,36 14.097,61 31/01/2023
462 265100 CARLOS REIFF MIRANDA ANALISTA DO MP BELO HORIZONTE - COMARCA; BH-19PJ SAUDE-SECRETARIA 150PJ 20.574,59 6.172,38 0,00 0,00 0,00 0,00 1.169,64 1.911,00 29.827,61 4.060,46 5.369,43 0,00 0,00 9.429,89 20.397,72 31/01/2023
463 305400 CARLOS ROCHA DE SOUZA OFICIAL DO MP MONTALVÂNIA - COMARCA; MONTALVANIA-PJ-SECRETARIA 6.694,66 2.008,40 0,00 0,00 0,00 0,00 1.001,18 7.829,08 17.533,32 1.173,44 992,74 0,00 0,00 2.166,18 15.367,14 31/01/2023
464 399900 CARMELITA EVANGELISTA DE SOUZA OFICIAL DO MP JOÃO PINHEIRO - COMARCA; JOAO PINHEIRO-PJ-01PJ 9.684,23 1.936,85 0,00 0,00 0,00 0,00 587,03 1.911,00 14.119,11 1.640,32 1.875,35 0,00 0,00 3.515,67 10.603,44 31/01/2023
465 202000 CARMEN LUCIA MARIZ DE MACEDO OFICIAL DO MP BELO HORIZONTE - COMARCA; DIRETORIA GESTAO COMPRAS LICITACOES 18.312,36 12.818,66 4.846,91 0,00 0,00 0,00 1.516,02 1.911,00 39.404,95 4.761,91 7.468,95 515,71 0,00 12.746,57 26.658,38 31/01/2023
466 701900 CAROLINA CARVALHO COSTA ASSESSOR PROCURADOR JUSTICA BELO HORIZONTE - COMARCA; GABINETE DE PROCURADOR DE JUSTIÇA - SALA 811 0,00 0,00 7.857,77 0,00 0,00 0,00 727,40 6.625,66 15.210,83 877,22 1.416,87 0,00 0,00 2.294,09 12.916,74 31/01/2023
467 228500 CAROLINA CHIARELLA DOS SANTOS RIBEIRO COORDENADOR I BELO HORIZONTE - COMARCA; DIVISAO TRANSPORTES 14.687,60 4.406,28 0,00 0,00 0,00 0,00 2.030,29 7.257,29 28.381,46 2.070,68 3.707,75 0,00 0,00 5.778,43 22.603,03 31/01/2023
468 446500 CAROLINA COSTA VAL RODRIGUES ANALISTA DO MP BELO HORIZONTE - COMARCA; DIVISAO DE MATERIAIS 15.659,55 3.131,91 4.406,28 0,00 0,00 0,00 1.527,55 7.478,46 32.203,75 2.787,58 4.743,43 0,00 0,00 7.531,01 24.672,74 31/01/2023
469 603501 CAROLINA DOMINGOS BRANDAO RABELLO ANALISTA DO MP BARROSO - COMARCA; BARROSO-PJ-01PJ 11.008,33 1.100,83 0,00 0,00 0,00 0,00 502,90 2.796,30 15.408,36 1.718,41 1.988,10 0,00 0,00 3.706,51 11.701,85 31/01/2023
470 404300 CAROLINA DOS SANTOS VIEIRA ANALISTA DO MP BELO HORIZONTE - COMARCA; BH-08PJ JUIZADO ESPECIAL-SECRETARIA 16.695,70 3.339,14 0,00 0,00 0,00 0,00 1.487,09 7.520,76 29.042,69 2.986,52 3.714,65 0,00 0,00 6.701,17 22.341,52 31/01/2023
471 551200 CAROLINA LOPES ARANTES MASCARENHAS ANALISTA DO MP BELO HORIZONTE - COMARCA; CAO-VIOLENCIA DOMESTICA E FAMILIAR 11.008,33 1.100,83 0,00 0,00 0,00 0,00 528,32 2.796,30 15.433,78 1.718,41 1.883,82 0,00 0,00 3.602,23 11.831,55 31/01/2023
472 622600 CAROLINA LOREDO LOPES CATIZANI OFICIAL DO MP RIBEIRÃO DAS NEVES - COMARCA; RIBEIRAO DAS NEVES-PJ-12PJ 6.081,20 608,12 0,00 0,00 0,00 0,00 908,86 7.797,60 15.395,78 855,73 734,88 0,00 0,00 1.590,61 13.805,17 31/01/2023
473 382200 CAROLINA MENDES CHAVES LIN ANALISTA DO MP BELO HORIZONTE - COMARCA; BH-12PJ JUIZO CRIMINAL-GAB 088PJ 11.008,33 2.201,67 0,00 0,00 0,00 0,00 625,56 2.796,30 16.631,86 1.894,55 2.190,25 0,00 0,00 4.084,80 12.547,06 31/01/2023
474 461900 CAROLINA MURTA TEIXEIRA DIAS ANALISTA DO MP BELO HORIZONTE - COMARCA; CENTRO AUTOCOMPOSICAO DE CONFLITOS 11.008,33 2.201,67 0,00 0,00 0,00 0,00 688,21 1.911,00 15.809,21 1.894,55 2.242,39 0,00 0,00 4.136,94 11.672,27 31/01/2023
475 509600 CAROLINA PINTO DE OLIVEIRA SOUZA ANALISTA DO MP MURIAÉ - COMARCA; MURIAE-PJ-01PJ 11.008,33 2.201,67 0,00 0,00 0,00 0,00 1.207,20 8.608,70 23.025,90 1.894,55 2.138,11 0,00 0,00 4.032,66 18.993,24 31/01/2023
476 629100 CAROLINA RODRIGUES AMARAL ANALISTA DO MP BELO HORIZONTE - COMARCA; PROC. JUSTICA DIR. DIFUSOS E COLETIVOS-SEC 10.325,15 1.032,52 0,00 0,00 0,00 0,00 557,36 1.911,00 13.826,03 1.598,18 1.814,50 0,00 0,00 3.412,68 10.413,35 31/01/2023
477 502600 CAROLINA RODRIGUES RUBEN ANALISTA DO MP BELO HORIZONTE - COMARCA; BH-18PJ VIOLENCIA DOMESTICA-GAB 007PJ 11.008,33 2.201,67 0,00 0,00 0,00 0,00 1.172,85 9.494,00 23.876,85 1.894,55 2.138,11 0,00 0,00 4.032,66 19.844,19 31/01/2023
478 529600 CAROLINA VAZ DE MELO MAMBRINI ANALISTA DO MP BELO HORIZONTE - COMARCA; BH-14PJ DEFESA CONSUMIDOR-GAB 005PJ 11.008,33 1.100,83 0,00 0,00 0,00 0,00 515,74 1.911,00 14.535,90 1.718,41 1.988,10 0,00 0,00 3.706,51 10.829,39 31/01/2023
479 619100 CAROLINA ZAKHIA NARDELLI RODRIGUES ANALISTA DO MP NEPOMUCENO - COMARCA; NEPOMUCENO-PJ-UNPJ 10.325,15 1.032,52 0,00 0,00 0,00 0,00 1.168,36 8.702,29 21.228,32 1.598,18 1.814,50 0,00 0,00 3.412,68 17.815,64 31/01/2023
480 517600 CAROLINE ALVES DE OLIVEIRA MULLER ANALISTA DO MP VISCONDE DO RIO BRANCO - COMARCA; VISCONDE DO RIO BRANCO-PJ-01PJ 11.008,33 2.201,67 0,00 0,00 0,00 0,00 595,66 1.911,00 15.716,66 1.894,55 2.190,25 0,00 0,00 4.084,80 11.631,86 31/01/2023
481 373200 CAROLINE ANTUNES RIBEIRO OFICIAL DO MP JACUI - COMARCA; JACUI-PJ-UNPJ 11.008,33 2.201,67 0,00 0,00 0,00 0,00 1.194,82 7.723,40 22.128,22 1.894,55 2.190,25 0,00 0,00 4.084,80 18.043,42 31/01/2023
482 723500 CAROLINE CORDEIRO FERNANDES MACHADO ASSESSOR PROMOTOR JUSTICA BELO HORIZONTE - COMARCA; COORD DE INCLUSAO E MOBILIZACAO SOCIAIS 0,00 0,00 7.857,77 0,00 0,00 0,00 0,00 1.911,00 9.768,77 877,22 1.416,87 0,00 0,00 2.294,09 7.474,68 31/01/2023
483 556800 CAROLINE DE SOUZA CARDOSO DOMINGUES OFICIAL DO MP BRASÍLIA DE MINAS - COMARCA; BRASILIA DE MINAS-PJ-02PJ 6.694,66 669,47 0,00 0,00 0,00 0,00 369,90 1.911,00 9.645,03 959,93 891,80 0,00 0,00 1.851,73 7.793,30 31/01/2023
484 499400 CAROLINE MARQUES DE LOURDES MARZULLO OFICIAL DO MP JUIZ DE FORA - COMARCA; JUIZ DE FORA-PJ-08PJ 9.378,86 1.875,77 0,00 0,00 0,00 0,00 465,98 3.238,95 14.959,56 982,16 1.823,52 0,00 0,00 2.805,68 12.153,88 31/01/2023
485 616800 CAROLINE MONTEIRO DE BARROS ANALISTA DO MP CONTAGEM - COMARCA; CONTAGEM-PJ-11PJ 10.325,15 1.032,52 0,00 0,00 0,00 0,00 1.154,74 7.816,99 20.329,40 982,16 1.869,96 0,00 0,00 2.852,12 17.477,28 31/01/2023
486 618100 CAROLINE VASCONCELOS COSTA LANZA ANALISTA DO MP PARAOPEBA - COMARCA; PARAOPEBA-PJ-UNPJ 10.325,15 1.032,52 0,00 0,00 0,00 0,00 1.135,67 9.587,59 22.080,93 1.598,18 1.814,50 0,00 0,00 3.412,68 18.668,25 31/01/2023
487 699000 CAROLLINA RODRIGUES SOUTO AMARAL ASSESSOR PROCURADOR JUSTICA BELO HORIZONTE - COMARCA; GABINETE DE PROCURADOR DE JUSTIÇA - SALA 405 0,00 0,00 7.857,77 0,00 2.619,26 0,00 320,26 1.911,00 12.708,29 877,22 2.137,16 0,00 0,00 3.014,38 9.693,91 31/01/2023
488 604000 CASSIA APARECIDA DA SILVA OFICIAL DO MP PARACATU - COMARCA; PARACATU-PJ-01PJ 6.694,66 669,47 0,00 0,00 0,00 0,00 327,86 1.911,00 9.602,99 959,93 891,80 0,00 0,00 1.851,73 7.751,26 31/01/2023
489 268800 CASSIA BEATRIZ TEIXEIRA OFICIAL DO MP BELO HORIZONTE - COMARCA; PROC. JUSTICA DE HABEAS CORPUS 15.659,55 4.697,87 3.876,29 0,00 0,00 0,00 1.745,63 7.727,09 33.706,43 3.038,14 4.959,42 0,00 0,00 7.997,56 25.708,87 31/01/2023
490 500000 CASSIA DE OLIVEIRA COSTA VIANA ANALISTA DO MP SETE LAGOAS - COMARCA; SETE LAGOAS-PJ-09PJ 11.008,33 7.705,83 0,00 0,00 0,00 0,00 794,89 1.911,00 21.420,05 2.775,21 3.513,85 0,00 0,00 6.289,06 15.130,99 31/01/2023
491 368800 CASSIA LUISA BATISTA MENDONCA WEBER COORDENADOR II BELO HORIZONTE - COMARCA; DIVISÃO DE EDUCAÇÃO PARA O CONSUMO 18.312,36 5.493,71 0,00 0,00 0,00 0,00 1.419,84 7.624,46 32.850,37 1.699,33 5.209,99 0,00 0,00 6.909,32 25.941,05 31/01/2023
492 622200 CASSIA VAZ DE AZEVEDO LISBOA MARZANO ASSESSOR ADMINISTRATIVO III BELO HORIZONTE - COMARCA; CGMP-SECRETARIA DA CORREGEDORIA-GERAL DO MP 0,00 0,00 9.684,23 0,00 0,00 0,00 690,33 7.721,54 18.096,10 877,22 1.762,73 0,00 0,00 2.639,95 15.456,15 31/01/2023
493 121000 CASSIO HENRIQUE AFONSO DA SILVA OFICIAL DO MP BELO HORIZONTE - COMARCA; CGMP-ASSESSORIA JURIDICA 20.574,59 16.459,68 0,00 0,00 0,00 0,00 2.198,37 7.584,95 46.817,59 5.454,90 7.278,38 1.572,05 0,00 14.305,33 32.512,26 31/01/2023
494 512001 CATARINA NATALINO CALIXTO COORDENADOR II BELO HORIZONTE - COMARCA; DIRETORIA GESTAO TRANSPORTES 18.312,36 1.831,24 0,00 0,00 0,00 0,00 685,25 2.796,30 23.625,15 1.598,18 4.190,85 0,00 0,00 5.789,03 17.836,12 31/01/2023
495 606200 CATARINE DE SIQUEIRA DE QUADROS ANALISTA DO MP CONTAGEM - COMARCA; CONTAGEM-PJ-08PJ 11.008,33 1.100,83 0,00 0,00 0,00 0,00 1.149,52 8.608,70 21.867,38 1.718,41 1.883,82 0,00 0,00 3.602,23 18.265,15 31/01/2023
496 622300 CECILIA APARECIDA PEREIRA ASSUNCAO OFICIAL DO MP TRÊS PONTAS - COMARCA; TRES PONTAS-PJ-SECRETARIA 7.137,75 713,78 0,00 0,00 0,00 0,00 382,50 2.796,30 11.030,33 1.037,19 952,45 0,00 0,00 1.989,64 9.040,69 31/01/2023
497 538000 CECILIA FONTES DE MATOS PIMENTEL ANALISTA DO MP PALMA - COMARCA; PALMA-PJ-UNPJ 11.008,33 1.100,83 0,00 0,00 0,00 0,00 617,98 2.796,30 15.523,44 1.718,41 1.988,10 0,00 0,00 3.706,51 11.816,93 31/01/2023
498 261300 CECILIO ANTONIO CAMPOS DOS REIS ANALISTA DO MP BELO HORIZONTE - COMARCA; AUDITORIA INTERNA 20.574,59 6.172,38 0,00 0,00 0,00 0,00 1.450,64 1.911,00 30.108,61 4.060,46 5.369,43 0,00 0,00 9.429,89 20.678,72 31/01/2023
499 386400 CEFAS AMORELI DE FIGUEIREDO OFICIAL DO MP CABO VERDE - COMARCA; CABO VERDE-PJ-SECRETARIA 6.694,66 1.338,93 0,00 0,00 0,00 0,00 829,96 6.731,15 15.594,70 1.066,32 1.046,64 0,00 0,00 2.112,96 13.481,74 31/01/2023
500 421000 CELINA BENEDITA DE SOUZA ALMEIDA OFICIAL DO MP CAMBUÍ - COMARCA; CAMBUI-PJ-01PJ 9.999,62 6.999,73 0,00 0,00 0,00 0,00 1.303,68 7.350,79 25.653,82 2.500,84 3.065,59 0,00 0,00 5.566,43 20.087,39 31/01/2023
501 252900 CELIO DE MELO CASTOR ANALISTA DO MP BELO HORIZONTE - COMARCA; DIVISAO FROTA 20.574,59 6.172,38 0,00 0,00 0,00 0,00 1.201,77 1.911,00 29.859,74 4.060,46 5.369,43 0,00 0,00 9.429,89 20.429,85 31/01/2023
502 395700 CELIO FERREIRA LIMA OFICIAL DO MP CONTAGEM - COMARCA; CONTAGEM-PJ-SECRETARIA 10.661,25 2.132,25 0,00 0,00 0,00 0,00 628,55 1.911,00 15.333,05 1.827,91 2.094,04 0,00 0,00 3.921,95 11.411,10 31/01/2023
503 281300 CELMA REGINA PEREIRA SANTOS ANALISTA DO MP BELO HORIZONTE - COMARCA; PROMOT ESTADUAL DE DEF PATRI CULT E TUR DE MG 20.574,59 6.172,38 0,00 0,00 0,00 0,00 1.673,90 7.260,39 35.681,26 4.060,46 5.369,43 0,00 0,00 9.429,89 26.251,37 31/01/2023
504 535600 CELSO MEDEIROS DE PAIVA OFICIAL DO MP RIO PRETO - COMARCA; RIO PRETO-PJ-SECRETARIA 6.694,66 669,47 0,00 0,00 0,00 0,00 905,48 7.802,30 16.071,91 959,93 839,66 0,00 0,00 1.799,59 14.272,32 31/01/2023
505 367000 CESAR NARVAES DE AVELAR OFICIAL DO MP BELO HORIZONTE - COMARCA; DIRET DE INFORMACAO E CONHECIMENTO-DINC/CEAF 11.008,33 3.302,50 0,00 0,00 0,00 0,00 709,16 1.911,00 16.930,99 2.070,68 2.496,68 0,00 0,00 4.567,36 12.363,63 31/01/2023
506 226500 CESAR SILVEIRA BARROUIN OFICIAL DO MP BELO HORIZONTE - COMARCA; DIRETORIA DE ADMINISTRACAO FINANCEIRA 15.659,55 6.263,82 0,00 0,00 0,00 0,00 1.579,27 7.172,61 30.675,25 3.288,69 4.255,18 0,00 0,00 7.543,87 23.131,38 31/01/2023
507 121400 CEZAR MORENO CONCEICAO TAVARES OFICIAL DO MP BELO HORIZONTE - COMARCA; COORD DE INCLUSAO E MOBILIZACAO SOCIAIS 19.791,01 15.832,81 0,00 441,56 0,00 8.414,97 2.255,08 8.470,25 55.205,68 5.454,90 8.778,48 161,60 0,00 14.394,98 40.810,70 31/01/2023
508 243800 CHARLES MARTINS MUNIZ OFICIAL DO MP BELO HORIZONTE - COMARCA; LAB TECNOLOGIA CONTRA LAVAGEM DINHEIRO 15.659,55 6.263,82 0,00 0,00 0,00 0,00 1.056,09 1.333,00 24.312,46 3.222,72 4.255,18 0,00 1.145,26 8.623,16 15.689,30 31/01/2023
509 193500 CHARLIN CESAR KOURLY OFICIAL DO MP ARAGUARI - COMARCA; ARAGUARI-PJ-07PJ 19.037,29 7.614,92 0,00 0,00 0,00 0,00 1.811,85 7.241,44 35.705,50 4.045,30 5.347,54 0,00 0,00 9.392,84 26.312,66 31/01/2023
510 385500 CHILLEN PEIXOTO DE MOURA OFICIAL DO MP BELO HORIZONTE - COMARCA; DIVISAO DE MATERIAIS 10.661,25 2.132,25 0,00 0,00 0,00 0,00 594,46 2.796,30 16.184,26 1.827,91 2.146,18 0,00 0,00 3.974,09 12.210,17 31/01/2023
511 534500 CHRISTIAN DOUGLAS BRITO RUAS OFICIAL DO MP SÃO JOÃO DA PONTE - COMARCA; SAO JOAO DA PONTE-PJ-SECRETARIA 6.694,66 669,47 0,00 0,00 0,00 0,00 939,80 7.802,30 16.106,23 959,93 891,80 0,00 0,00 1.851,73 14.254,50 31/01/2023
512 370600 CHRISTIAN KARINE FELIX PRATES ASSESSOR ADMINISTRATIVO IV BELO HORIZONTE - COMARCA; SUPRIN DE PLANEJAMENTO E COORDENACAO 0,00 0,00 12.920,95 0,00 0,00 0,00 510,41 1.911,00 15.342,36 877,22 2.809,24 0,00 0,00 3.686,46 11.655,90 31/01/2023
513 435800 CHRISTIANA BAHIA ANDRADE PINA ANALISTA DO MP BELO HORIZONTE - COMARCA; LABORATORIO TECNOLOGIA INTELIGENCIA 16.169,47 3.233,89 0,00 0,00 0,00 0,00 1.022,32 1.911,00 22.336,68 2.885,49 3.673,05 0,00 0,00 6.558,54 15.778,14 31/01/2023
514 516800 CHRISTIANE FERREIRA DO NASCIMENTO ANALISTA DO MP POUSO ALEGRE - COMARCA; POUSO ALEGRE-PJ-08PJ 11.008,33 2.201,67 0,00 0,00 0,00 0,00 594,76 1.911,00 15.715,76 1.894,55 2.242,39 0,00 0,00 4.136,94 11.578,82 31/01/2023
515 176000 CHRISTIANE JUNQUEIRA PULITI ANDRADE DE BARROS ASSESSOR ADM. ESPECIAL BELO HORIZONTE - COMARCA; PROCURADORIA-GERAL ADJUNTA INSTITUCIONAL 0,00 19.986,35 24.982,93 467,53 0,00 8.425,00 2.071,69 7.584,95 63.518,45 5.454,90 8.882,75 9.507,06 0,00 23.844,71 39.673,74 31/01/2023
516 319200 CHRISTIANE MARIA DE ASSIS RUSSO OFICIAL DO MP BELO HORIZONTE - COMARCA; CAO-ORDEM ECONOMICA E TRIBUTARIA-SECRETARIA 13.776,02 4.132,81 0,00 0,00 0,00 0,00 805,11 2.796,30 21.510,24 2.646,36 3.275,68 0,00 0,00 5.922,04 15.588,20 31/01/2023
517 510300 CHRISTIANE MARY DE CARVALHO FERREIRA ANALISTA DO MP BELO HORIZONTE - COMARCA; DIRETORIA DE SISTEMAS DE INFORMACAO 11.008,33 2.201,67 0,00 0,00 0,00 0,00 607,74 1.911,00 15.728,74 1.894,55 2.190,25 0,00 0,00 4.084,80 11.643,94 31/01/2023
518 424900 CHRISTIANE PEREIRA TURNER DE ARAUJO OFICIAL DO MP BELO HORIZONTE - COMARCA; CAO-PATRIMONIO PUBLICO 9.999,62 1.999,92 0,00 0,00 0,00 0,00 1.112,98 8.556,08 21.668,60 1.700,87 1.858,50 0,00 0,00 3.559,37 18.109,23 31/01/2023
519 731000 CHRISTIANE TEIXEIRA ANTUNA ASSESSOR ADMINISTRATIVO II BELO HORIZONTE - COMARCA; DIR CONTEUDO JORNALISTICO 0,00 0,00 6.694,66 0,00 0,00 0,00 0,00 1.911,00 8.605,66 877,22 1.097,01 0,00 0,00 1.974,23 6.631,43 31/01/2023
520 513700 CHRISTIANE VIEIRA SOARES PEDERSOLI COORDENADOR II BELO HORIZONTE - COMARCA; ASSESSORIA JURIDICA DO PROCON-MG 18.312,36 3.662,47 0,00 0,00 0,00 0,00 1.224,50 8.070,26 31.269,59 1.894,55 4.652,72 0,00 0,00 6.547,27 24.722,32 31/01/2023
521 412300 CHRYSTIAN MACHADO RIBEIRO ANALISTA DO MP VARGINHA - COMARCA; VARGINHA-PJ-04PJ 16.169,47 3.233,89 0,00 0,00 0,00 0,00 1.112,94 1.911,00 22.427,30 2.885,49 3.673,05 0,00 0,00 6.558,54 15.868,76 31/01/2023
522 513800 CHRYSTIANE DO NASCIMENTO DE MAGALHAES OFICIAL DO MP UBERLÂNDIA - COMARCA; UBERLANDIA-PJ-10PJ 8.650,50 1.730,10 0,00 0,00 0,00 0,00 1.060,43 7.724,14 19.165,17 1.441,84 1.484,52 0,00 0,00 2.926,36 16.238,81 31/01/2023
523 497900 CIBELE DE FREITAS SANCHES DIAS ANALISTA DO MP SABARÁ - COMARCA; SABARA-PJ-03PJ 11.008,33 2.201,67 0,00 0,00 0,00 0,00 710,66 1.911,00 15.831,66 982,16 2.290,59 0,00 0,00 3.272,75 12.558,91 31/01/2023
524 500900 CIBELLE SILVA PRADO ALVARENGA ANALISTA DO MP ITANHANDU - COMARCA; ITANHANDU-PJ-UNPJ 11.008,33 2.201,67 0,00 0,00 0,00 0,00 1.221,81 8.608,70 23.040,51 1.894,55 2.242,39 0,00 0,00 4.136,94 18.903,57 31/01/2023
525 296400 CINTIA APARECIDA MOREIRA NAVES E RODRIGUES ANALISTA DO MP CAMPO BELO - COMARCA; CAMPO BELO-PJ-01PJ 20.574,59 6.172,38 0,00 0,00 0,00 0,00 1.914,52 7.260,39 35.921,88 4.060,46 5.369,43 0,00 0,00 9.429,89 26.491,99 31/01/2023
526 407900 CINTIA NETO COMELLI ANALISTA DO MP BELO HORIZONTE - COMARCA; CENTRAL DE APOIO TECNICO-SETOR CONTABIL 16.169,47 3.233,89 0,00 0,00 0,00 0,00 1.018,71 1.911,00 22.333,07 2.885,49 3.620,92 0,00 0,00 6.506,41 15.826,66 31/01/2023
527 304700 CINTIA QUEIROZ OFICIAL DO MP BELO HORIZONTE - COMARCA; OUVIDORIA DO MPMG 11.008,33 3.302,50 0,00 0,00 0,00 0,00 1.282,89 7.635,33 23.229,05 2.070,68 2.496,68 0,00 0,00 4.567,36 18.661,69 31/01/2023
528 286100 CIRO CANGUSSU CORDEIRO OFICIAL DO MP IPATINGA - COMARCA; IPATINGA-PJ-09PJ 9.378,86 2.813,66 0,00 0,00 0,00 0,00 1.110,42 8.648,71 21.951,65 1.731,75 1.903,08 0,00 0,00 3.634,83 18.316,82 31/01/2023
529 689900 CISSA NOGUEIRA COLEN ASSESSOR PROCURADOR JUSTICA BELO HORIZONTE - COMARCA; GABINETE DE PROCURADOR DE JUSTIÇA - SALA 608 0,00 0,00 7.857,77 0,00 0,00 0,00 875,49 7.882,91 16.616,17 877,22 1.416,87 0,00 0,00 2.294,09 14.322,08 31/01/2023
530 681700 CLARA FERREIRA ALKIMIM ASSESSOR PROMOTOR JUSTICA PEDRA AZUL - COMARCA; PEDRA AZUL-PJ-02PJ 0,00 0,00 7.857,77 0,00 0,00 0,00 900,44 7.882,91 16.641,12 877,22 1.416,87 0,00 0,00 2.294,09 14.347,03 31/01/2023
531 715500 CLARA ISABELLE SOUSA FARIA ASSESSOR PROCURADOR JUSTICA BELO HORIZONTE - COMARCA; GABINETE DE PROCURADOR DE JUSTIÇA - SALA 712 0,00 0,00 7.857,77 0,00 0,00 0,00 81,15 1.911,00 9.849,92 877,22 1.416,87 0,00 0,00 2.294,09 7.555,83 31/01/2023
532 723100 CLARA PRADO CAMPOS ASSESSOR PROCURADOR JUSTICA BELO HORIZONTE - COMARCA; GABINETE DE PROCURADOR DE JUSTIÇA - SALA 1006 0,00 0,00 7.857,77 0,00 0,00 0,00 0,00 1.911,00 9.768,77 877,22 1.416,87 0,00 0,00 2.294,09 7.474,68 31/01/2023
533 695500 CLARA RODRIGUES BLACH ASSESSOR PROCURADOR JUSTICA BELO HORIZONTE - COMARCA; GABINETE DE PROCURADOR DE JUSTIÇA - SALA 1003 0,00 0,00 7.857,77 0,00 0,00 0,00 320,53 1.911,00 10.089,30 877,22 1.416,87 0,00 0,00 2.294,09 7.795,21 31/01/2023
534 412500 CLARICE GOMES MAROTTA ANALISTA DO MP BELO HORIZONTE - COMARCA; COORD ESTADUAL DE DEFESA DOS ANIMAIS 16.169,47 4.850,84 0,00 0,00 0,00 0,00 1.181,56 1.911,00 24.112,87 3.144,20 4.046,57 0,00 0,00 7.190,77 16.922,10 31/01/2023
535 605300 CLARISSA AZEVEDO ROCHA OFICIAL DO MP BELO HORIZONTE - COMARCA; BH-17PJ PATRIMONIO PUBLICO-SECRETARIA 6.694,66 669,47 0,00 0,00 0,00 0,00 331,53 1.911,00 9.606,66 959,93 891,80 0,00 0,00 1.851,73 7.754,93 31/01/2023
536 308100 CLARISSA DUARTE BELLONI DIRETOR-GERAL BELO HORIZONTE - COMARCA; DIRETORIA-GERAL 30.917,06 9.275,12 0,00 0,00 0,00 0,00 2.320,67 10.240,86 52.753,71 4.060,46 7.614,63 4.729,96 0,00 16.405,05 36.348,66 31/01/2023
537 730500 CLARISSA FERNANDES ABREU ASSESSOR PROMOTOR JUSTICA SANTOS DUMONT - COMARCA; SANTOS DUMONT-PJ-02PJ 0,00 0,00 7.857,77 0,00 0,00 0,00 0,00 1.911,00 9.768,77 877,22 1.416,87 0,00 0,00 2.294,09 7.474,68 31/01/2023
538 497100 CLARISSA ROCHA GUIDI ANALISTA DO MP BELO HORIZONTE - COMARCA; BH-02PJ FAMILIA-SECRETARIA 13.341,69 2.668,34 0,00 0,00 0,00 0,00 698,60 3.681,60 20.390,23 2.342,55 2.837,06 0,00 0,00 5.179,61 15.210,62 31/01/2023
539 641800 CLARISSE TAVARES GONCALVES OFICIAL DO MP BELO HORIZONTE - COMARCA; BH-07PJ 01 TRIBUNAL JURI-SECRETARIA 6.483,63 648,36 0,00 0,00 0,00 0,00 296,32 1.911,00 9.339,31 923,95 837,85 0,00 0,00 1.761,80 7.577,51 31/01/2023
540 463700 CLAUDIA ADRIANA FERRAO DIAS ANALISTA DO MP SETE LAGOAS - COMARCA; SETE LAGOAS-PJ-06PJ 11.008,33 2.201,67 0,00 0,00 0,00 0,00 616,49 1.911,00 15.737,49 1.894,55 2.242,39 0,00 0,00 4.136,94 11.600,55 31/01/2023
541 415400 CLAUDIA ALMEIDA DE VASCONCELLOS BARROS OFICIAL DO MP BELO HORIZONTE - COMARCA; DIVISAO DE SERVICOS 9.684,23 1.936,85 3.585,64 0,00 0,00 0,00 713,75 1.911,00 17.831,47 1.640,32 2.861,40 0,00 0,00 4.501,72 13.329,75 31/01/2023
542 207000 CLAUDIA APARECIDA VILELA MACHADO ANALISTA DO MP BELO HORIZONTE - COMARCA; CENTRAL DE APOIO TECNICO-SETOR CONTABIL 20.574,59 10.287,30 0,00 0,00 0,00 0,00 1.489,52 1.911,00 34.262,41 4.718,85 6.163,56 0,00 0,00 10.882,41 23.380,00 31/01/2023
543 365700 CLAUDIA BREGUEZ CUNHA ANALISTA DO MP VARGINHA - COMARCA; VARGINHA-PJ-07PJ 18.312,36 5.493,71 0,00 0,00 0,00 0,00 1.118,32 2.796,30 27.720,69 3.589,92 4.690,08 0,00 0,00 8.280,00 19.440,69 31/01/2023
544 430500 CLAUDIA CECILIA SANTANA VENCESLAU OFICIAL DO MP BELO HORIZONTE - COMARCA; LAB TECNOLOGIA CONTRA LAVAGEM DINHEIRO 9.999,62 1.999,92 0,00 0,00 0,00 0,00 1.158,05 7.670,78 20.828,37 1.700,87 1.910,64 0,00 0,00 3.611,51 17.216,86 31/01/2023
545 213601 CLAUDIA GONCALVES CALIXTO ASSESSOR PROCURADOR JUSTICA BELO HORIZONTE - COMARCA; PROC. JUSTICA DIR. DIFUSOS E COLETIVOS-SEC 0,00 0,00 7.857,77 0,00 0,00 0,00 24,72 1.911,00 9.793,49 877,22 1.416,87 0,00 0,00 2.294,09 7.499,40 31/01/2023
546 480400 CLAUDIA GOULART DE SOUZA OFICIAL DO MP PASSOS - COMARCA; PASSOS-PJ-06PJ 9.378,86 2.813,66 0,00 0,00 0,00 0,00 1.109,51 7.763,41 21.065,44 1.731,75 2.007,35 0,00 0,00 3.739,10 17.326,34 31/01/2023
547 519800 CLAUDIA HELENA CORREA DE ALMEIDA ANALISTA DO MP BELO HORIZONTE - COMARCA; BH-12PJ JUIZO CRIMINAL-GAB 096PJ 11.008,33 2.201,67 0,00 0,00 0,00 0,00 1.186,19 7.723,40 22.119,59 1.894,55 2.242,39 0,00 0,00 4.136,94 17.982,65 31/01/2023
548 422100 CLAUDIA IACOMINI CABRAL ANALISTA DO MP BELO HORIZONTE - COMARCA; CENT DE APOIO TEC-SETOR DEF,IDOSO E INFANC 16.169,47 11.318,64 0,00 0,00 0,00 0,00 1.920,48 7.408,62 36.817,21 4.179,05 5.540,63 0,00 0,00 9.719,68 27.097,53 31/01/2023
549 258200 CLAUDIA LAGE MICHALAROS ANALISTA DO MP BELO HORIZONTE - COMARCA; CENTRAL DE APOIO TECN-SETOR DE MEIO AMBIENTE 20.574,59 14.402,22 0,00 477,21 0,00 8.529,89 1.830,98 1.911,00 47.725,89 5.377,24 8.749,26 0,00 0,00 14.126,50 33.599,39 31/01/2023
550 284600 CLAUDIA LENI DE FREITAS OFICIAL DO MP CONTAGEM - COMARCA; CONTAGEM-PJ-SECRETARIA 6.694,66 2.677,86 0,00 127,88 0,00 2.119,58 437,36 1.911,00 13.968,34 1.280,55 1.708,08 0,00 0,00 2.988,63 10.979,71 31/01/2023
551 433600 CLAUDIA LUIZA SANTIAGO FELICIO ANALISTA DO MP BELO HORIZONTE - COMARCA; CENT DE APOIO TEC-SETOR DEF,IDOSO E INFANC 16.169,47 3.233,89 0,00 0,00 0,00 0,00 1.398,42 7.343,94 28.145,72 2.885,49 3.568,78 0,00 0,00 6.454,27 21.691,45 31/01/2023
552 317000 CLAUDIA MACHADO ALVES OFICIAL DO MP BELO HORIZONTE - COMARCA; DIR GOVERNANCA TECNOLOGIA INFORMACAO 11.008,33 3.302,50 3.585,64 0,00 0,00 0,00 1.308,71 7.637,87 26.843,05 2.070,68 3.463,22 0,00 0,00 5.533,90 21.309,15 31/01/2023
553 155300 CLAUDIA MACIEL MIRANDA OFICIAL DO MP CONGONHAS - COMARCA; CONGONHAS-PJ-02PJ 19.791,01 9.895,51 0,00 0,00 0,00 0,00 1.501,20 1.911,00 33.098,72 4.530,79 5.944,19 0,00 0,00 10.474,98 22.623,74 31/01/2023
554 242200 CLAUDIA MICHELLE DIAS MUNIZ BALEEIRO OFICIAL DO MP MONTE AZUL - COMARCA; MONTE AZUL-PJ-SECRETARIA 15.659,55 6.263,82 0,00 0,00 0,00 0,00 1.517,88 7.172,61 30.613,86 3.288,69 4.203,04 0,00 0,00 7.491,73 23.122,13 31/01/2023
555 623000 CLAUDIA PATRICIA SILVA RODRIGUES RAPOSEIRAS OFICIAL DO MP BELO HORIZONTE - COMARCA; DIVISÃO DE EDUCAÇÃO PARA O CONSUMO 6.694,66 669,47 0,00 0,00 0,00 0,00 383,04 2.796,30 10.543,47 959,93 839,66 0,00 0,00 1.799,59 8.743,88 31/01/2023
556 418400 CLAUDIA REGINA MARTINS BONIFACIO OFICIAL DO MP ITUIUTABA - COMARCA; ITUIUTABA-PJ-06PJ 9.999,62 1.999,92 0,00 0,00 0,00 0,00 1.155,01 7.670,78 20.825,33 1.700,87 1.858,50 0,00 0,00 3.559,37 17.265,96 31/01/2023
557 498300 CLAUDIA SOUTO FARIAS BRAUN OFICIAL DO MP TEÓFILO OTONI - COMARCA; TEOFILO OTONI-PJ-SECRETARIA 6.694,66 1.338,93 0,00 0,00 0,00 0,00 943,15 7.695,18 16.671,92 1.066,32 942,36 0,00 0,00 2.008,68 14.663,24 31/01/2023
558 206500 CLAUDIA VALERIA FONSECA ANDRADE ANALISTA DO MP BELO HORIZONTE - COMARCA; BH-23PJ INF-FISC MED SOC FEC 20.574,59 10.287,30 0,00 421,07 0,00 7.536,07 2.015,95 6.848,90 47.683,88 4.718,85 7.617,66 0,00 0,00 12.336,51 35.347,37 31/01/2023
559 277500 CLAUDIO ANTONIO BORGES BRUNSWICK ALVARES OFICIAL DO MP BELO HORIZONTE - COMARCA; BH-15PJ M AMB PAT HIST CULT-GAB 116PJ 11.008,33 3.302,50 0,00 0,00 4.770,28 0,00 613,95 1.911,00 21.606,06 2.070,68 3.808,51 0,00 0,00 5.879,19 15.726,87 31/01/2023
560 444800 CLAUDIO ARESIO DO CARMO ANALISTA DO MP SETE LAGOAS - COMARCA; SETE LAGOAS-PJ-01PJ 13.341,69 5.336,68 0,00 0,00 0,00 0,00 1.549,91 7.888,08 28.116,36 2.769,49 3.453,44 0,00 0,00 6.222,93 21.893,43 31/01/2023
561 545100 CLAUDIO HENRIQUE MACEDO DE SOUZA FRANSOZO ANALISTA DO MP OURO PRETO - COMARCA; OURO PRETO-PJ-03PJ 11.008,33 1.100,83 0,00 0,00 0,00 0,00 524,01 2.796,30 15.429,47 982,16 2.056,27 0,00 0,00 3.038,43 12.391,04 31/01/2023
562 353500 CLAUDIO HENRIQUE PEDRO DA ROCHA OFICIAL DO MP BELO HORIZONTE - COMARCA; DIVISAO TRANSPORTES 11.008,33 3.302,50 0,00 0,00 0,00 0,00 662,14 1.911,00 16.883,97 2.070,68 2.392,41 0,00 0,00 4.463,09 12.420,88 31/01/2023
563 265800 CLAUDIO KUPIDLOWSKY FERNANDES OFICIAL DO MP BELO HORIZONTE - COMARCA; SECRETARIA DO PROCON-MG 11.008,33 3.302,50 0,00 0,00 0,00 0,00 674,24 1.911,00 16.896,07 2.070,68 841,64 0,00 0,00 2.912,32 13.983,75 31/01/2023
564 193600 CLAUDIO LEITE FONTES OFICIAL DO MP ITUIUTABA - COMARCA; ITUIUTABA-PJ-02PJ 11.008,33 4.403,33 0,00 0,00 0,00 0,00 1.384,10 7.459,20 24.254,96 2.246,81 2.392,92 0,00 0,00 4.639,73 19.615,23 31/01/2023
565 329400 CLAUDIO MARCIO BERNARDES OFICIAL DO MP ITAÚNA - COMARCA; ITAUNA-PJ-03PJ 11.008,33 8.806,66 0,00 0,00 0,00 0,00 881,78 2.796,30 23.493,07 2.951,35 3.716,00 0,00 0,00 6.667,35 16.825,72 31/01/2023
566 270200 CLAUDIO RABELO ALVES OFICIAL DO MP FORMIGA - COMARCA; FORMIGA-PJ-03PJ 13.341,69 4.002,51 0,00 0,00 0,00 0,00 1.312,36 7.461,14 26.117,70 2.556,02 3.040,98 0,00 0,00 5.597,00 20.520,70 31/01/2023
567 264700 CLAUDIO ROBERTO KFURI DE ARAUJO ANALISTA DO MP BELO HORIZONTE - COMARCA; CENTRAL DE APOIO TECNICO-SETOR DE INFORMATICA 20.574,59 6.172,38 0,00 0,00 0,00 0,00 1.211,99 1.911,00 29.869,96 4.060,46 5.265,16 0,00 0,00 9.325,62 20.544,34 31/01/2023
568 188600 CLAUDIO SALES OFICIAL DO MP NEPOMUCENO - COMARCA; NEPOMUCENO-PJ-SECRETARIA 18.312,36 14.649,89 0,00 0,00 0,00 0,00 1.502,88 2.796,30 37.261,43 5.054,91 6.805,16 0,00 0,00 11.860,07 25.401,36 31/01/2023
569 543300 CLAUDIO SILVA DE CARVALHO ANALISTA DO MP CAMPO BELO - COMARCA; CAMPO BELO-PJ-03PJ 10.325,15 1.032,52 0,00 0,00 0,00 0,00 533,64 1.911,00 13.802,31 1.598,18 1.762,36 0,00 0,00 3.360,54 10.441,77 31/01/2023
570 160700 CLAUDIO VICENTE HESS ASSESSOR DE GABINETE I BELO HORIZONTE - COMARCA; CENTRAL DE APOIO TECNICO-SETOR DE INFORMATICA 0,00 8.084,74 16.169,47 0,00 0,00 0,00 1.126,20 1.911,00 27.291,41 877,22 5.821,61 0,00 0,00 6.698,83 20.592,58 31/01/2023
571 312900 CLAUDIO VIEIRA FIRPE OFICIAL DO MP BELO HORIZONTE - COMARCA; DIR RELACOES INSTITUCIONAIS 11.008,33 3.302,50 0,00 0,00 0,00 0,00 1.223,80 7.635,33 23.169,96 2.070,68 2.496,68 0,00 0,00 4.567,36 18.602,60 31/01/2023
572 634100 CLEA CRISTINA GUERRA DE FREITAS COSTA OFICIAL DO MP BELO HORIZONTE - COMARCA; BH-18PJ VIOLENCIA DOMESTICA-SECRETARIA 6.483,63 648,36 0,00 0,00 0,00 0,00 348,99 1.911,00 9.391,98 923,95 785,71 0,00 0,00 1.709,66 7.682,32 31/01/2023
573 459200 CLEIA ZILLE PEREIRA ANALISTA DO MP BELO HORIZONTE - COMARCA; BH-07PJ 01 TRIBUNAL DO JURI-GAB 059PJ 11.008,33 2.201,67 0,00 0,00 0,00 0,00 1.191,79 9.051,35 23.453,14 1.894,55 2.242,39 0,00 0,00 4.136,94 19.316,20 31/01/2023
574 481800 CLEIDE CARDOSO DA SILVA ANALISTA DO MP MANHUAÇU - COMARCA; MANHUACU-PJ-04PJ 11.008,33 2.201,67 0,00 0,00 0,00 0,00 634,40 1.911,00 15.755,40 1.894,55 2.138,11 0,00 0,00 4.032,66 11.722,74 31/01/2023
575 347600 CLEIDIMAR DE OLIVEIRA SILVA OFICIAL DO MP PATOS DE MINAS - COMARCA; PATOS DE MINAS-PJ-03PJ 11.008,33 3.302,50 0,00 0,00 0,00 0,00 1.278,34 7.635,33 23.224,50 2.070,68 2.288,13 0,00 0,00 4.358,81 18.865,69 31/01/2023
576 396500 CLEIDISON BATISTA DE ANDRADE OFICIAL DO MP RESPLENDOR - COMARCA; RESPLENDOR-PJ-UNPJ 9.999,62 1.999,92 0,00 0,00 0,00 0,00 1.179,77 7.670,78 20.850,09 1.700,87 1.858,50 0,00 0,00 3.559,37 17.290,72 31/01/2023
577 535100 CLEISON ALVES DA SILVA ANALISTA DO MP BOA ESPERANÇA - COMARCA; BOA ESPERANCA-PJ-01PJ 11.008,33 1.100,83 0,00 0,00 0,00 0,00 625,75 1.911,00 14.645,91 1.718,41 1.883,82 0,00 0,00 3.602,23 11.043,68 31/01/2023
578 298100 CLEONICE AUGUSTA BARROS DE OLIVEIRA ANALISTA DO MP JUIZ DE FORA - COMARCA; JUIZ DE FORA-PJ-08PJ 20.574,59 6.172,38 0,00 0,00 0,00 0,00 1.173,96 1.911,00 29.831,93 4.060,46 5.369,43 0,00 0,00 9.429,89 20.402,04 31/01/2023
579 264100 CLETO HENRIQUE ANDRADE SILVA ANALISTA DO MP BELO HORIZONTE - COMARCA; DIRETORIA DE SISTEMAS DE INFORMACAO 20.574,59 6.172,38 0,00 0,00 0,00 0,00 1.442,73 1.911,00 30.100,70 4.060,46 5.265,16 0,00 0,00 9.325,62 20.775,08 31/01/2023
580 334400 CLEUBA DE OLIVEIRA BARCELOS GONCALVES OFICIAL DO MP DIVINÓPOLIS - COMARCA; COORD REG SAUDE MACRORREGIAO SANITARIA OESTE 11.008,33 3.302,50 0,00 0,00 0,00 0,00 1.282,18 7.635,33 23.228,34 2.070,68 2.444,54 0,00 0,00 4.515,22 18.713,12 31/01/2023
581 347500 CLEUSA CORDEIRO DA MATA PIMENTA OFICIAL DO MP CAMPO BELO - COMARCA; CAMPO BELO-PJ-01PJ 11.008,33 8.806,67 0,00 270,34 0,00 4.772,02 1.592,04 7.459,20 33.908,60 2.951,35 4.527,63 0,00 0,00 7.478,98 26.429,62 31/01/2023
582 510200 CLEZIO SALES SILVA OFICIAL DO MP BRASÓPOLIS - COMARCA; BRASOPOLIS-PJ-UNPJ 6.694,66 1.338,93 0,00 0,00 0,00 0,00 948,78 8.580,48 17.562,85 1.066,32 1.046,64 0,00 0,00 2.112,96 15.449,89 31/01/2023
583 323000 CLOTILDE DE PADUA VIEIRA OFICIAL DO MP BELO HORIZONTE - COMARCA; BH-19PJ SAUDE-SECRETARIA 129PJ 11.008,33 3.302,50 0,00 0,00 0,00 0,00 509,99 1.911,00 16.731,82 2.070,68 2.496,68 0,00 0,00 4.567,36 12.164,46 31/01/2023
584 285200 CLOVIS ANDRE LUDTKE OFICIAL DO MP BELO HORIZONTE - COMARCA; DIVISAO DE MANUTENCAO PREDIAL 11.736,91 3.521,07 0,00 0,00 0,00 0,00 1.200,31 7.403,87 23.862,16 2.222,23 2.715,47 0,00 0,00 4.937,70 18.924,46 31/01/2023
585 381100 CONCEICAO APARECIDA TEIXEIRA ARANTES ANALISTA DO MP BELO HORIZONTE - COMARCA; BH-23PJ INFRACIONAL-ASS JURIDICA 16.944,07 3.388,81 0,00 0,00 0,00 0,00 5.473,51 5.236,25 31.042,64 3.703,48 4.801,90 0,00 0,00 8.505,38 22.537,26 31/01/2023
586 249900 CONSTANTINO CEZAR GOMES MOTA OFICIAL DO MP MONTES CLAROS - COMARCA; COORD REG BACIA RIOS VERDE GRANDE E PARDO 11.008,33 3.302,50 0,00 0,00 0,00 0,00 738,01 3.681,60 18.730,44 2.070,68 2.392,41 0,00 0,00 4.463,09 14.267,35 31/01/2023
587 481000 CRISHMA ANALIA LOMBELLO ANALISTA DO MP JUIZ DE FORA - COMARCA; JUIZ DE FORA-PJ-13PJ 11.008,33 2.201,67 0,00 0,00 0,00 0,00 581,38 1.911,00 15.702,38 1.894,55 2.190,25 0,00 0,00 4.084,80 11.617,58 31/01/2023
588 523900 CRISTHYANE BAZOLI COSTA GUEDES COUTO OFICIAL DO MP BELO HORIZONTE - COMARCA; BH-04PJ JUIZO REG PÚBLICOS-SECRETARIA 8.650,50 1.730,10 0,00 0,00 0,00 0,00 1.045,17 7.724,14 19.149,91 1.441,84 1.588,80 0,00 0,00 3.030,64 16.119,27 31/01/2023
589 187000 CRISTIAN DAYVSON EVANGELISTA OFICIAL DO MP JUIZ DE FORA - COMARCA; JUIZ DE FORA-PJ-13PJ 18.312,36 7.324,94 0,00 0,00 0,00 0,00 3.340,36 7.354,46 36.332,12 3.882,92 5.495,46 0,00 0,00 9.378,38 26.953,74 31/01/2023
590 682100 CRISTIAN TRISTAO DE ANDRADE ASSESSOR PROMOTOR JUSTICA TRÊS CORACOES - COMARCA; TRES CORACOES-PJ-04PJ 0,00 0,00 7.857,77 0,00 0,00 0,00 355,37 1.911,00 10.124,14 877,22 1.416,87 0,00 0,00 2.294,09 7.830,05 31/01/2023
591 319800 CRISTIANA GONCALVES DOS SANTOS GUSMAO OFICIAL DO MP PARAOPEBA - COMARCA; PARAOPEBA-PJ-UNPJ 11.008,33 3.302,50 0,00 0,00 0,00 0,00 694,80 1.911,00 16.916,63 2.070,68 2.496,68 0,00 0,00 4.567,36 12.349,27 31/01/2023
592 520600 CRISTIANA JANAINA BARBOZA JUVENCIO DOS SANTOS ANALISTA DO MP BELO HORIZONTE - COMARCA; BH-02PJ FAMILIA-SECRETARIA 11.008,33 2.201,67 0,00 0,00 0,00 0,00 1.163,01 7.723,40 22.096,41 1.894,55 2.242,39 0,00 0,00 4.136,94 17.959,47 31/01/2023
593 195600 CRISTIANA SOARES HALABI OFICIAL DO MP UBERABA - COMARCA; UBERABA-PJ-01PJ 18.312,36 7.324,94 0,00 0,00 0,00 0,00 1.774,88 7.038,46 34.450,64 3.882,92 5.113,09 0,00 0,00 8.996,01 25.454,63 31/01/2023
594 218900 CRISTIANE ALVES BELLES OFICIAL DO MP JUIZ DE FORA - COMARCA; JUIZ DE FORA-PJ-10PJ 6.694,66 2.677,86 0,00 0,00 0,00 0,00 973,13 9.237,36 19.583,01 1.280,55 1.251,66 0,00 0,00 2.532,21 17.050,80 31/01/2023
595 263600 CRISTIANE CARVALHO COUTINHO OFICIAL DO MP BELO HORIZONTE - COMARCA; BH-23PJ INFRACIONAL-SEC EXP 12.118,97 3.635,69 0,00 0,00 0,00 0,00 738,15 1.911,00 18.403,81 2.301,69 2.778,07 0,00 0,00 5.079,76 13.324,05 31/01/2023
596 541000 CRISTIANE COELHO ALVES OFICIAL DO MP ITABIRA - COMARCA; ITABIRA-PJ-03PJ 6.694,66 669,47 0,00 0,00 0,00 0,00 907,70 7.802,30 16.074,13 959,93 839,66 0,00 0,00 1.799,59 14.274,54 31/01/2023
597 441700 CRISTIANE CORRADO DE ANDRADE ANALISTA DO MP BELO HORIZONTE - COMARCA; DIRETORIA DE SISTEMAS DE INFORMACAO 16.169,47 3.233,89 3.585,64 0,00 0,00 0,00 1.475,29 7.428,36 31.892,65 2.885,49 4.659,11 0,00 0,00 7.544,60 24.348,05 31/01/2023
598 375100 CRISTIANE DAS DORES ERCIO DE LIMA OFICIAL DO MP GOVERNADOR VALADARES - COMARCA; GOVERNADOR VALADARES-PJ-12PJ 10.325,15 2.065,03 0,00 0,00 0,00 0,00 1.047,27 7.858,29 21.295,74 1.763,38 2.053,01 0,00 0,00 3.816,39 17.479,35 31/01/2023
599 178800 CRISTIANE DE LIMA HOSKEN OFICIAL DO MP BELO HORIZONTE - COMARCA; BH-14PJ DEFESA CONSUMIDOR-GAB 110PJ 19.037,29 7.614,92 0,00 0,00 0,00 0,00 1.439,03 1.911,00 30.002,24 4.045,30 5.295,40 0,00 0,00 9.340,70 20.661,54 31/01/2023
600 494000 CRISTIANE DE MELO MARQUEZ OLIVEIRA ANALISTA DO MP UBERLÂNDIA - COMARCA; UBERLANDIA-PJ-06PJ 13.776,02 2.755,20 0,00 0,00 0,00 0,00 1.375,78 8.747,54 26.654,54 2.425,94 3.009,59 0,00 0,00 5.435,53 21.219,01 31/01/2023
601 266100 CRISTIANE DE OLIVEIRA CASTRO OFICIAL DO MP BELO HORIZONTE - COMARCA; BH-14PJ DEFESA CONSUMIDOR-SECRETARIA 15.659,55 6.263,82 0,00 0,00 0,00 0,00 2.580,72 1.911,00 26.415,09 3.288,69 4.585,40 0,00 0,00 7.874,09 18.541,00 31/01/2023
602 329500 CRISTIANE DOS REIS SILVA OFICIAL DO MP ARAXÁ - COMARCA; ARAXA-PJ-04PJ 11.008,33 3.302,50 0,00 0,00 0,00 0,00 1.293,09 7.635,33 23.239,25 2.070,68 2.392,41 0,00 0,00 4.463,09 18.776,16 31/01/2023
603 301600 CRISTIANE GODINHO PIRES ANALISTA DO MP BETIM - COMARCA; BETIM-PJ-06PJ 20.574,59 6.172,38 0,00 0,00 0,00 0,00 1.858,26 7.260,39 35.865,62 4.060,46 5.369,43 0,00 0,00 9.429,89 26.435,73 31/01/2023
604 406100 CRISTIANE GONCALVES CHAVES ANALISTA DO MP BELO HORIZONTE - COMARCA; BH-14PJ DEFESA CONSUMIDOR-GAB 112PJ 16.695,70 5.008,71 0,00 0,00 0,00 0,00 991,01 1.911,00 24.606,42 3.253,65 4.204,60 0,00 0,00 7.458,25 17.148,17 31/01/2023
605 487600 CRISTIANE LOPES DE OLIVEIRA OFICIAL DO MP DIVINÓPOLIS - COMARCA; DIVINOPOLIS-PJ-03PJ 7.857,77 1.571,55 0,00 0,00 0,00 0,00 420,96 1.911,00 11.761,28 1.289,64 1.369,05 0,00 0,00 2.658,69 9.102,59 31/01/2023
606 502500 CRISTIANE MACIEL DE OLIVEIRA GOMES ANALISTA DO MP JUIZ DE FORA - COMARCA; JUIZ DE FORA-PJ-02PJ 11.008,33 2.201,67 0,00 0,00 0,00 0,00 1.211,89 8.608,70 23.030,59 1.894,55 2.242,39 0,00 0,00 4.136,94 18.893,65 31/01/2023
607 285500 CRISTIANE MAGALHAES LOURENCO ANALISTA DO MP BELO HORIZONTE - COMARCA; CENTRAL DE APOIO TECNICO-SETOR CONTABIL 20.574,59 6.172,38 0,00 0,00 0,00 0,00 1.881,50 7.260,39 35.888,86 4.060,46 5.317,29 0,00 0,00 9.377,75 26.511,11 31/01/2023
608 536500 CRISTIANE MICHELE DE SOUZA ANALISTA DO MP BARÃO DE COCAIS - COMARCA; BARAO DE COCAIS-PJ-UNPJ 11.008,33 1.100,83 0,00 0,00 0,00 0,00 519,91 1.911,00 14.540,07 1.718,41 1.883,82 0,00 0,00 3.602,23 10.937,84 31/01/2023
609 346600 CRISTIANE NOGUEIRA ANDRADE ANALISTA DO MP BELO HORIZONTE - COMARCA; CENTRAL DE APOIO TECNICO-SETOR CONTABIL 19.037,29 5.711,19 0,00 0,00 0,00 0,00 1.272,76 1.911,00 27.932,24 3.740,71 4.907,78 0,00 0,00 8.648,49 19.283,75 31/01/2023
610 234000 CRISTIANE OLIVEIRA TOSTES OFICIAL DO MP JUIZ DE FORA - COMARCA; JUIZ DE FORA-PJ-08PJ 16.695,70 5.008,71 0,00 0,00 0,00 0,00 1.087,54 2.796,30 25.588,25 3.253,65 4.204,60 0,00 0,00 7.458,25 18.130,00 31/01/2023
611 445800 CRISTIANE ORZIL COSTA OFICIAL DO MP SANTA LUZIA - COMARCA; SANTA LUZIA-PJ-05PJ 8.113,66 1.622,73 0,00 0,00 0,00 0,00 1.143,70 8.638,13 19.518,22 1.338,77 1.439,99 0,00 0,00 2.778,76 16.739,46 31/01/2023
612 616100 CRISTIANE PAES RODRIGUES MARCICANO ANALISTA DO MP CATAGUASES - COMARCA; CATAGUASES-PJ-05PJ 9.378,86 937,89 0,00 0,00 0,00 0,00 1.130,09 8.573,68 20.020,52 1.431,63 1.574,05 0,00 0,00 3.005,68 17.014,84 31/01/2023
613 612300 CRISTIANE RIBEIRO DOS REIS ARCANJO OFICIAL DO MP BELO HORIZONTE - COMARCA; DIRETORIA DE PAGAMENTO DE PESSOAL-DPAG 6.694,66 669,47 0,00 0,00 0,00 0,00 340,36 0,00 7.704,49 1.544,86 626,66 0,00 0,00 2.171,52 5.532,97 31/01/2023
614 257700 CRISTIANE RODRIGUES PAES NUNES ANALISTA DO MP BELO HORIZONTE - COMARCA; BH-22PJ PES COM DEF E IDOSOS-ORIENTACAO PSIC 20.574,59 6.172,38 0,00 0,00 0,00 0,00 1.785,71 8.145,69 36.678,37 4.060,46 5.317,29 0,00 0,00 9.377,75 27.300,62 31/01/2023
615 510800 CRISTIANE SANTOS FERNANDES ORNELES ANALISTA DO MP BELO HORIZONTE - COMARCA; BH-03PJ EMPRESARIAL-SECRETARIA 11.008,33 2.201,67 0,00 0,00 0,00 0,00 1.198,57 7.723,40 22.131,97 1.894,55 2.242,39 0,00 0,00 4.136,94 17.995,03 31/01/2023
616 535701 CRISTIANE SANTOS MIRANDA ANALISTA DO MP CONTAGEM - COMARCA; CONTAGEM-PJ-03PJ 9.223,00 922,30 0,00 0,00 0,00 0,00 495,51 1.911,00 12.551,81 1.404,20 1.534,44 0,00 0,00 2.938,64 9.613,17 31/01/2023
617 536200 CRISTIANO DE OLIVEIRA ANALISTA DO MP CONCEIÇÃO DO MATO DENTRO - COMARCA; CONCEICAO DO MATO DENTRO-PJ-UNPJ 11.008,33 1.100,83 0,00 0,00 0,00 0,00 1.128,31 9.494,00 22.731,47 1.718,41 1.935,96 0,00 0,00 3.654,37 19.077,10 31/01/2023
618 477400 CRISTIANO SOARES ELEUTERIO ANALISTA DO MP BELO HORIZONTE - COMARCA; GABINETE DE PROCURADOR DE JUSTIÇA - SALA 812 13.776,02 2.755,20 0,00 0,00 0,00 0,00 1.424,25 7.862,24 25.817,71 2.425,94 3.009,59 0,00 0,00 5.435,53 20.382,18 31/01/2023
619 449400 CRISTIANO TEIXEIRA RODRIGUES LANA ANALISTA DO MP BELO HORIZONTE - COMARCA; BH-18PJ VIOLENCIA DOMESTICA-SECRETARIA 12.118,97 2.423,79 0,00 0,00 0,00 0,00 1.358,35 7.728,10 23.629,21 2.107,79 2.550,26 0,00 0,00 4.658,05 18.971,16 31/01/2023
620 239400 CRISTINA DE FATIMA CRUZ E SILVA OFICIAL DO MP MONTE SANTO DE MINAS - COMARCA; MONTE SANTO DE MINAS-PJ-SECRETARIA 15.659,55 4.697,87 0,00 0,00 0,00 0,00 823,23 1.911,00 23.091,65 3.038,14 3.893,44 0,00 0,00 6.931,58 16.160,07 31/01/2023
621 544000 CRISTINA DE OLIVEIRA TERRA ANALISTA DO MP BELO HORIZONTE - COMARCA; BH-18PJ VIOLENCIA DOMESTICA-SECRETARIA 11.008,33 1.100,83 0,00 0,00 0,00 0,00 608,60 1.911,00 14.628,76 1.718,41 1.988,10 0,00 0,00 3.706,51 10.922,25 31/01/2023
622 356800 CRISTINA DE PINHO BARROSO OFICIAL DO MP SABINÓPOLIS - COMARCA; SABINOPOLIS-PJ-UNPJ 9.378,86 2.813,66 0,00 0,00 0,00 0,00 602,04 2.796,30 15.590,86 1.731,75 1.903,08 0,00 0,00 3.634,83 11.956,03 31/01/2023
623 649500 CRISTINA DO DIVINO ESPIRITO SANTOS OFICIAL DO MP DIVINÓPOLIS - COMARCA; DIVINOPOLIS-PJ-12PJ 5.889,39 588,94 0,00 0,00 0,00 0,00 872,58 7.871,06 15.221,97 824,08 685,56 0,00 0,00 1.509,64 13.712,33 31/01/2023
624 727100 CRISTINA DORNELLES CLARET ASSESSOR ADMINISTRATIVO III BELO HORIZONTE - COMARCA; CAO-MEIO AMBIENTE 0,00 0,00 9.684,23 0,00 0,00 0,00 0,00 1.911,00 11.595,23 877,22 1.919,14 0,00 0,00 2.796,36 8.798,87 31/01/2023
625 348201 CRISTINA MARIA DA SILVA ANALISTA DO MP ARAXÁ - COMARCA; ARAXA-PJ-06PJ 11.008,33 2.201,67 0,00 0,00 0,00 0,00 1.088,83 8.080,30 22.379,13 1.894,55 2.242,39 0,00 0,00 4.136,94 18.242,19 31/01/2023
626 434900 CRISTINA MELO DE MADUREIRA ANALISTA DO MP BELO HORIZONTE - COMARCA; BH-07PJ 01 TRIBUNAL JURI-SECRETARIA 16.169,47 3.233,89 0,00 0,00 0,00 0,00 901,95 1.911,00 22.216,31 2.885,49 3.673,05 0,00 0,00 6.558,54 15.657,77 31/01/2023
627 307700 CRISTINA TEIXEIRA MARQUES OFICIAL DO MP BELO HORIZONTE - COMARCA; CENTRAL DE APOIO TECNICO-SETOR CONTABIL 11.008,33 3.302,50 0,00 0,00 0,00 0,00 1.232,78 7.635,33 23.178,94 2.070,68 2.496,68 0,00 0,00 4.567,36 18.611,58 31/01/2023
628 265300 CRISTOVAO SANCHES DE MEDEIROS ANALISTA DO MP BELO HORIZONTE - COMARCA; DIRETORIA DE CONTABILIDADE 19.791,01 5.937,30 0,00 0,00 0,00 0,00 1.237,84 1.911,00 28.877,15 3.897,48 5.134,12 0,00 0,00 9.031,60 19.845,55 31/01/2023
629 349800 CROZEIR LUIZ DA SILVA OFICIAL DO MP UNAÍ - COMARCA; UNAI-PJ-SECRETARIA 11.008,33 3.302,50 0,00 0,00 0,00 0,00 1.220,82 7.635,33 23.166,98 2.070,68 2.444,54 0,00 0,00 4.515,22 18.651,76 31/01/2023
630 490500 CYNTHIA CRISTINA DE SOUZA OLIVEIRA VALENTE ANALISTA DO MP BELO HORIZONTE - COMARCA; BH-09PJ AUDITORIA MILITAR-SECRETARIA 11.008,33 2.201,67 0,00 0,00 0,00 0,00 569,57 1.911,00 15.690,57 1.894,55 2.242,39 0,00 0,00 4.136,94 11.553,63 31/01/2023
631 389800 CYNTHIA GARIGLIO DOS SANTOS OFICIAL DO MP PERDIZES - COMARCA; PERDIZES-PJ-SECRETARIA 9.684,23 1.936,85 0,00 0,00 0,00 0,00 682,71 1.911,00 14.214,79 1.640,32 1.718,94 0,00 0,00 3.359,26 10.855,53 31/01/2023
632 335101 CYNTHIA GONTIJO D ASSUNCAO ANALISTA DO MP BELO HORIZONTE - COMARCA; FEPDC-SECRETARIA EXECUTIVA 11.008,33 2.201,67 3.585,64 0,00 0,00 0,00 590,76 2.796,30 20.182,70 1.894,55 3.228,44 0,00 0,00 5.122,99 15.059,71 31/01/2023
633 269700 CYNTIA ROCHA CAVALCANTI OFICIAL DO MP UBERLÂNDIA - COMARCA; UBERLANDIA-PJ-06PJ 15.659,55 4.697,87 0,00 0,00 0,00 0,00 1.527,00 8.496,38 30.380,80 3.038,14 3.893,44 0,00 0,00 6.931,58 23.449,22 31/01/2023
634 278000 DAIRTON LOPES MARTINS FILHO COORDENADOR II BELO HORIZONTE - COMARCA; DIRETORIA DE SISTEMAS DE INFORMACAO 18.312,36 5.493,71 0,00 0,00 0,00 0,00 1.533,84 7.624,46 32.964,37 2.070,68 5.107,87 0,00 0,00 7.178,55 25.785,82 31/01/2023
635 392700 DALIANA CHAVES IBRAIM MARINHO OFICIAL DO MP ITAÚNA - COMARCA; ITAUNA-PJ-04PJ 8.377,76 1.675,55 0,00 0,00 0,00 0,00 528,60 1.911,00 12.492,91 1.389,48 1.513,19 0,00 0,00 2.902,67 9.590,24 31/01/2023
636 558101 DALLEY TASSIA SILVA ANALISTA DO MP MORADA NOVA DE MINAS - COMARCA; MORADA NOVA DE MINAS-PJ-UNPJ 10.325,15 1.032,52 0,00 0,00 0,00 0,00 514,66 2.796,30 14.668,63 1.598,18 1.710,23 0,00 0,00 3.308,41 11.360,22 31/01/2023
637 476700 DALTON DAUD ANALISTA DO MP ARAGUARI - COMARCA; ARAGUARI-PJ-05PJ 11.008,33 2.201,67 0,00 0,00 0,00 0,00 1.172,31 7.723,40 22.105,71 1.894,55 2.138,11 0,00 0,00 4.032,66 18.073,05 31/01/2023
638 426900 DANIEL ALVES DA SILVA OFICIAL DO MP BELO HORIZONTE - COMARCA; DIVISAO TRANSPORTES 6.694,66 1.338,93 0,00 0,00 0,00 0,00 428,04 1.911,00 10.372,63 1.066,32 942,36 0,00 0,00 2.008,68 8.363,95 31/01/2023
639 122000 DANIEL ANTONIO VIEIRA OFICIAL DO MP ENTRE-RIOS DE MINAS - COMARCA; ENTRE RIOS DE MINAS-PJ-SECRETARIA 11.008,33 8.806,67 0,00 0,00 0,00 0,00 867,14 1.911,00 22.593,14 2.951,35 3.559,59 0,00 0,00 6.510,94 16.082,20 31/01/2023
640 714000 DANIEL FERREIRA CAMARA ASSESSOR PROMOTOR JUSTICA RIBEIRÃO DAS NEVES - COMARCA; RIBEIRAO DAS NEVES-PJ-12PJ 0,00 0,00 7.857,77 0,00 0,00 0,00 141,40 1.911,00 9.910,17 877,22 1.416,87 0,00 0,00 2.294,09 7.616,08 31/01/2023
641 411000 DANIEL FERREIRA DA SILVA ANALISTA DO MP GOVERNADOR VALADARES - COMARCA; GOVERNADOR VALADARES-PJ-15PJ 15.659,55 4.697,87 0,00 0,00 0,00 0,00 984,81 4.124,25 25.466,48 3.038,14 3.684,89 0,00 0,00 6.723,03 18.743,45 31/01/2023
642 703500 DANIEL FILIPE DE DEUS SOARES ASSESSOR PROMOTOR JUSTICA ITABIRITO - COMARCA; ITABIRITO-PJ-02PJ 0,00 0,00 7.857,77 0,00 0,00 0,00 287,79 1.911,00 10.056,56 877,22 1.416,87 0,00 0,00 2.294,09 7.762,47 31/01/2023
643 309000 DANIEL GOMES DOS SANTOS ANALISTA DO MP POÇOS DE CALDAS - COMARCA; POCOS DE CALDAS-PJ-05PJ 20.574,59 6.172,38 0,00 0,00 0,00 0,00 1.877,38 7.260,39 35.884,74 4.060,46 5.369,43 0,00 0,00 9.429,89 26.454,85 31/01/2023
644 554500 DANIEL GOMES PEREIRA OFICIAL DO MP NANUQUE - COMARCA; NANUQUE-PJ-02PJ 6.694,66 669,47 0,00 0,00 0,00 0,00 406,69 1.911,00 9.681,82 959,93 891,80 0,00 0,00 1.851,73 7.830,09 31/01/2023
645 453000 DANIEL GONCALVES PEREIRA ANALISTA DO MP UNAÍ - COMARCA; UNAI-PJ-02PJ 11.008,33 2.201,67 0,00 0,00 0,00 0,00 1.209,42 9.936,65 24.356,07 1.894,55 2.242,39 0,00 0,00 4.136,94 20.219,13 31/01/2023
646 495500 DANIEL GUIMARAES CABRAL OFICIAL DO MP BELO HORIZONTE - COMARCA; BH-17PJ PATRIMONIO PUBLICO-SECRETARIA 8.932,15 1.786,43 0,00 0,00 0,00 0,00 1.140,72 8.369,96 20.229,26 1.495,92 1.666,87 0,00 0,00 3.162,79 17.066,47 31/01/2023
647 442900 DANIEL GUIMARAES GONCALVES ANALISTA DO MP UBERLÂNDIA - COMARCA; UBERLANDIA-PJ-03PJ 15.659,55 3.131,91 0,00 0,00 0,00 0,00 1.424,74 7.172,61 27.388,81 982,16 3.619,93 0,00 0,00 4.602,09 22.786,72 31/01/2023
648 655900 DANIEL LUIZ DA SILVA ASSESSOR ADMINISTRATIVO II BELO HORIZONTE - COMARCA; DIV FISCAL ADM CONT TERCEIRIZACAO 0,00 0,00 6.694,66 0,00 0,00 0,00 774,61 7.802,30 15.271,57 877,22 1.097,01 0,00 0,00 1.974,23 13.297,34 31/01/2023
649 464600 DANIEL PIACENTINI STIVANIN ANALISTA DO MP ANDRADAS - COMARCA; ANDRADAS-PJ-02PJ 11.008,33 2.201,67 0,00 0,00 4.403,33 0,00 1.101,21 7.723,40 26.437,94 1.894,55 3.453,30 0,00 0,00 5.347,85 21.090,09 31/01/2023
650 417000 DANIEL QUEIROZ FERREIRA ANALISTA DO MP PASSOS - COMARCA; PASSOS-PJ-06PJ 15.659,55 3.131,91 0,00 0,00 0,00 0,00 1.319,53 8.057,91 28.168,90 982,16 3.740,01 0,00 0,00 4.722,17 23.446,73 31/01/2023
651 396700 DANIEL SILVA CARNEVALLI SUPERINTENDENTE BELO HORIZONTE - COMARCA; SUPERINTENDENCIA DE TECNOLOGIA DA INFORMACAO 24.982,93 4.996,59 0,00 0,00 0,00 0,00 1.734,85 8.792,20 40.506,57 2.986,52 6.523,56 0,00 0,00 9.510,08 30.996,49 31/01/2023
652 489300 DANIEL TABOZA ROCHA ANALISTA DO MP IPATINGA - COMARCA; IPATINGA-PJ-08PJ 11.008,33 2.201,67 0,00 0,00 0,00 0,00 559,01 2.796,30 16.565,31 982,16 2.282,75 0,00 0,00 3.264,91 13.300,40 31/01/2023
653 414100 DANIEL TARDELI VALADAO ANALISTA DO MP TRÊS CORACOES - COMARCA; TRES CORACOES-PJ-02PJ 15.659,55 3.131,91 0,00 0,00 0,00 0,00 863,25 3.681,60 23.336,31 982,16 3.507,30 0,00 0,00 4.489,46 18.846,85 31/01/2023
654 731800 DANIEL VASCONCELOS ARAUJO SILVA ASSESSOR ADMINISTRATIVO IV BELO HORIZONTE - COMARCA; DIRETORIA DE REDES E BANCOS DE DADOS 0,00 0,00 12.920,95 0,00 0,00 0,00 0,00 1.911,00 14.831,95 877,22 2.809,24 0,00 0,00 3.686,46 11.145,49 31/01/2023
655 446601 DANIEL VIEIRA BUENO ANALISTA DO MP SÃO DOMINGOS DO PRATA - COMARCA; SAO DOMINGOS DO PRATA-PJ-UNPJ 11.008,33 1.100,83 0,00 0,00 0,00 0,00 502,83 2.796,30 15.408,29 1.718,41 1.935,96 0,00 0,00 3.654,37 11.753,92 31/01/2023
656 253200 DANIELA BATISTA LIMA BARBOSA ASSESSOR ADMINISTRATIVO II BELO HORIZONTE - COMARCA; CENTRAL DE APOIO TECN-SETOR DE MEIO AMBIENTE 0,00 2.008,40 6.694,66 0,00 0,00 0,00 327,96 1.911,00 10.942,02 877,22 1.649,32 0,00 0,00 2.526,54 8.415,48 31/01/2023
657 505800 DANIELA BORGES DE MATTOS RESENDE ANALISTA DO MP JUIZ DE FORA - COMARCA; JUIZ DE FORA-PJ-20PJ 11.008,33 2.201,67 0,00 0,00 0,00 0,00 1.218,16 7.723,40 22.151,56 1.894,55 2.242,39 0,00 0,00 4.136,94 18.014,62 31/01/2023
658 478000 DANIELA CARVALHO SOARES ANALISTA DO MP SÃO JOÃO DEL REI - COMARCA; SAO JOAO DEL REI-PJ-01PJ 11.008,33 2.201,67 0,00 0,00 0,00 0,00 580,01 1.911,00 15.701,01 1.894,55 2.242,39 0,00 0,00 4.136,94 11.564,07 31/01/2023
659 275900 DANIELA CHAGAS SODRE ANALISTA DO MP BELO HORIZONTE - COMARCA; CENTRAL DE APOIO TECNICO-SETOR CONTABIL 20.574,59 6.172,38 0,00 0,00 0,00 0,00 1.345,22 1.911,00 30.003,19 4.060,46 5.317,29 0,00 0,00 9.377,75 20.625,44 31/01/2023
660 234301 DANIELA CRUZ SOARES ANALISTA DO MP BELO HORIZONTE - COMARCA; LABORATORIO TECNOLOGIA INTELIGENCIA 20.574,59 6.172,38 0,00 0,00 0,00 0,00 1.914,40 7.260,39 35.921,76 4.060,46 5.369,43 0,00 0,00 9.429,89 26.491,87 31/01/2023
661 638000 DANIELA DE ALMEIDA BATISTA ANALISTA DO MP ANDRELÂNDIA - COMARCA; ANDRELANDIA-PJ-UNPJ 9.999,62 999,96 0,00 0,00 0,00 0,00 1.021,90 8.516,08 20.537,56 982,16 1.885,43 0,00 0,00 2.867,59 17.669,97 31/01/2023
662 301000 DANIELA DE ALMEIDA E OLIVEIRA ANALISTA DO MP BELO HORIZONTE - COMARCA; DIRETORIA DE SISTEMAS DE INFORMACAO 20.574,59 6.172,38 0,00 0,00 0,00 0,00 1.268,13 1.911,00 29.926,10 4.060,46 5.369,43 0,00 0,00 9.429,89 20.496,21 31/01/2023
663 296000 DANIELA DE AZEVEDO SILVA ANALISTA DO MP BRASÓPOLIS - COMARCA; BRASOPOLIS-PJ-UNPJ 20.574,59 8.229,84 0,00 0,00 0,00 0,00 1.442,01 1.911,00 32.157,44 4.389,66 5.844,70 0,00 0,00 10.234,36 21.923,08 31/01/2023
664 453500 DANIELA DE CASTRO SOUSA BARBOSA ANALISTA DO MP BELO HORIZONTE - COMARCA; BH-08PJ JUIZADO ESPECIAL-SECRETARIA 12.118,97 2.423,79 0,00 0,00 0,00 0,00 1.337,54 7.728,10 23.608,40 2.107,79 2.550,26 0,00 0,00 4.658,05 18.950,35 31/01/2023
665 506000 DANIELA DE OLIVEIRA CAVALIERI ANALISTA DO MP BELO HORIZONTE - COMARCA; BH-14PJ DEFESA CONSUMIDOR-GAB 005PJ 11.008,33 2.201,67 0,00 0,00 0,00 0,00 645,99 1.911,00 15.766,99 1.894,55 2.242,39 0,00 0,00 4.136,94 11.630,05 31/01/2023
666 546200 DANIELA DE VILHENA LEMES GONCALVES OFICIAL DO MP TRÊS CORACOES - COMARCA; TRES CORACOES-PJ-05PJ 6.694,66 669,47 0,00 0,00 0,00 0,00 361,88 1.911,00 9.637,01 959,93 787,52 0,00 0,00 1.747,45 7.889,56 31/01/2023
667 356400 DANIELA LEAL FERRAZ ANALISTA DO MP MONTES CLAROS - COMARCA; COORD REG PJ DEF EDUC DIR CRIANCA ADOL NORTE 18.312,36 5.493,71 0,00 0,00 0,00 0,00 1.635,20 7.624,46 33.065,73 3.589,92 4.690,08 0,00 0,00 8.280,00 24.785,73 31/01/2023
668 501000 DANIELA LOURENCO SANTOS DA SILVA GUIMARAES ANALISTA DO MP BELO HORIZONTE - COMARCA; BH-12PJ JUIZO CRIMINAL-GAB 095PJ 11.008,33 2.201,67 0,00 0,00 0,00 0,00 1.164,43 7.723,40 22.097,83 1.894,55 2.190,25 0,00 0,00 4.084,80 18.013,03 31/01/2023
669 195801 DANIELA MARIA DE OLIVEIRA QUEIROZ ANALISTA DO MP ARAGUARI - COMARCA; ARAGUARI-PJ-06PJ 16.169,47 6.467,79 0,00 0,00 0,00 0,00 1.121,68 1.911,00 25.669,94 3.402,91 4.420,09 0,00 0,00 7.823,00 17.846,94 31/01/2023
670 511400 DANIELA MARIA LARA DE OLIVEIRA ANALISTA DO MP BOA ESPERANÇA - COMARCA; BOA ESPERANCA-PJ-02PJ 11.008,33 2.201,67 0,00 0,00 0,00 0,00 1.229,80 8.608,70 23.048,50 1.894,55 2.190,25 0,00 0,00 4.084,80 18.963,70 31/01/2023
671 252101 DANIELA PAULA ALVES PENA ANALISTA DO MP CONTAGEM - COMARCA; CONTAGEM-PJ-APO TECNICO 16.695,70 6.678,28 0,00 0,00 0,00 0,00 1.634,53 7.520,76 32.529,27 3.520,79 4.590,27 0,00 0,00 8.111,06 24.418,21 31/01/2023
672 604700 DANIELA PEIXOTO NOGUEIRA COORDENADOR II BELO HORIZONTE - COMARCA; DIRET DE FORMACAO, APERFEIC. E POS-GRADUACAO 18.312,36 1.831,24 0,00 0,00 0,00 0,00 626,62 2.796,30 23.566,52 959,93 4.394,75 0,00 0,00 5.354,68 18.211,84 31/01/2023
673 662000 DANIELA RIBAS DE AVILA ASSESSOR ADMINISTRATIVO III BELO HORIZONTE - COMARCA; CENTRO AUTOCOMPOSICAO DE CONFLITOS 0,00 0,00 9.684,23 0,00 0,00 0,00 413,88 1.911,00 12.009,11 877,22 1.919,14 0,00 0,00 2.796,36 9.212,75 31/01/2023
674 462000 DANIELA SOUSA GOMES DO AMARAL ANALISTA DO MP BETIM - COMARCA; BETIM-PJ-04PJ 13.341,69 2.668,34 0,00 0,00 0,00 0,00 1.366,52 7.674,61 25.051,16 2.342,55 2.889,20 0,00 0,00 5.231,75 19.819,41 31/01/2023
675 427000 DANIELA TEIXEIRA DINIZ ANDRADE ANALISTA DO MP BELO HORIZONTE - COMARCA; DIRETORIA DE PROJETOS DE EDIFICACOES 11.736,91 2.347,38 3.585,64 0,00 0,00 0,00 652,94 1.911,00 20.233,87 2.034,43 3.378,27 0,00 860,98 6.273,68 13.960,19 31/01/2023
676 337200 DANIELA TOLEDO SENIUK ANALISTA DO MP BELO HORIZONTE - COMARCA; GABINETE DE PROCURADOR DE JUSTIÇA - SALA 412 20.574,59 6.172,38 0,00 0,00 0,00 0,00 1.047,43 1.911,00 29.705,40 4.060,46 5.369,43 0,00 0,00 9.429,89 20.275,51 31/01/2023
677 605600 DANIELE ALZIRA SILVA CABRAL MOREIRA OFICIAL DO MP BELO HORIZONTE - COMARCA; BH-10PJ EXECUÇÃO PENAL-SECRETARIA 6.694,66 669,47 0,00 0,00 0,00 0,00 326,34 1.911,00 9.601,47 959,93 891,80 0,00 0,00 1.851,73 7.749,74 31/01/2023
678 195500 DANIELE CHAVES FONSECA OFICIAL DO MP BELO HORIZONTE - COMARCA; EXTINTA-CGMP-DIV APOIO FISC ORIENT FUNCIONAL 18.312,36 7.324,94 0,00 0,00 0,00 0,00 1.824,87 7.038,46 34.500,63 3.882,92 5.113,09 0,00 0,00 8.996,01 25.504,62 31/01/2023
679 323400 DANIELE MEGALE SANTINI OFICIAL DO MP BELO HORIZONTE - COMARCA; EXTINTA-CGMP-DIV APOIO FISC ORIENT FUNCIONAL 12.118,97 3.635,69 0,00 0,00 0,00 0,00 1.426,22 7.582,68 24.763,56 2.301,69 2.778,07 0,00 0,00 5.079,76 19.683,80 31/01/2023
680 357900 DANIELE REJANE PINTO VERSIEUX OFICIAL DO MP PEDRO LEOPOLDO - COMARCA; PEDRO LEOPOLDO-PJ-03PJ 11.008,33 3.302,50 0,00 0,00 0,00 0,00 1.319,33 7.635,33 23.265,49 2.070,68 2.496,68 0,00 0,00 4.567,36 18.698,13 31/01/2023
681 389500 DANIELE VASCONCELOS AMORIM OFICIAL DO MP SÃO SEBASTIÃO DO PARAÍSO - COMARCA; SAO SEBASTIAO DO PARAISO-PJ-04PJ 11.008,33 2.201,67 0,00 0,00 0,00 0,00 531,74 1.911,00 15.652,74 1.894,55 2.242,39 0,00 0,00 4.136,94 11.515,80 31/01/2023
682 629700 DANIELLA BASTOS MARTINS BICALHO OFICIAL DO MP GOVERNADOR VALADARES - COMARCA; GOVERNADOR VALADARES-PJ-16PJ 6.694,66 669,47 0,00 0,00 0,00 0,00 946,46 7.802,30 16.112,89 959,93 891,80 0,00 0,00 1.851,73 14.261,16 31/01/2023
683 725500 DANIELLE CAMILE OLIVEIRA FONSECA ASSESSOR PROCURADOR JUSTICA BELO HORIZONTE - COMARCA; GABINETE DE PROCURADOR DE JUSTIÇA - SALA 501 0,00 0,00 7.857,77 0,00 0,00 0,00 0,00 1.911,00 9.768,77 877,22 1.416,87 0,00 0,00 2.294,09 7.474,68 31/01/2023
684 265000 DANIELLE CASTANHEIRA SCALABRINI OFICIAL DO MP BELO HORIZONTE - COMARCA; JUNTA RECURSAL DO PROCON ESTADUAL 11.008,33 3.302,50 0,00 0,00 0,00 0,00 677,40 1.911,00 16.899,23 2.070,68 2.444,54 0,00 0,00 4.515,22 12.384,01 31/01/2023
685 490100 DANIELLE DE AVILA SILVA LOPES ANALISTA DO MP BELO HORIZONTE - COMARCA; PROC. JUSTICA DIR. DIFUSOS E COLETIVOS-SEC 11.008,33 3.302,50 0,00 0,00 0,00 0,00 674,47 2.796,30 17.781,60 2.070,68 2.496,68 0,00 0,00 4.567,36 13.214,24 31/01/2023
686 711100 DANIELLE DOMINGOS LOPES DE MELO ASSESSOR PROCURADOR JUSTICA BELO HORIZONTE - COMARCA; GABINETE DE PROCURADOR DE JUSTIÇA - SALA 703 0,00 0,00 7.857,77 0,00 0,00 0,00 223,51 1.911,00 9.992,28 877,22 1.416,87 0,00 0,00 2.294,09 7.698,19 31/01/2023
687 549600 DANIELLE GOMES LOPES RODRIGUES OFICIAL DO MP VESPASIANO - COMARCA; VESPASIANO-PJ-02PJ 6.694,66 669,47 0,00 0,00 0,00 0,00 368,06 1.911,00 9.643,19 959,93 891,80 0,00 0,00 1.851,73 7.791,46 31/01/2023
688 613000 DANIELLE SILVA OLIVEIRA FRANKLIN ASSESSOR ADMINISTRATIVO IV BELO HORIZONTE - COMARCA; DIRETORIA DE ORCAMENTO-DIOR/SPC 12.920,95 1.292,10 0,00 0,00 0,00 0,00 1.158,95 8.481,52 23.853,52 1.037,19 2.500,09 0,00 923,32 4.460,60 19.392,92 31/01/2023
689 722800 DANIELLE VALENTIM SOUZA ASSESSOR PROCURADOR JUSTICA BELO HORIZONTE - COMARCA; GABINETE DE PROCURADOR DE JUSTIÇA - SALA 606 0,00 0,00 7.857,77 0,00 0,00 0,00 0,00 1.911,00 9.768,77 877,22 1.416,87 0,00 0,00 2.294,09 7.474,68 31/01/2023
690 380800 DANILLO RIBEIRO ANTUNES ANALISTA DO MP MONTES CLAROS - COMARCA; MONTES CLAROS-PJ-SECRETARIA 16.695,70 3.339,14 0,00 0,00 0,00 0,00 2.563,00 1.911,00 24.508,84 2.986,52 4.201,29 0,00 0,00 7.187,81 17.321,03 31/01/2023
691 453700 DANILO BOTELHO DE CARVALHO SUPERINTENDENTE BELO HORIZONTE - COMARCA; SUPERINTENDENCIA DE FINANCAS 24.982,93 4.996,59 0,00 0,00 0,00 0,00 1.864,60 7.906,90 39.751,02 2.787,58 6.581,90 0,00 0,00 9.369,48 30.381,54 31/01/2023
692 391200 DANILO D'AVILA MENDES ANALISTA DO MP MONTES CLAROS - COMARCA; GAECO REGIONAL DE MONTES CLAROS 16.695,70 3.339,14 0,00 0,00 0,00 0,00 1.568,07 8.406,06 30.008,97 2.986,52 3.818,93 0,00 0,00 6.805,45 23.203,52 31/01/2023
693 710900 DANILO DE SOUZA RODRIGUES ASSESSOR PROMOTOR JUSTICA IPANEMA - COMARCA; IPANEMA-PJ-01PJ 0,00 0,00 7.857,77 0,00 0,00 0,00 782,67 7.882,91 16.523,35 877,22 1.416,87 0,00 0,00 2.294,09 14.229,26 31/01/2023
694 494900 DANILO GAVIAO AVELINO DE MELLO ANALISTA DO MP POUSO ALEGRE - COMARCA; GAECO REGIONAL DE POUSO ALEGRE 11.008,33 2.201,67 0,00 0,00 0,00 0,00 688,55 1.911,00 15.809,55 1.894,55 2.242,39 0,00 0,00 4.136,94 11.672,61 31/01/2023
695 604300 DANILO NASCIMENTO SALGADO ANALISTA DO MP JANAÚBA - COMARCA; JANAUBA-PJ-01PJ 11.008,33 1.100,83 0,00 0,00 0,00 0,00 1.039,64 6.754,66 19.903,46 1.718,41 1.988,10 0,00 0,00 3.706,51 16.196,95 31/01/2023
696 298300 DANUZA MONICA DE SOUZA DINIZ ANALISTA DO MP BELO HORIZONTE - COMARCA; CAO-FUNDACOES-ASSESSORIA JURIDICA 19.791,01 5.937,30 0,00 0,00 0,00 0,00 1.599,82 7.056,66 34.384,79 3.897,48 5.081,98 0,00 0,00 8.979,46 25.405,33 31/01/2023
697 398700 DARCY LUIZ MILEO GREGATTI OFICIAL DO MP LAMBARI - COMARCA; LAMBARI-PJ-SECRETARIA 10.661,25 2.132,25 0,00 0,00 0,00 0,00 670,48 1.911,00 15.374,98 1.827,91 2.146,18 0,00 0,00 3.974,09 11.400,89 31/01/2023
698 406200 DARIANA AUGUSTA DE TOLEDO PATROCINIO RUIZ COORDENADOR II BELO HORIZONTE - COMARCA; DIRETORIA GESTAO COMPRAS LICITACOES 18.312,36 3.662,47 0,00 0,00 0,00 0,00 1.335,84 8.070,26 31.380,93 1.894,55 4.634,12 0,00 0,00 6.528,67 24.852,26 31/01/2023
699 586901 DARIO VITORINO DE CARVALHO SILVA ASSESSOR ADM. ESPECIAL BELO HORIZONTE - COMARCA; DIRETORIA DE SEGURANCA 0,00 0,00 24.982,93 0,00 0,00 0,00 1.475,30 7.906,90 34.365,13 877,22 6.074,15 0,00 0,00 6.951,37 27.413,76 31/01/2023
700 305000 DARLI LEITE DE OLIVEIRA OFICIAL DO MP ARAÇUAÍ - COMARCA; ARACUAI-PJ-01PJ 6.694,66 2.008,40 0,00 0,00 0,00 0,00 437,14 1.911,00 11.051,20 1.173,44 1.044,87 0,00 0,00 2.218,31 8.832,89 31/01/2023
701 729400 DAVI PIMENTA ASSESSOR PROMOTOR JUSTICA CANDEIAS - COMARCA; CANDEIAS-PJ-UNPJ 0,00 0,00 7.857,77 0,00 0,00 0,00 0,00 1.911,00 9.768,77 877,22 1.416,87 0,00 0,00 2.294,09 7.474,68 31/01/2023
702 122200 DAVID RIBEIRO DOS SANTOS ANALISTA DO MP BORDA DA MATA - COMARCA; BORDA DA MATA-PJ-UNPJ 20.574,59 18.517,14 0,00 253,76 0,00 7.315,78 1.565,39 7.584,96 55.811,62 5.454,90 8.882,75 3.629,51 0,00 17.967,16 37.844,46 31/01/2023
703 389400 DAWSON CANEDO MARQUES OFICIAL DO MP TRÊS CORACOES - COMARCA; TRES CORACOES-PJ-01PJ 11.008,33 2.201,67 0,00 0,00 0,00 0,00 655,49 2.796,30 16.661,79 1.894,55 1.383,07 0,00 0,00 3.277,62 13.384,17 31/01/2023
704 537200 DAYANE TEIXEIRA DE OLIVEIRA CASELLI ANALISTA DO MP BELO HORIZONTE - COMARCA; ASSESS TECNICO-JUR JUNTO AS PROC. DE JUST 9.223,00 922,30 0,00 0,00 0,00 0,00 474,05 1.911,00 12.530,35 1.404,20 1.534,44 0,00 0,00 2.938,64 9.591,71 31/01/2023
705 256100 DAYSE ROSALY PEREIRA BATISTA OFICIAL DO MP BELO HORIZONTE - COMARCA; BH-08PJ JUIZADO ESPECIAL-SECRETARIA 11.008,33 3.302,50 0,00 0,00 0,00 0,00 1.175,98 7.635,33 23.122,14 2.070,68 2.496,68 0,00 0,00 4.567,36 18.554,78 31/01/2023
706 311901 DEBORA APARECIDA DA SILVA ASSESSOR ADMINISTRATIVO I BELO HORIZONTE - COMARCA; BH-23PJ CIVEL-SETOR ATEND PUB 0,00 0,00 4.345,58 0,00 0,00 0,00 144,21 1.911,00 6.400,79 877,22 451,01 0,00 0,00 1.328,23 5.072,56 31/01/2023
707 194301 DEBORA APARECIDA DOS SANTOS ANALISTA DO MP UBERLÂNDIA - COMARCA; UBERLANDIA-PJ-SEC FAMILIA 20.574,59 8.229,84 0,00 0,00 0,00 0,00 1.381,33 1.911,00 32.096,76 4.389,66 5.844,70 0,00 0,00 10.234,36 21.862,40 31/01/2023
708 518800 DEBORA CARVALHO FIORATTO COORDENADOR II BELO HORIZONTE - COMARCA; DIRETORIA MATERIAIS E SERVICOS 18.312,36 3.662,47 0,00 0,00 0,00 0,00 6.569,96 7.184,96 35.729,75 1.441,84 6.019,69 0,00 0,00 7.461,53 28.268,22 31/01/2023
709 444900 DEBORA CLAUDIA PEREIRA ALVES ANALISTA DO MP BELO HORIZONTE - COMARCA; BH-08PJ JUIZADO ESPECIAL-SECRETARIA 12.118,97 2.423,79 0,00 0,00 0,00 0,00 1.280,36 7.728,10 23.551,22 2.107,79 2.550,26 0,00 0,00 4.658,05 18.893,17 31/01/2023
710 617700 DEBORA COMANDUCI SCHREIDER ANALISTA DO MP BICAS - COMARCA; BICAS-PJ-UNPJ 10.325,15 1.032,52 0,00 0,00 0,00 0,00 542,43 1.911,00 13.811,10 1.598,18 1.762,36 0,00 0,00 3.360,54 10.450,56 31/01/2023
711 555700 DEBORA CRISTINA BUITRAGO PEREIRA ANALISTA DO MP BELO HORIZONTE - COMARCA; DIRETORIA GESTAO CONTRATOS CONVENIOS 11.008,33 1.100,83 3.585,64 0,00 0,00 0,00 523,99 2.796,30 19.015,09 1.718,41 2.974,15 0,00 0,00 4.692,56 14.322,53 31/01/2023
712 513100 DEBORA CRISTINA PEREIRA DE OLIVEIRA ANALISTA DO MP BELO HORIZONTE - COMARCA; BH-23PJ CIVEL-SETOR JURIDICO 12.118,97 2.423,79 0,00 0,00 0,00 0,00 1.218,05 9.056,05 24.816,86 2.107,79 2.550,26 0,00 0,00 4.658,05 20.158,81 31/01/2023
713 612100 DEBORA DUARTE SILVA DE SOUZA OFICIAL DO MP RIBEIRÃO DAS NEVES - COMARCA; RIBEIRAO DAS NEVES-PJ-06PJ 6.694,66 2.008,40 0,00 0,00 0,00 0,00 965,06 7.132,84 16.800,96 1.173,44 1.097,01 0,00 0,00 2.270,45 14.530,51 31/01/2023
714 717500 DEBORA ENDREFFY ORSI PARENZI ASSESSOR PROMOTOR JUSTICA MATEUS LEME - COMARCA; MATEUS LEME-PJ-01PJ 0,00 0,00 7.857,77 0,00 2.619,26 0,00 37,07 1.911,00 12.425,10 877,22 2.137,16 0,00 0,00 3.014,38 9.410,72 31/01/2023
715 539700 DEBORA SALES CARVALHO ANALISTA DO MP PATOS DE MINAS - COMARCA; COORD REG PJ DEF EDU DIR CRI ADO AL PAR NOROE 11.008,33 1.100,83 0,00 0,00 0,00 0,00 521,69 1.911,00 14.541,85 982,16 2.057,04 0,00 0,00 3.039,20 11.502,65 31/01/2023
716 424100 DEBORA SANTOS E ALVES ANALISTA DO MP JANUÁRIA - COMARCA; JANUARIA-PJ-01PJ 16.169,47 3.233,89 0,00 0,00 0,00 0,00 1.529,32 8.229,24 29.161,92 2.885,49 3.673,05 0,00 0,00 6.558,54 22.603,38 31/01/2023
717 426301 DEBORA SCUCATO MACHADO SOARES OFICIAL DO MP ITABIRA - COMARCA; ITABIRA-PJ-SECRETARIA 6.694,66 1.338,93 0,00 0,00 0,00 0,00 971,31 8.580,48 17.585,38 1.066,32 1.046,64 0,00 0,00 2.112,96 15.472,42 31/01/2023
718 678100 DEBORA SOUZA COSTA ASSESSOR PROMOTOR JUSTICA BOTELHOS - COMARCA; BOTELHOS-PJ-UNPJ 0,00 0,00 7.857,77 0,00 0,00 0,00 339,53 1.911,00 10.108,30 877,22 1.364,73 0,00 0,00 2.241,95 7.866,35 31/01/2023
719 550200 DEBORA TRINDADE LEITE ANALISTA DO MP MANHUAÇU - COMARCA; MANHUACU-PJ-05PJ 11.008,33 1.100,83 0,00 0,00 0,00 0,00 1.045,24 6.754,66 19.909,06 1.718,41 1.883,82 0,00 0,00 3.602,23 16.306,83 31/01/2023
720 438000 DEBORAH COSTA LAGE ANALISTA DO MP BELO HORIZONTE - COMARCA; PROC JUST ATUACAO TRIBUNAIS SUPERIORES-GAB006 16.169,47 3.233,89 0,00 0,00 0,00 0,00 988,10 1.911,00 22.302,46 2.885,49 3.673,05 0,00 0,00 6.558,54 15.743,92 31/01/2023
721 613700 DEISER MARIA FERREIRA ROSCOE OFICIAL DO MP BELO HORIZONTE - COMARCA; DIVISÃO DE EDUCAÇÃO PARA O CONSUMO 6.694,66 669,47 0,00 0,00 0,00 0,00 938,06 7.802,30 16.104,49 959,93 891,80 0,00 0,00 1.851,73 14.252,76 31/01/2023
722 551900 DEISY ROCHA DA SILVA ANALISTA DO MP CARMO DO PARANAÍBA - COMARCA; CARMO DO PARANAIBA-PJ-01PJ 11.008,33 1.100,83 0,00 0,00 0,00 0,00 559,83 1.911,00 14.579,99 1.718,41 1.935,96 0,00 0,00 3.654,37 10.925,62 31/01/2023
723 501900 DELI RAQUEL RODRIGUES ANALISTA DO MP ITUIUTABA - COMARCA; ITUIUTABA-PJ-04PJ 11.008,33 2.201,67 0,00 0,00 0,00 0,00 589,72 1.911,00 15.710,72 1.894,55 2.242,39 0,00 0,00 4.136,94 11.573,78 31/01/2023
724 378600 DELIANE LOPES VIEIRA BREIJAO ANALISTA DO MP JUIZ DE FORA - COMARCA; JUIZ DE FORA-PJ-14PJ 16.695,70 3.339,14 0,00 0,00 0,00 0,00 1.563,92 7.520,76 29.119,52 2.986,52 3.766,79 0,00 0,00 6.753,31 22.366,21 31/01/2023
725 730100 DELIENE FRACETE GUTIERREZ ASSESSOR ADMINISTRATIVO I TEÓFILO OTONI - COMARCA; COORD REG APOIO COM INC MOB SOC VALE MUCURI 0,00 0,00 4.345,58 0,00 0,00 0,00 0,00 1.911,00 6.256,58 621,17 521,42 0,00 0,00 1.142,59 5.113,99 31/01/2023
726 487700 DENIA FERREIRA MAIA SILVA OFICIAL DO MP TRÊS CORACOES - COMARCA; TRES CORACOES-PJ-04PJ 7.137,75 1.427,55 0,00 0,00 0,00 0,00 401,45 2.066,06 11.032,81 1.151,40 1.065,19 0,00 0,00 2.216,59 8.816,22 31/01/2023
727 726300 DENILZA RODRIGUES MORAES ASSESSOR ADMINISTRATIVO I BELO HORIZONTE - COMARCA; CENT DE ATENDIMENTO AS PROMOTORIAS DE JUSTICA 0,00 0,00 4.345,58 0,00 0,00 0,00 0,00 1.911,00 6.256,58 621,17 521,42 0,00 0,00 1.142,59 5.113,99 31/01/2023
728 424800 DENIS APARECIDO CAMPOS DELFINO ANALISTA DO MP LUZ - COMARCA; LUZ-PJ-UNPJ 15.659,55 3.131,91 0,00 0,00 0,00 0,00 1.412,30 7.172,61 27.376,37 2.787,58 3.323,16 0,00 0,00 6.110,74 21.265,63 31/01/2023
729 381400 DENISE ANGELICA MELLO DE PAULA OFICIAL DO MP BELO HORIZONTE - COMARCA; BH-18PJ DIREITOS HUMANOS-SECRETARIA 11.008,33 2.201,67 3.876,29 0,00 0,00 0,00 605,78 2.796,30 20.488,37 1.894,55 3.308,37 0,00 0,00 5.202,92 15.285,45 31/01/2023
730 702100 DENISE CANDIDO LIMA MACEDO KATOPODIS ASSESSOR PROCURADOR JUSTICA BELO HORIZONTE - COMARCA; GABINETE DE PROCURADOR DE JUSTIÇA - SALA 305 0,00 0,00 7.857,77 0,00 0,00 0,00 294,86 1.911,00 10.063,63 877,22 1.416,87 0,00 0,00 2.294,09 7.769,54 31/01/2023
731 196300 DENISE DE ALMEIDA VILELA FURTADO OFICIAL DO MP BELO HORIZONTE - COMARCA; CENTRAL DE APOIO TECNICO-SECRETARIA 18.312,36 7.324,94 0,00 0,00 0,00 0,00 1.005,38 3.238,95 29.881,63 3.882,92 5.113,09 0,00 0,00 8.996,01 20.885,62 31/01/2023
732 271100 DENISE ELOY PEIXOTO OFICIAL DO MP BELO HORIZONTE - COMARCA; DIRETORIA DE INTELIGENCIA 15.659,55 4.697,87 0,00 0,00 0,00 0,00 1.526,98 7.611,08 29.495,48 3.038,14 3.893,44 0,00 0,00 6.931,58 22.563,90 31/01/2023
733 385400 DENISE FREITAS DE ASSIS OFICIAL DO MP CARATINGA - COMARCA; CARATINGA-PJ-SECRETARIA 9.999,62 1.999,92 2.679,65 0,00 0,00 0,00 1.159,84 7.782,68 23.621,71 1.700,87 2.681,67 0,00 0,00 4.382,54 19.239,17 31/01/2023
734 437100 DENISE NOGUEIRA MAGRI MENDES ANALISTA DO MP BELO HORIZONTE - COMARCA; LAB TECNOLOGIA CONTRA LAVAGEM DINHEIRO 16.169,47 6.467,79 0,00 0,00 0,00 0,00 977,59 1.911,00 25.525,85 3.402,91 4.315,81 0,00 0,00 7.718,72 17.807,13 31/01/2023
735 524700 DENISE RAMOS GUIMARAES OFICIAL DO MP BELO HORIZONTE - COMARCA; BH-07PJ 01 TRIBUNAL JURI-SECRETARIA 6.694,66 1.338,93 0,00 0,00 0,00 0,00 367,95 1.911,00 10.312,54 1.066,32 1.046,64 0,00 0,00 2.112,96 8.199,58 31/01/2023
736 239100 DENISE RIBEIRO DOS SANTOS CAETANO OFICIAL DO MP ITANHANDU - COMARCA; ITANHANDU-PJ-SECRETARIA 15.659,55 4.697,87 0,00 0,00 0,00 0,00 1.526,98 7.611,08 29.495,48 3.038,14 3.841,30 0,00 0,00 6.879,44 22.616,04 31/01/2023
737 325500 DENISE ROSA TORRES OFICIAL DO MP BELO HORIZONTE - COMARCA; DIRETORIA DE PESSOAL ADMINISTRATIVO - DPAD 12.118,97 3.635,69 0,00 0,00 0,00 0,00 1.392,88 7.582,68 24.730,22 2.301,69 2.830,21 0,00 0,00 5.131,90 19.598,32 31/01/2023
738 437200 DENISE VIVIANE DOS SANTOS ANALISTA DO MP BELO HORIZONTE - COMARCA; CGMP-ASSESSORIA JURIDICA 13.776,02 2.755,20 0,00 0,00 0,00 0,00 827,79 3.238,95 20.597,96 2.425,94 2.957,45 0,00 0,00 5.383,39 15.214,57 31/01/2023
739 267900 DENISIA ALMEIDA SALES OFICIAL DO MP BELO HORIZONTE - COMARCA; BH-18PJ DIREITOS HUMANOS-SECRETARIA 11.008,33 3.302,50 0,00 0,00 0,00 0,00 737,98 1.911,00 16.959,81 2.070,68 2.444,54 0,00 0,00 4.515,22 12.444,59 31/01/2023
740 480300 DESIREE ARANTES FERREIRA GOUVEA OFICIAL DO MP PRATÁPOLIS - COMARCA; PRATAPOLIS-PJ-UNPJ 6.694,66 1.338,93 0,00 109,61 0,00 1.780,15 370,58 1.911,00 12.204,93 1.066,32 1.339,88 0,00 0,00 2.406,20 9.798,73 31/01/2023
741 355300 DEYSE CRISTINA MORAIS OFICIAL DO MP PASSOS - COMARCA; PASSOS-PJ-02PJ 11.008,33 3.302,50 0,00 0,00 0,00 0,00 1.276,23 7.635,33 23.222,39 2.070,68 2.496,68 0,00 0,00 4.567,36 18.655,03 31/01/2023
742 523700 DIANA CAMPOS RESENDE OFICIAL DO MP SÃO JOÃO DEL REI - COMARCA; SAO JOAO DEL REI-PJ-04PJ 8.650,50 4.325,25 0,00 0,00 0,00 0,00 1.150,46 7.620,33 21.746,54 1.857,07 2.136,14 0,00 0,00 3.993,21 17.753,33 31/01/2023
743 241900 DIANA CARDOSO MARTINS OFICIAL DO MP BELO HORIZONTE - COMARCA; CAO-CRIMINAL 11.008,33 4.403,33 0,00 0,00 0,00 0,00 788,79 1.911,00 18.111,45 2.246,81 2.750,97 0,00 0,00 4.997,78 13.113,67 31/01/2023
744 410100 DIANA GORDILHO SILVEIRA SENA ANALISTA DO MP BELO HORIZONTE - COMARCA; BH-06PJ JUIZO CIVEL-SECRETARIA 16.169,47 3.233,89 0,00 0,00 0,00 0,00 1.583,00 7.343,94 28.330,30 2.885,49 3.673,05 0,00 0,00 6.558,54 21.771,76 31/01/2023
745 553000 DIANA MARIA MARQUES ANALISTA DO MP BETIM - COMARCA; BETIM-PJ-07PJ 11.008,33 1.100,83 0,00 0,00 0,00 0,00 597,76 1.911,00 14.617,92 1.718,41 1.935,96 0,00 0,00 3.654,37 10.963,55 31/01/2023
746 520000 DIARLE TOSTE DOS SANTOS ANALISTA DO MP RIO POMBA - COMARCA; RIO POMBA-PJ-UNPJ 11.008,33 2.201,67 0,00 0,00 0,00 0,00 1.149,83 7.723,40 22.083,23 1.894,55 1.526,29 0,00 0,00 3.420,84 18.662,39 31/01/2023
747 539800 DIEGO CAMARGOS RODRIGUES OFICIAL DO MP CONTAGEM - COMARCA; CONTAGEM-PJ-05PJ 6.694,66 669,47 0,00 0,00 0,00 0,00 527,47 3.383,83 11.275,43 959,93 891,80 0,00 0,00 1.851,73 9.423,70 31/01/2023
748 607300 DIEGO CERVEIRA DE SOUZA ANALISTA DO MP PATOS DE MINAS - COMARCA; COORD REG BACIAS PARACATU,URUCUIA E ABAETE 11.008,33 1.100,83 0,00 0,00 0,00 0,00 1.151,64 7.723,40 20.984,20 982,16 2.014,97 0,00 0,00 2.997,13 17.987,07 31/01/2023
749 446900 DIEGO DE FREITAS OFICIAL DO MP UBERABA - COMARCA; UBERABA-PJ-06PJ 9.378,86 1.875,77 0,00 0,00 0,00 0,00 1.139,21 7.763,41 20.157,25 1.581,69 1.790,70 0,00 0,00 3.372,39 16.784,86 31/01/2023
750 288800 DILENE NEPOMUCENO ALVES OFICIAL DO MP BELO HORIZONTE - COMARCA; DIRETORIA DE PESSOAL ADMINISTRATIVO - DPAD 11.008,33 3.302,50 0,00 0,00 0,00 0,00 670,96 1.911,00 16.892,79 2.070,68 2.496,68 0,00 0,00 4.567,36 12.325,43 31/01/2023
751 681200 DILLIANY PAULA LOPES SERRANO ASSESSOR PROMOTOR JUSTICA RESPLENDOR - COMARCA; RESPLENDOR-PJ-UNPJ 0,00 0,00 7.857,77 0,00 0,00 0,00 910,33 8.768,21 17.536,31 877,22 1.416,87 0,00 0,00 2.294,09 15.242,22 31/01/2023
752 270101 DILSON DO AMARAL ANALISTA DO MP RIO CASCA - COMARCA; RIO CASCA-PJ-UNPJ 11.008,33 1.100,83 0,00 0,00 0,00 0,00 525,69 1.911,00 14.545,85 1.718,41 1.988,10 0,00 0,00 3.706,51 10.839,34 31/01/2023
753 466000 DIMITRI GUDE MARCIAL ANALISTA DO MP NANUQUE - COMARCA; NANUQUE-PJ-02PJ 11.008,33 2.201,67 0,00 0,00 0,00 0,00 1.161,39 9.494,00 23.865,39 1.894,55 2.085,98 0,00 0,00 3.980,53 19.884,86 31/01/2023
754 516300 DINORA APARECIDA MACEDO BRANDAO ANALISTA DO MP BELO HORIZONTE - COMARCA; BH-19PJ SAUDE-SECRETARIA 150PJ 11.008,33 2.201,67 0,00 0,00 0,00 0,00 1.169,19 7.723,40 22.102,59 1.894,55 2.242,39 0,00 0,00 4.136,94 17.965,65 31/01/2023
755 511700 DIOGENES HENRIQUES PEREIRA LOURENCO ANALISTA DO MP BELO HORIZONTE - COMARCA; BH-03PJ EMPRESARIAL-SECRETARIA 11.008,33 2.201,67 0,00 0,00 0,00 0,00 1.206,08 8.608,70 23.024,78 982,16 2.322,12 0,00 0,00 3.304,28 19.720,50 31/01/2023
756 604100 DIOGO CESAR DE OLIVEIRA HONORIO ASSESSOR ADMINISTRATIVO III PIUMHI - COMARCA; PIUMHI-PJ-02PJ 0,00 0,00 9.684,23 0,00 0,00 0,00 290,60 1.911,00 11.885,83 877,22 1.919,14 0,00 0,00 2.796,36 9.089,47 31/01/2023
757 259600 DIOGO MESQUITA MAIA ANALISTA DO MP BELO HORIZONTE - COMARCA; DIRET DE APOIO AS PROCURADORIAS DE JUSTICA 19.791,01 17.811,91 0,00 467,53 0,00 8.597,91 2.296,04 7.584,96 56.549,36 5.454,90 8.830,61 2.140,70 0,00 16.426,21 40.123,15 31/01/2023
758 386700 DIRCIMAR FERNANDES CARNEIRO OFICIAL DO MP VISCONDE DO RIO BRANCO - COMARCA; VISCONDE DO RIO BRANCO-PJ-03PJ 11.008,33 7.705,83 0,00 0,00 0,00 0,00 1.404,66 7.899,53 28.018,35 2.775,21 3.513,85 0,00 0,00 6.289,06 21.729,29 31/01/2023
759 113800 DIRSON APARECIDO GUIMARAES ASSESSOR ADMINISTRATIVO II BELO HORIZONTE - COMARCA; DIVISAO DE MANUTENCAO PREDIAL 0,00 6.025,19 6.694,66 0,00 0,00 0,00 505,64 1.911,00 15.136,49 877,22 2.753,94 0,00 0,00 3.631,16 11.505,33 31/01/2023
760 216700 DOMICIO VALDETE PEREIRA OFICIAL DO MP TEÓFILO OTONI - COMARCA; COORD REG PJ DEF EDU DIR CRIAN ADOL JEQUI MUC 18.312,36 7.324,94 0,00 0,00 0,00 0,00 1.262,21 1.911,00 28.810,51 3.882,92 5.008,82 0,00 0,00 8.891,74 19.918,77 31/01/2023
761 192701 DONIZETTI APARECIDO AMORIM ANALISTA DO MP PRATÁPOLIS - COMARCA; PRATAPOLIS-PJ-UNPJ 11.008,33 4.403,33 0,00 0,00 0,00 0,00 789,53 1.911,00 18.112,19 2.246,81 2.698,84 0,00 0,00 4.945,65 13.166,54 31/01/2023
762 558700 DORCILIA FATIMA DE OLIVEIRA OFICIAL DO MP DIVINÓPOLIS - COMARCA; DIVINOPOLIS-PJ-02PJ 6.694,66 669,47 0,00 100,48 0,00 1.629,17 810,08 6.329,48 16.233,34 959,93 1.103,64 0,00 0,00 2.063,57 14.169,77 31/01/2023
763 555300 DOUGLAS CUNHA DE SOUZA ANALISTA DO MP VARZEA DA PALMA - COMARCA; VARZEA DA PALMA-PJ-01PJ 11.008,33 1.100,83 0,00 0,00 0,00 0,00 1.176,30 8.608,70 21.894,16 982,16 2.069,25 0,00 0,00 3.051,41 18.842,75 31/01/2023
764 265900 DOUGLAS GOMES MOREIRA ANALISTA DO MP BELO HORIZONTE - COMARCA; CENTRAL DE APOIO TECNICO-SETOR DE ENGENHARIA 20.574,59 6.172,38 0,00 0,00 0,00 0,00 1.164,60 1.911,00 29.822,57 4.060,46 5.369,43 0,00 0,00 9.429,89 20.392,68 31/01/2023
765 241000 DOUGLAS MEIRELLES DE CASTRO OFICIAL DO MP CONCEIÇÃO DO RIO VERDE - COMARCA; CONCEICAO DO RIO VERDE-PJ-UNPJ 15.659,55 6.263,82 0,00 0,00 0,00 0,00 1.052,79 1.911,00 24.887,16 3.288,69 4.203,04 0,00 0,00 7.491,73 17.395,43 31/01/2023
766 534900 DOUGLAS SILVA E SOUZA ANALISTA DO MP CAMPOS GERAIS - COMARCA; CAMPOS GERAIS-PJ-01PJ 11.008,33 1.100,83 0,00 0,00 0,00 0,00 1.099,39 7.723,40 20.931,95 982,16 1.983,96 0,00 0,00 2.966,12 17.965,83 31/01/2023
767 638900 DOUGLAS WALLAS CONCEICAO NEVES OFICIAL DO MP RIBEIRÃO DAS NEVES - COMARCA; RIBEIRAO DAS NEVES-PJ-SEC CIVEL 5.889,39 588,94 0,00 0,00 0,00 0,00 295,31 1.911,00 8.684,64 822,63 685,96 0,00 0,00 1.508,59 7.176,05 31/01/2023
768 146800 DUCINALVA AMARAL LOPES REIS OFICIAL DO MP PARAISÓPOLIS - COMARCA; PARAISOPOLIS-PJ-UNPJ 20.574,59 14.402,22 0,00 477,21 0,00 8.544,44 1.780,56 1.911,00 47.690,02 5.377,24 8.644,99 0,00 0,00 14.022,23 33.667,79 31/01/2023
769 122500 DUILIO CARLOS FERREIRA UTSCH OFICIAL DO MP CONCEIÇÃO DO MATO DENTRO - COMARCA; CONCEICAO DO MATO DENTRO-PJ-UNPJ 18.312,36 16.481,13 0,00 410,02 0,00 8.104,06 1.551,61 1.911,00 46.770,18 5.347,91 8.698,85 0,00 0,00 14.046,76 32.723,42 31/01/2023
770 201800 DULCINEIA ANDRE DE SOUZA OFICIAL DO MP JEQUITINHONHA - COMARCA; JEQUITINHONHA-PJ-SECRETARIA 18.312,36 7.324,94 0,00 0,00 0,00 0,00 1.681,14 7.038,46 34.356,90 3.882,92 4.956,68 0,00 0,00 8.839,60 25.517,30 31/01/2023
771 395800 DUVIDIER MEDIRCIO JUNIOR ANALISTA DO MP BELO HORIZONTE - COMARCA; CENTRAL DE APOIO TECNICO-SETOR DE ENGENHARIA 17.614,89 3.522,98 0,00 0,00 0,00 0,00 1.098,80 1.911,00 24.147,67 3.163,01 4.073,73 0,00 0,00 7.236,74 16.910,93 31/01/2023
772 604800 ECIA RAMILIS ISSA DE ABREU ANALISTA DO MP BRASÍLIA DE MINAS - COMARCA; BRASILIA DE MINAS-PJ-01PJ 11.008,33 1.100,83 0,00 0,00 0,00 0,00 1.141,76 8.608,70 21.859,62 1.718,41 1.988,10 0,00 0,00 3.706,51 18.153,11 31/01/2023
773 273000 EDELFINA APARECIDA GUIMARAES OFICIAL DO MP CACHOEIRA DE MINAS - COMARCA; CACHOEIRA DE MINAS-PJ-UNPJ 12.118,97 8.483,29 0,00 0,00 0,00 0,00 1.005,52 1.911,00 23.518,78 3.077,31 3.897,86 0,00 0,00 6.975,17 16.543,61 31/01/2023
774 523300 EDER DOS SANTOS PATRICIO ANALISTA DO MP NOVA SERRANA - COMARCA; NOVA SERRANA-PJ-03PJ 11.008,33 2.201,67 0,00 0,00 0,00 0,00 1.137,60 8.608,70 22.956,30 982,16 2.189,95 0,00 0,00 3.172,11 19.784,19 31/01/2023
775 356700 EDER JOSE PACHECO OFICIAL DO MP CAMPO BELO - COMARCA; CAMPO BELO-PJ-04PJ 11.008,33 3.302,50 0,00 0,00 0,00 0,00 1.373,36 7.635,33 23.319,52 2.070,68 2.392,41 0,00 0,00 4.463,09 18.856,43 31/01/2023
776 507900 EDERSON SILVA LOPES OFICIAL DO MP BELO HORIZONTE - COMARCA; LABORATORIO TECNOLOGIA INTELIGENCIA 8.113,66 1.622,73 0,00 0,00 0,00 0,00 1.168,96 7.752,83 18.658,18 1.338,77 1.335,71 0,00 0,00 2.674,48 15.983,70 31/01/2023
777 296200 EDGARD GOULART MATOSINHO DE LAET JR ANALISTA DO MP GOVERNADOR VALADARES - COMARCA; GOVERNADOR VALADARES-PJ-12PJ 19.791,01 5.937,30 0,00 0,00 0,00 0,00 1.783,43 7.056,66 34.568,40 3.897,48 5.029,84 0,00 0,00 8.927,32 25.641,08 31/01/2023
778 295000 EDILA MARIA DA SILVEIRA OFICIAL DO MP FORMIGA - COMARCA; FORMIGA-PJ-01PJ 11.008,33 3.302,50 0,00 0,00 0,00 0,00 640,35 1.911,00 16.862,18 2.070,68 2.496,68 0,00 0,00 4.567,36 12.294,82 31/01/2023
779 332300 EDILA MARILAC MIRANDA PRADO OFICIAL DO MP DIAMANTINA - COMARCA; DIAMANTINA-PJ-01PJ 11.008,33 5.504,17 0,00 0,00 0,00 0,00 797,87 1.911,00 19.221,37 2.422,95 2.900,99 0,00 0,00 5.323,94 13.897,43 31/01/2023
780 376600 EDILANE CONSOLACAO ROSA NAZARETH ANALISTA DO MP BETIM - COMARCA; BETIM-PJ-10PJ 16.695,70 3.339,14 0,00 0,00 0,00 0,00 863,54 1.911,00 22.809,38 982,16 3.944,41 0,00 0,00 4.926,57 17.882,81 31/01/2023
781 309800 EDILZA DOS REIS OFICIAL DO MP UBERLÂNDIA - COMARCA; UBERLANDIA-PJ-03PJ 11.008,33 3.302,50 0,00 0,00 0,00 0,00 1.280,90 7.635,33 23.227,06 2.070,68 2.444,54 0,00 0,00 4.515,22 18.711,84 31/01/2023
782 200500 EDINEIA MARIA DE OLIVEIRA ANTUNES OFICIAL DO MP MONTES CLAROS - COMARCA; MONTES CLAROS-PJ-10PJ 18.312,36 9.156,18 0,00 0,00 0,00 0,00 1.763,48 7.404,71 36.636,73 4.175,91 5.536,11 0,00 0,00 9.712,02 26.924,71 31/01/2023
783 427700 EDISANGELA SOARES LOPES OFICIAL DO MP PIRAPORA - COMARCA; PIRAPORA-PJ-02PJ 6.694,66 1.338,93 0,00 0,00 0,00 0,00 356,33 1.911,00 10.300,92 1.066,32 1.046,64 0,00 0,00 2.112,96 8.187,96 31/01/2023
784 555400 EDISON MONTEIRO SAMPAIO NETO ANALISTA DO MP BELO HORIZONTE - COMARCA; BH-12PJ JUIZO CRIMINAL-GAB 094PJ 11.008,33 1.100,83 0,00 0,00 0,00 0,00 565,83 1.911,00 14.585,99 1.718,41 1.988,10 0,00 0,00 3.706,51 10.879,48 31/01/2023
785 517700 EDMILSON TADEU FERNANDES OFICIAL DO MP POUSO ALEGRE - COMARCA; GAECO REGIONAL DE POUSO ALEGRE 8.377,76 1.675,55 0,00 0,00 0,00 0,00 1.027,59 7.540,85 18.621,75 1.389,48 1.513,19 0,00 0,00 2.902,67 15.719,08 31/01/2023
786 358400 EDNA APARECIDA SILVA FERREIRA OFICIAL DO MP CORONEL FABRICIANO - COMARCA; CORONEL FABRICIANO-PJ-02PJ 12.118,97 3.635,69 0,00 0,00 0,00 0,00 1.484,46 7.582,68 24.821,80 2.301,69 2.725,93 0,00 0,00 5.027,62 19.794,18 31/01/2023
787 331800 EDNA MARCIA CAMILO DA SILVA OFICIAL DO MP SETE LAGOAS - COMARCA; SETE LAGOAS-PJ-SEC CRIMINAIS 11.008,33 3.302,50 0,00 0,00 0,00 0,00 651,10 1.911,00 16.872,93 2.070,68 2.444,54 0,00 0,00 4.515,22 12.357,71 31/01/2023
788 327900 EDRIEL SANTANA PEREIRA OFICIAL DO MP TUPACIGUARA - COMARCA; TUPACIGUARA-PJ-01PJ 11.008,33 3.302,50 0,00 0,00 0,00 0,00 1.282,18 8.711,31 24.304,32 2.070,68 2.496,68 0,00 0,00 4.567,36 19.736,96 31/01/2023
789 482400 EDSON GARCIA OFICIAL DO MP MACHADO - COMARCA; MACHADO-PJ-02PJ 6.694,66 1.338,93 0,00 0,00 0,00 0,00 346,75 1.911,00 10.291,34 1.066,32 942,36 0,00 0,00 2.008,68 8.282,66 31/01/2023
790 225601 EDSON LABRE FILHO ANALISTA DO MP VARGINHA - COMARCA; VARGINHA-PJ-01PJ 19.791,01 7.916,40 0,00 0,00 0,00 0,00 1.869,74 7.452,48 37.029,63 4.214,13 5.539,15 0,00 0,00 9.753,28 27.276,35 31/01/2023
791 602700 EDSON NOGUEIRA BUENO OFICIAL DO MP PITANGUI - COMARCA; PITANGUI-PJ-02PJ 6.694,66 669,47 0,00 0,00 0,00 0,00 306,38 1.911,00 9.581,51 959,93 891,80 0,00 0,00 1.851,73 7.729,78 31/01/2023
792 716500 EDUARDA CORREA MOREIRA ASSESSOR ADMINISTRATIVO I BELO HORIZONTE - COMARCA; DIRET DE FORMACAO, APERFEIC. E POS-GRADUACAO 0,00 0,00 5.678,58 0,00 0,00 0,00 27,99 1.463,30 7.169,87 877,22 451,01 0,00 0,00 1.328,23 5.841,64 31/01/2023
793 414400 EDUARDO ABRANTES CAMPOS ANALISTA DO MP SÃO JOÃO DEL REI - COMARCA; SAO JOAO DEL REI-PJ-02PJ 16.169,47 3.233,89 0,00 0,00 0,00 0,00 1.588,38 7.343,94 28.335,68 2.885,49 3.673,05 0,00 0,00 6.558,54 21.777,14 31/01/2023
794 476800 EDUARDO ALVES DE MOURA ANALISTA DO MP UBERLÂNDIA - COMARCA; UBERLANDIA-PJ-02PJ 11.008,33 2.201,67 0,00 0,00 0,00 0,00 1.204,83 8.608,70 23.023,53 982,16 2.079,87 0,00 0,00 3.062,03 19.961,50 31/01/2023
795 390800 EDUARDO AMORIM PETTERSEN OFICIAL DO MP CARANGOLA - COMARCA; CARANGOLA-PJ-SECRETARIA 9.999,62 1.999,92 0,00 0,00 0,00 0,00 626,14 1.911,00 14.536,68 1.700,87 1.962,77 0,00 0,00 3.663,64 10.873,04 31/01/2023
796 461600 EDUARDO ANTONIO DE ASSIS FARIA ASSESSOR ADMINISTRATIVO III BELO HORIZONTE - COMARCA; ASSESS EXECUTIVA DO CONSELHO SUPERIOR DO MP 0,00 0,00 9.684,23 0,00 0,00 0,00 967,12 7.721,54 18.372,89 877,22 1.867,01 0,00 0,00 2.744,23 15.628,66 31/01/2023
797 248800 EDUARDO DE CASTRO AMORIM ANALISTA DO MP BELO HORIZONTE - COMARCA; SUPER DE GESTAO DE PESSOAS-LOTACAO TEMPORARIA 20.574,59 6.172,38 0,00 0,00 0,00 0,00 1.932,75 7.260,39 35.940,11 4.060,46 5.369,43 0,00 0,00 9.429,89 26.510,22 31/01/2023
798 209100 EDUARDO DE SOUZA MAIA ANALISTA DO MP BELO HORIZONTE - COMARCA; SUPER DE GESTAO DE PESSOAS-LOTACAO TEMPORARIA 20.574,59 8.229,84 0,00 0,00 0,00 0,00 1.274,44 1.911,00 31.989,87 4.389,66 5.740,43 0,00 0,00 10.130,09 21.859,78 31/01/2023
799 633900 EDUARDO GONCALVES PIRES OFICIAL DO MP BELO HORIZONTE - COMARCA; DIRETORIA DE PAGAMENTO DE PESSOAL-DPAG 7.370,10 2.211,03 0,00 0,00 0,00 0,00 608,74 1.911,00 12.100,87 1.313,93 1.404,12 0,00 0,00 2.718,05 9.382,82 31/01/2023
800 350500 EDUARDO GONCALVES RIBEIRO OFICIAL DO MP VESPASIANO - COMARCA; VESPASIANO-PJ-04PJ 10.325,15 3.097,55 0,00 0,00 0,00 0,00 695,70 1.911,00 16.029,40 1.928,58 2.291,52 0,00 0,00 4.220,10 11.809,30 31/01/2023
801 115800 EDUARDO HENRIQUE DE CAMPOS MAIA OFICIAL DO MP BELO HORIZONTE - COMARCA; DIV FISCAL ADM CONT TERCEIRIZACAO 19.791,01 9.895,50 0,00 0,00 0,00 0,00 1.370,49 1.911,00 32.968,00 4.530,79 5.892,05 0,00 0,00 10.422,84 22.545,16 31/01/2023
802 392600 EDUARDO HENRIQUE DOS SANTOS COSTA ELIAZAR OFICIAL DO MP MATOZINHOS - COMARCA; MATOZINHOS-PJ-01PJ 9.684,23 1.936,85 0,00 0,00 0,00 0,00 1.165,82 7.489,12 20.276,02 1.640,32 1.771,07 0,00 0,00 3.411,39 16.864,63 31/01/2023
803 99101 EDUARDO JOSE DE FREITAS NUNES ASSESSOR ADMINISTRATIVO II BELO HORIZONTE - COMARCA; PROC JUST ATUACAO TRIBUNAIS SUPERIORES-GAB007 0,00 2.677,86 6.694,66 0,00 0,00 0,00 401,20 1.911,00 11.684,72 877,22 1.833,42 0,00 0,00 2.710,64 8.974,08 31/01/2023
804 407500 EDUARDO MASCARENHAS CURI AZEVEDO COORDENADOR II BELO HORIZONTE - COMARCA; DIR CONTEUDO JORNALISTICO 18.312,36 3.662,47 0,00 0,00 0,00 0,00 772,64 2.796,30 25.543,77 1.894,55 4.652,72 0,00 0,00 6.547,27 18.996,50 31/01/2023
805 601300 EDUARDO TRAD VIEIRA OFICIAL DO MP IGARAPÉ - COMARCA; IGARAPE-PJ-SECRETARIA 6.694,66 669,47 0,00 0,00 0,00 0,00 300,37 1.911,00 9.575,50 959,93 891,80 0,00 0,00 1.851,73 7.723,77 31/01/2023
806 257600 EDUARDO VALADARES CABRAL ANALISTA DO MP BELO HORIZONTE - COMARCA; COORD DE INCLUSAO E MOBILIZACAO SOCIAIS 20.574,59 6.172,38 0,00 0,00 0,00 0,00 1.179,08 1.911,00 29.837,05 4.060,46 5.369,43 0,00 0,00 9.429,89 20.407,16 31/01/2023
807 545700 EDVAIR FERREIRA DE CARVALHO OFICIAL DO MP ARAGUARI - COMARCA; ARAGUARI-PJ-06PJ 6.694,66 669,47 0,00 0,00 0,00 0,00 340,29 1.911,00 9.615,42 959,93 839,66 0,00 0,00 1.799,59 7.815,83 31/01/2023
808 401700 EDWANIA AMORIM DO CARMO OFICIAL DO MP RIBEIRÃO DAS NEVES - COMARCA; RIBEIRAO DAS NEVES-PJ-03PJ 11.008,33 2.201,67 0,00 0,00 0,00 0,00 580,87 1.911,00 15.701,87 1.894,55 2.242,39 0,00 0,00 4.136,94 11.564,93 31/01/2023
809 303600 EFIGENIO SARAIVA LOPES ANALISTA DO MP BELO HORIZONTE - COMARCA; DIRETORIA DE PAGAMENTO DE PESSOAL-DPAG 20.574,59 6.172,38 4.939,72 0,00 0,00 0,00 1.870,77 6.980,87 40.538,33 4.060,46 6.675,72 0,00 0,00 10.736,18 29.802,15 31/01/2023
810 286000 ELAINE APARECIDA SILVA BERZOINI OFICIAL DO MP JUIZ DE FORA - COMARCA; JUIZ DE FORA-PJ-07PJ 11.008,33 3.302,50 0,00 0,00 0,00 0,00 754,30 1.911,00 16.976,13 2.070,68 2.496,68 0,00 0,00 4.567,36 12.408,77 31/01/2023
811 509000 ELAINE CANDIDA PONTES OFICIAL DO MP BELO HORIZONTE - COMARCA; BH-02PJ FAMILIA-SECRETARIA 9.223,00 1.844,60 0,00 0,00 0,00 0,00 1.411,67 1.911,00 14.390,27 1.551,76 1.747,50 0,00 0,00 3.299,26 11.091,01 31/01/2023
812 283601 ELAINE CRISTINA MEQUELINO DUARTE ANALISTA DO MP ALFENAS - COMARCA; ALFENAS-PJ-02PJ 16.695,70 3.339,14 0,00 0,00 0,00 0,00 1.568,00 7.520,76 29.123,60 2.986,52 3.714,65 0,00 0,00 6.701,17 22.422,43 31/01/2023
813 535500 ELAINE DE OLIVEIRA CAMPOS REIS OFICIAL DO MP RIBEIRÃO DAS NEVES - COMARCA; RIBEIRAO NEVES-SEC PJ EXECUCAO PENAL 6.694,66 669,47 0,00 0,00 0,00 0,00 404,46 1.911,00 9.679,59 959,93 891,80 0,00 0,00 1.851,73 7.827,86 31/01/2023
814 455700 ELAINE DE OLIVEIRA CASTRO ANALISTA DO MP POMPÉU - COMARCA; POMPEU-PJ-UNPJ 11.008,33 2.201,67 0,00 0,00 0,00 0,00 630,70 1.911,00 15.751,70 1.894,55 2.138,11 0,00 0,00 4.032,66 11.719,04 31/01/2023
815 367200 ELAINE MUNIZ BARBOSA ANALISTA DO MP BELO HORIZONTE - COMARCA; DIRETORIA DE SISTEMAS DE INFORMACAO 18.312,36 5.493,71 0,00 0,00 0,00 0,00 946,81 2.796,30 27.549,18 3.589,92 4.637,94 0,00 0,00 8.227,86 19.321,32 31/01/2023
816 679200 ELAINE RIBEIRO CHAVES ASSESSOR PROCURADOR JUSTICA BELO HORIZONTE - COMARCA; GABINETE DE PROCURADOR DE JUSTIÇA - SALA 614 0,00 0,00 7.857,77 0,00 0,00 0,00 334,18 1.911,00 10.102,95 877,22 1.364,73 0,00 0,00 2.241,95 7.861,00 31/01/2023
817 176900 ELAINE RIBEIRO TAVEIRA OFICIAL DO MP BELO HORIZONTE - COMARCA; DIVISAO FROTA 15.165,83 6.066,33 0,00 0,00 0,00 0,00 1.587,45 7.856,00 30.675,61 3.178,09 4.095,51 0,00 0,00 7.273,60 23.402,01 31/01/2023
818 496200 ELAINE SABRINA MOREIRA SCHUWARTEN ANALISTA DO MP IPATINGA - COMARCA; GAECO REGIONAL DE IPATINGA 12.118,97 2.423,79 0,00 0,00 0,00 0,00 747,78 1.911,00 17.201,54 2.107,79 2.550,26 0,00 0,00 4.658,05 12.543,49 31/01/2023
819 489200 ELAINE VICENTINO GARCIA ANALISTA DO MP BELO HORIZONTE - COMARCA; CENTRAL DE APOIO TECNICO-SETOR CONTABIL 11.008,33 3.302,50 0,00 0,00 0,00 0,00 695,65 1.911,00 16.917,48 2.070,68 2.392,41 0,00 0,00 4.463,09 12.454,39 31/01/2023
820 731400 ELBERT MENDES PINHEIRO ASSESSOR PROMOTOR JUSTICA BELO HORIZONTE - COMARCA; COORD ESTADUAL DAS PJS DE HAB. E URBANISMO 0,00 0,00 7.857,77 0,00 0,00 0,00 0,00 1.911,00 9.768,77 877,22 1.416,87 0,00 0,00 2.294,09 7.474,68 31/01/2023
821 244500 ELCI ALVES DE SOUZA ASSESSOR ADMINISTRATIVO II BELO HORIZONTE - COMARCA; CAO-CONFLITOS AGRARIOS-SECRETARIA 0,00 2.008,40 6.694,66 0,00 0,00 0,00 897,50 7.829,08 17.429,64 877,22 1.597,18 0,00 0,00 2.474,40 14.955,24 31/01/2023
822 472500 ELCI VAZ DE OLIVEIRA FILHO ANALISTA DO MP PIUMHI - COMARCA; PIUMHI-PJ-02PJ 11.008,33 5.504,17 0,00 0,00 0,00 0,00 716,62 1.911,00 19.140,12 2.422,95 3.005,27 0,00 0,00 5.428,22 13.711,90 31/01/2023
823 385200 ELCI VIANA REIS OFICIAL DO MP RIO PARDO DE MINAS - COMARCA; RIO PARDO DE MINAS-PJ-SECRETARIA 11.008,33 5.504,17 0,00 0,00 0,00 0,00 1.317,11 7.855,50 25.685,11 2.422,95 3.005,27 0,00 0,00 5.428,22 20.256,89 31/01/2023
824 289801 ELCIO JOSE DOS SANTOS ANALISTA DO MP BELO HORIZONTE - COMARCA; DIVISAO DE SERVICOS 11.008,33 2.201,67 4.939,72 0,00 0,00 0,00 834,01 1.911,00 20.894,73 1.894,55 3.600,81 0,00 0,00 5.495,36 15.399,37 31/01/2023
825 319600 ELEN TULER DE ALBERGARIA ANALISTA DO MP BELO HORIZONTE - COMARCA; BH-19PJ SAUDE-SECRETARIA 130PJ 20.574,59 8.229,84 0,00 0,00 0,00 0,00 1.283,04 1.911,00 31.998,47 4.389,66 5.844,70 0,00 0,00 10.234,36 21.764,11 31/01/2023
826 205500 ELIANA ALVES DE SOUSA OFICIAL DO MP GOVERNADOR VALADARES - COMARCA; GOVERNADOR VALADARES-PJ-07PJ 11.008,33 4.403,33 0,00 0,00 0,00 0,00 679,92 1.911,00 18.002,58 2.246,81 2.750,97 0,00 0,00 4.997,78 13.004,80 31/01/2023
827 628800 ELIANA APARECIDA PEREIRA ANALISTA DO MP CAMBUÍ - COMARCA; CAMBUI-PJ-02PJ 9.378,86 937,89 0,00 0,00 0,00 0,00 514,41 1.911,00 12.742,16 1.431,63 1.521,91 0,00 0,00 2.953,54 9.788,62 31/01/2023
828 301700 ELIANA DA SILVEIRA ANALISTA DO MP BELO HORIZONTE - COMARCA; BH-11PJ COMB CRIME ORGANIZ-GAB 081PJ 19.037,29 5.711,19 0,00 0,00 0,00 0,00 1.650,30 7.850,64 34.249,42 3.740,71 4.907,78 0,00 0,00 8.648,49 25.600,93 31/01/2023
829 251500 ELIANA DE LIMA MILAGRES FONSECA ANALISTA DO MP CONTAGEM - COMARCA; CONTAGEM-PJ-16PJ 20.574,59 6.172,38 0,00 0,00 0,00 0,00 1.699,39 7.260,39 35.706,75 4.060,46 5.317,29 0,00 0,00 9.377,75 26.329,00 31/01/2023
830 503900 ELIANA DIAS DUTRA FERREIRA OFICIAL DO MP BELO HORIZONTE - COMARCA; DIRETORIA GESTAO COMPRAS LICITACOES 9.378,86 1.875,77 0,00 0,00 0,00 0,00 464,25 1.911,00 13.629,88 1.581,69 1.738,56 0,00 0,00 3.320,25 10.309,63 31/01/2023
831 413900 ELIANA PINTO DE OLIVEIRA NEVES ANALISTA DO MP CAMPO BELO - COMARCA; CAMPO BELO-PJ-04PJ 15.659,55 3.131,91 0,00 0,00 0,00 0,00 1.342,41 7.172,61 27.306,48 2.787,58 3.531,71 0,00 0,00 6.319,29 20.987,19 31/01/2023
832 228200 ELIANA RODRIGUES DA CUNHA PINHEIRO OFICIAL DO MP BELO HORIZONTE - COMARCA; DIRETORIA DE PROJETOS DE EDIFICACOES 15.659,55 4.697,87 0,00 252,29 0,00 4.709,11 1.430,99 7.611,08 34.360,89 3.038,14 4.728,93 0,00 0,00 7.767,07 26.593,82 31/01/2023
833 386600 ELIANA SABINO CHAVES PESSOA ANALISTA DO MP CARATINGA - COMARCA; CARATINGA-PJ-06PJ 16.169,47 11.318,64 0,00 363,20 0,00 6.615,81 2.028,86 7.408,62 43.904,60 4.179,05 6.637,73 0,00 0,00 10.816,78 33.087,82 31/01/2023
834 677500 ELIANA SILVA ANDRADE ASSESSOR PROMOTOR JUSTICA TRÊS CORACOES - COMARCA; TRES CORACOES-PJ-06PJ 0,00 0,00 7.857,77 0,00 0,00 0,00 358,70 1.911,00 10.127,47 877,22 1.416,87 0,00 0,00 2.294,09 7.833,38 31/01/2023
835 297400 ELIANE AUGUSTA RIBEIRO COSTA ANALISTA DO MP CONSELHEIRO LAFAIETE - COMARCA; CONSELHEIRO LAFAIETE-PJ-05PJ 20.574,59 6.172,38 0,00 0,00 0,00 0,00 1.391,06 1.911,00 30.049,03 4.060,46 5.265,16 0,00 0,00 9.325,62 20.723,41 31/01/2023
836 510600 ELIANE CAROLINA MAIA ANALISTA DO MP IGARAPÉ - COMARCA; IGARAPE-PJ-03PJ 11.008,33 2.201,67 0,00 0,00 0,00 0,00 1.137,58 7.723,40 22.070,98 1.894,55 2.085,98 0,00 0,00 3.980,53 18.090,45 31/01/2023
837 262600 ELIANE FERREIRA SOARES ASSESSOR ADMINISTRATIVO II BELO HORIZONTE - COMARCA; BH-18PJ DIREITOS HUMANOS-SECRETARIA 0,00 2.677,86 6.694,66 0,00 0,00 0,00 325,69 1.911,00 11.609,21 877,22 1.833,42 0,00 0,00 2.710,64 8.898,57 31/01/2023
838 204400 ELIANE GLAUCE DE QUEIROS MAIA OFICIAL DO MP GUANHÃES - COMARCA; GUANHAES-PJ-02PJ 18.312,36 7.324,94 0,00 0,00 0,00 0,00 1.267,83 1.911,00 28.816,13 3.882,92 5.113,09 0,00 0,00 8.996,01 19.820,12 31/01/2023
839 91800 ELIANE KAPLER ALVES OFICIAL DO MP BELO HORIZONTE - COMARCA; DIVISAO DE CONTROLE IMOBILIARIO 20.574,59 14.402,22 0,00 0,00 0,00 0,00 2.084,24 7.507,29 44.568,34 5.377,24 7.166,25 0,00 0,00 12.543,49 32.024,85 31/01/2023
840 334200 ELIANE MARCIA DE OLIVEIRA BRITO OFICIAL DO MP BELO HORIZONTE - COMARCA; BH-08PJ JUIZADO ESPECIAL-SECRETARIA 6.694,66 2.008,40 0,00 0,00 0,00 0,00 378,26 1.911,00 10.992,32 1.173,44 1.201,29 0,00 0,00 2.374,73 8.617,59 31/01/2023
841 365900 ELIANE MARIA DE OLIVEIRA FERREIRA OFICIAL DO MP SETE LAGOAS - COMARCA; SETE LAGOAS-PJ-SEC CRIMINAIS 11.008,33 5.504,17 0,00 0,00 0,00 0,00 711,95 1.911,00 19.135,45 2.422,95 3.005,27 0,00 0,00 5.428,22 13.707,23 31/01/2023
842 320600 ELIANE STADLER DE SOUZA OFICIAL DO MP FRANCISCO SÁ - COMARCA; FRANCISCO SA-PJ-SECRETARIA 10.325,15 3.097,55 0,00 0,00 0,00 0,00 621,67 1.911,00 15.955,37 1.928,58 2.239,39 0,00 0,00 4.167,97 11.787,40 31/01/2023
843 448900 ELIAS PEREIRA OTONI ASSESSOR ADMINISTRATIVO II BELO HORIZONTE - COMARCA; BH-18PJ DIREITOS HUMANOS-SECRETARIA 0,00 0,00 6.694,66 0,00 0,00 0,00 189,99 1.911,00 8.795,65 877,22 992,74 0,00 0,00 1.869,96 6.925,69 31/01/2023
844 495400 ELICA SOUZA GASPARONI MATTOS OFICIAL DO MP UBÁ - COMARCA; UBA-PJ-06PJ 9.378,86 1.875,77 0,00 0,00 0,00 0,00 1.052,14 7.763,41 20.070,18 1.581,69 1.790,70 0,00 0,00 3.372,39 16.697,79 31/01/2023
845 86600 ELIENE FERREIRA DA SILVA OFICIAL DO MP BELO HORIZONTE - COMARCA; BH-22PJ PES COM DEF E IDOSOS-SECRETARIA 23.116,32 16.181,42 0,00 0,00 0,00 5.454,90 520,12 7.584,96 52.857,72 5.454,90 8.726,34 3.835,52 0,00 18.016,76 34.840,96 31/01/2023
846 183800 ELIENE MARIA CUNHA OFICIAL DO MP BELO HORIZONTE - COMARCA; DIRETORIA DE PESSOAL ADMINISTRATIVO - DPAD 19.037,29 7.614,92 0,00 0,00 0,00 0,00 1.918,02 7.241,44 35.811,67 4.045,30 5.295,40 0,00 0,00 9.340,70 26.470,97 31/01/2023
847 172300 ELINA APARECIDA SILVA ASSESSOR ADMINISTRATIVO I BELO HORIZONTE - COMARCA; BH-19PJ SAUDE-SECRETARIA 130PJ 0,00 1.738,23 4.345,58 0,00 0,00 0,00 208,31 1.911,00 8.203,12 877,22 876,89 0,00 0,00 1.754,11 6.449,01 31/01/2023
848 492501 ELINE CAMPOS DA FONSECA CUNHA ANALISTA DO MP PONTE NOVA - COMARCA; PONTE NOVA-PJ-05PJ 11.008,33 2.201,67 0,00 0,00 0,00 0,00 1.273,27 7.723,40 22.206,67 1.894,55 2.242,39 0,00 0,00 4.136,94 18.069,73 31/01/2023
849 618900 ELISA MOURA VIEIRA MARCATTI OFICIAL DO MP BELO HORIZONTE - COMARCA; GRUPO ESP PROM JUST DEF PROB ADM PAT PUB 6.694,66 669,47 0,00 0,00 0,00 0,00 349,05 2.796,30 10.509,48 959,93 891,80 0,00 0,00 1.851,73 8.657,75 31/01/2023
850 256500 ELISABETE NOGUEIRA ANALISTA DO MP RIBEIRÃO DAS NEVES - COMARCA; RIBEIRAO NEVES-SEC PJ EXECUCAO PENAL 16.695,70 8.347,85 0,00 0,00 0,00 0,00 1.218,68 1.911,00 28.173,23 3.787,92 4.767,39 0,00 0,00 8.555,31 19.617,92 31/01/2023
851 355000 ELISANGELA DARLANTONI RIBEIRO OFICIAL DO MP ARAXÁ - COMARCA; ARAXA-PJ-05PJ 10.661,25 3.198,38 0,00 0,00 0,00 0,00 753,98 1.911,00 16.524,61 1.998,49 2.340,32 0,00 0,00 4.338,81 12.185,80 31/01/2023
852 604400 ELISANGELA DEMASI FERREIRA MOREIRA ANALISTA DO MP CABO VERDE - COMARCA; CABO VERDE-PJ-UNPJ 11.008,33 1.100,83 0,00 0,00 0,00 0,00 1.158,39 7.723,40 20.990,95 982,16 2.058,60 0,00 0,00 3.040,76 17.950,19 31/01/2023
853 323800 ELISANGELA GONCALVES DE JESUS OFICIAL DO MP BELO HORIZONTE - COMARCA; DIVISAO FROTA 11.008,33 3.302,50 0,00 0,00 0,00 0,00 1.319,86 7.635,33 23.266,02 2.070,68 2.444,54 0,00 0,00 4.515,22 18.750,80 31/01/2023
854 507400 ELISANGELA MIGUEL DA ROCHA SILVA ASSESSOR ADMINISTRATIVO II BELO HORIZONTE - COMARCA; EXTINTA-CGMP-DIV APOIO FISC ORIENT FUNCIONAL 0,00 0,00 6.694,66 0,00 0,00 0,00 762,62 7.802,30 15.259,58 877,22 1.044,87 0,00 0,00 1.922,09 13.337,49 31/01/2023
855 261400 ELISANGELA REZENDE MENDES OFICIAL DO MP POUSO ALEGRE - COMARCA; POUSO ALEGRE-PJ-05PJ 11.008,33 3.302,50 0,00 0,00 0,00 0,00 717,66 1.911,00 16.939,49 2.070,68 2.496,68 0,00 0,00 4.567,36 12.372,13 31/01/2023
856 534100 ELISANGELA ROSINE SILVA OFICIAL DO MP UBERABA - COMARCA; UBERABA-PJ-06PJ 6.694,66 669,47 0,00 0,00 0,00 0,00 909,44 7.802,30 16.075,87 959,93 891,80 0,00 0,00 1.851,73 14.224,14 31/01/2023
857 634300 ELIUDE GRACA DAMASIO ROSARIO FRANCELINO OFICIAL DO MP BELO HORIZONTE - COMARCA; BH-18PJ VIOLENCIA DOMESTICA-SECRETARIA 5.889,39 588,94 0,00 0,00 0,00 0,00 278,30 3.681,60 10.438,23 824,08 685,56 0,00 0,00 1.509,64 8.928,59 31/01/2023
858 461700 ELIZABETH ALEIXO DA PAZ ANALISTA DO MP JUIZ DE FORA - COMARCA; JUIZ DE FORA-PJ-18PJ 11.008,33 2.201,67 0,00 0,00 0,00 0,00 1.226,76 7.723,40 22.160,16 1.894,55 2.242,39 0,00 0,00 4.136,94 18.023,22 31/01/2023
859 227300 ELIZABETH COIMBRA FELIX OFICIAL DO MP BELO HORIZONTE - COMARCA; DIRETORIA DE PAGAMENTO DE PESSOAL-DPAG 16.169,47 6.467,79 0,00 0,00 0,00 0,00 1.803,04 7.343,94 31.784,24 3.402,91 4.315,81 0,00 0,00 7.718,72 24.065,52 31/01/2023
860 354800 ELIZABETH DOS REIS OFICIAL DO MP BELO HORIZONTE - COMARCA; DIVISAO DE MATERIAIS 11.008,33 3.302,50 0,00 0,00 0,00 0,00 671,86 1.911,00 16.893,69 2.070,68 2.444,54 0,00 0,00 4.515,22 12.378,47 31/01/2023
861 612000 ELIZABETH MARIA DE QUEIROZ TANIGUCHI OFICIAL DO MP BELO HORIZONTE - COMARCA; SUPERINTENDENCIA GESTÃO DE PESSOAS 6.081,20 608,12 0,00 0,00 0,00 0,00 307,69 1.911,00 8.908,01 855,73 734,88 0,00 0,00 1.590,61 7.317,40 31/01/2023
862 452800 ELIZANGELA MARIA DAVI OFICIAL DO MP ARCOS - COMARCA; ARCOS-PJ-01PJ 6.694,66 1.338,93 0,00 0,00 0,00 0,00 384,94 1.911,00 10.329,53 1.066,32 994,50 0,00 0,00 2.060,82 8.268,71 31/01/2023
863 496300 ELIZANGELA MARQUES PINTO COELHO OFICIAL DO MP BELO HORIZONTE - COMARCA; DIRETORIA DE PESSOAL ADMINISTRATIVO - DPAD 9.378,86 1.875,77 0,00 0,00 0,00 0,00 1.093,06 7.763,41 20.111,10 1.581,69 1.790,70 0,00 0,00 3.372,39 16.738,71 31/01/2023
864 422500 ELIZETE FORTES DA CUNHA ANALISTA DO MP RIBEIRÃO DAS NEVES - COMARCA; RIBEIRAO DAS NEVES-PJ-07PJ 16.169,47 3.233,89 0,00 0,00 0,00 0,00 1.551,45 7.343,94 28.298,75 2.885,49 3.620,92 0,00 0,00 6.506,41 21.792,34 31/01/2023
865 506100 ELLEM CRISTINA ROCHA FONSECA BOWEN ANALISTA DO MP GOVERNADOR VALADARES - COMARCA; COORD REG PJ DEF EDU DIR CRIANCA ADOL RIODOCE 11.008,33 2.201,67 0,00 0,00 0,00 0,00 571,12 1.911,00 15.692,12 1.894,55 2.242,39 0,00 0,00 4.136,94 11.555,18 31/01/2023
866 468200 ELLEN CRISTINA BERNARDES DARE ANALISTA DO MP TRÊS PONTAS - COMARCA; TRES PONTAS-PJ-02PJ 11.008,33 2.201,67 0,00 0,00 0,00 0,00 1.172,74 8.608,70 22.991,44 1.894,55 2.190,25 0,00 0,00 4.084,80 18.906,64 31/01/2023
867 418800 ELLEN CRISTINA DE QUEIROZ FERREIRA ANALISTA DO MP BELO HORIZONTE - COMARCA; CENTRAL DE APOIO TECNICO-SETOR CONTABIL 15.659,55 3.131,91 0,00 0,00 0,00 0,00 1.354,81 8.500,56 28.646,83 982,16 3.645,37 0,00 0,00 4.627,53 24.019,30 31/01/2023
868 328401 ELLEN CRISTINA FERREIRA MORAIS MONTEIRO ANALISTA DO MP CAMANDUCAIA - COMARCA; CAMANDUCAIA-PJ-UNPJ 15.659,55 3.131,91 0,00 0,00 0,00 0,00 792,31 1.911,00 21.494,77 2.787,58 3.427,43 0,00 0,00 6.215,01 15.279,76 31/01/2023
869 556100 ELLEN CRISTINE BIANCHIN DA SILVA OFICIAL DO MP SÃO GONÇALO DO SAPUCAÍ - COMARCA; SAO GONCALO DO SAPUCAI-PJ-02PJ 6.694,66 669,47 0,00 0,00 0,00 0,00 367,01 1.911,00 9.642,14 959,93 839,66 0,00 0,00 1.799,59 7.842,55 31/01/2023
870 714500 ELLEN PROENCA CARVALHO DE ARAUJO ASSESSOR PROMOTOR JUSTICA MARIANA - COMARCA; MARIANA-PJ-02PJ 0,00 0,00 7.857,77 0,00 0,00 0,00 113,59 1.911,00 9.882,36 877,22 1.416,87 0,00 0,00 2.294,09 7.588,27 31/01/2023
871 447100 ELLEN ROSANA DE MACEDO BORGES OFICIAL DO MP UBERLÂNDIA - COMARCA; UBERLANDIA-PJ-17PJ 9.684,23 1.936,85 0,00 0,00 0,00 0,00 1.150,33 7.489,12 20.260,53 1.640,32 1.875,35 0,00 0,00 3.515,67 16.744,86 31/01/2023
872 477700 ELMA JACOB OFICIAL DO MP BELO HORIZONTE - COMARCA; COORD DE GABINETE DO PGJ 9.378,86 7.503,09 0,00 200,64 0,00 3.822,23 1.286,84 7.313,22 29.504,88 2.482,06 3.773,18 0,00 0,00 6.255,24 23.249,64 31/01/2023
873 123300 ELMA PAULA DOS SANTOS COELHO OFICIAL DO MP BELO HORIZONTE - COMARCA; BH-19PJ SAUDE-SECRETARIA 130PJ 20.574,59 18.517,14 0,00 0,00 0,00 5.454,90 0,00 1.911,00 46.457,63 5.454,90 8.882,75 3.629,51 0,00 17.967,16 28.490,47 31/01/2023
874 728200 ELMITA XISTO DO VALLE ASSESSOR ADMINISTRATIVO I BELO HORIZONTE - COMARCA; DIRET DE FORMACAO, APERFEIC. E POS-GRADUACAO 0,00 0,00 4.345,58 0,00 0,00 0,00 0,00 1.911,00 6.256,58 621,17 521,42 0,00 0,00 1.142,59 5.113,99 31/01/2023
875 356500 ELOISA CARDOSO SILVA FRANCA OFICIAL DO MP PEÇANHA - COMARCA; PECANHA-PJ-SECRETARIA 6.694,66 2.008,40 0,00 0,00 2.901,02 0,00 368,72 1.911,00 13.883,80 1.173,44 1.946,93 0,00 0,00 3.120,37 10.763,43 31/01/2023
876 251901 ELOISA COSTA E SILVA ANALISTA DO MP BELO HORIZONTE - COMARCA; SUPERINTENDENCIA GESTÃO DE PESSOAS 11.008,33 3.302,50 0,00 0,00 4.770,28 0,00 665,69 1.911,00 21.657,80 2.070,68 3.756,37 0,00 0,00 5.827,05 15.830,75 31/01/2023
877 400400 ELOIZA MARIA FERRI PIRES DA SILVA OFICIAL DO MP BELO HORIZONTE - COMARCA; ASSESSORIA DE COMUNICACAO INTEGRADA 9.684,23 1.936,85 0,00 0,00 0,00 0,00 598,67 1.911,00 14.130,75 1.640,32 1.875,35 0,00 0,00 3.515,67 10.615,08 31/01/2023
878 258000 ELSO CECIANO PALMEIRA OFICIAL DO MP BELO HORIZONTE - COMARCA; DIRET DE PESSOAL DO MINISTERIO PUBLICO - DPMP 14.224,47 9.957,13 5.287,54 0,00 0,00 0,00 1.988,62 7.804,83 39.262,59 3.650,00 6.230,90 0,00 0,00 9.880,90 29.381,69 31/01/2023
879 206900 ELVIRA RITA DOS SANTOS ANALISTA DO MP BELO HORIZONTE - COMARCA; CENTRAL DE APOIO TECNICO-SETOR CONTABIL 20.574,59 8.229,84 0,00 392,99 0,00 6.994,53 1.438,58 1.911,00 39.541,53 4.389,66 7.051,86 0,00 0,00 11.441,52 28.100,01 31/01/2023
880 506800 ELVIS FERREIRA DA SILVA ANALISTA DO MP BELO HORIZONTE - COMARCA; DIRETORIA DE SISTEMAS DE INFORMACAO 11.008,33 2.201,67 0,00 0,00 0,00 0,00 1.215,94 8.608,70 23.034,64 1.894,55 2.085,98 0,00 0,00 3.980,53 19.054,11 31/01/2023
881 602400 ELZA MARIA MOREIRA MUNIZ ANALISTA DO MP RIO PARANAÍBA - COMARCA; RIO PARANAIBA-PJ-UNPJ 11.008,33 1.100,83 0,00 0,00 0,00 0,00 1.148,32 7.723,40 20.980,88 1.718,41 1.883,82 0,00 0,00 3.602,23 17.378,65 31/01/2023
882 368401 ELZIRA SIMOES DOS SANTOS ASSESSOR DE GABINETE I BELO HORIZONTE - COMARCA; ASSESSORIA DE COMUNICACAO INTEGRADA 0,00 4.850,84 16.169,47 0,00 0,00 0,00 767,68 1.911,00 23.698,99 877,22 5.036,56 0,00 0,00 5.913,78 17.785,21 31/01/2023
883 437400 EMANOELLE DA SILVA RODRIGUES OFICIAL DO MP UNAÍ - COMARCA; UNAI-PJ-03PJ 8.932,15 1.786,43 0,00 0,00 0,00 0,00 1.122,29 8.369,96 20.210,83 1.495,92 1.614,73 0,00 0,00 3.110,65 17.100,18 31/01/2023
884 458900 EMANUELLE CONRAD SILVA FREDERICO NAVES ANALISTA DO MP ALFENAS - COMARCA; ALFENAS-PJ-05PJ 15.659,55 3.131,91 0,00 0,00 0,00 0,00 1.306,55 8.057,91 28.155,92 2.787,58 3.479,57 0,00 0,00 6.267,15 21.888,77 31/01/2023
885 284100 EMERSON MAGNO ALMEIDA PEDROSA DA FONSECA ANALISTA DO MP BELO HORIZONTE - COMARCA; CENTRAL DE APOIO TECNICO-SETOR CONTABIL 20.574,59 6.172,38 0,00 0,00 0,00 0,00 1.865,90 7.260,39 35.873,26 4.060,46 2.555,75 0,00 0,00 6.616,21 29.257,05 31/01/2023
886 179900 EMERSON MORAIS DIAS OFICIAL DO MP BELO HORIZONTE - COMARCA; SUPERINTENDÊNCIA DE ENGENHARIA E ARQUITETURA 19.037,29 7.614,92 0,00 0,00 0,00 0,00 1.929,77 7.241,44 35.823,42 4.045,30 5.347,54 0,00 0,00 9.392,84 26.430,58 31/01/2023
887 488700 EMERSON SIQUEIRA DE SOUSA TEIXEIRA ANALISTA DO MP ITANHOMI - COMARCA; ITANHOMI-PJ-UNPJ 11.008,33 2.201,67 0,00 0,00 0,00 0,00 724,96 1.911,00 15.845,96 1.894,55 2.085,98 0,00 0,00 3.980,53 11.865,43 31/01/2023
888 194200 EMILIA ALVES FERREIRA RAMOS OFICIAL DO MP UBERLÂNDIA - COMARCA; UBERLANDIA-PJ-SEC CIVEIS CRIMINAIS 13.341,69 5.336,68 0,00 0,00 0,00 0,00 1.624,85 7.888,08 28.191,30 2.769,49 3.505,58 0,00 0,00 6.275,07 21.916,23 31/01/2023
889 679500 EMILY DIAS LEMOS E SILVA ASSESSOR PROCURADOR JUSTICA BELO HORIZONTE - COMARCA; GABINETE DE PROCURADOR DE JUSTIÇA - SALA 307 0,00 0,00 7.857,77 0,00 0,00 0,00 920,84 8.768,21 17.546,82 877,22 1.312,59 0,00 0,00 2.189,81 15.357,01 31/01/2023
890 620700 EMILY FONTANA DE SIQUEIRA ANALISTA DO MP BELO HORIZONTE - COMARCA; BH-18PJ VIOLENCIA DOMESTICA-SECRETARIA 10.325,15 1.032,52 0,00 0,00 0,00 0,00 534,40 2.796,30 14.688,37 1.598,18 1.762,36 0,00 0,00 3.360,54 11.327,83 31/01/2023
891 297000 ENEIDA SOARES COSTA MELO ANALISTA DO MP PIUMHI - COMARCA; PIUMHI-PJ-01PJ 20.574,59 6.172,38 0,00 0,00 0,00 0,00 1.881,60 7.260,39 35.888,96 4.060,46 5.369,43 0,00 0,00 9.429,89 26.459,07 31/01/2023
892 276000 ENEZIO RODRIGUES DE SOUZA FILHO OFICIAL DO MP UBERLÂNDIA - COMARCA; UBERLANDIA-PJ-10PJ 11.008,33 3.302,50 0,00 0,00 0,00 0,00 693,96 1.911,00 16.915,79 2.070,68 2.496,68 0,00 0,00 4.567,36 12.348,43 31/01/2023
893 387700 ENI MARIA DOS REIS OFICIAL DO MP POUSO ALEGRE - COMARCA; POUSO ALEGRE-PJ-07PJ 11.008,33 2.201,67 0,00 0,00 0,00 0,00 639,48 1.911,00 15.760,48 1.894,55 2.242,39 0,00 0,00 4.136,94 11.623,54 31/01/2023
894 605100 ENIA MAIA ASSESSOR ADMINISTRATIVO IV BELO HORIZONTE - COMARCA; DIRETORIA DE ORCAMENTO-DIOR/SPC 12.920,95 1.292,10 0,00 0,00 0,00 0,00 1.178,53 7.596,22 22.987,80 959,93 2.764,45 0,00 0,00 3.724,38 19.263,42 31/01/2023
895 612200 ENILDO GOMES MEIRA FILHO ANALISTA DO MP BELO HORIZONTE - COMARCA; BH-23PJ INFRACIONAL-ASS JURIDICA 10.325,15 1.032,52 0,00 0,00 0,00 0,00 3.550,75 8.702,29 23.610,71 1.972,00 2.197,80 0,00 0,00 4.169,80 19.440,91 31/01/2023
896 553700 ENIVALDO NOVATO PUBLIO ANALISTA DO MP DIVINÓPOLIS - COMARCA; DIVINOPOLIS-PJ-09PJ 11.008,33 1.100,83 0,00 0,00 0,00 0,00 580,69 1.911,00 14.600,85 1.718,41 1.935,96 0,00 0,00 3.654,37 10.946,48 31/01/2023
897 680600 ENZO JOSE FERES SOUZA JABER ASSESSOR PROMOTOR JUSTICA NOVO CRUZEIRO - COMARCA; NOVO CRUZEIRO-PJ-SECRETARIA 0,00 0,00 7.857,77 0,00 0,00 0,00 897,57 7.882,91 16.638,25 877,22 1.416,87 0,00 0,00 2.294,09 14.344,16 31/01/2023
898 417300 ERIC BARATTI DA SILVA ANALISTA DO MP FRUTAL - COMARCA; FRUTAL-PJ-05PJ 12.118,97 2.423,79 0,00 0,00 4.847,59 0,00 725,41 1.911,00 22.026,76 2.107,79 3.883,34 0,00 0,00 5.991,13 16.035,63 31/01/2023
899 637600 ERIC DA ROCHA CHEHUEN ANALISTA DO MP LIMA DUARTE - COMARCA; LIMA DUARTE-PJ-UNPJ 9.999,62 999,96 0,00 0,00 0,00 0,00 469,22 1.911,00 13.379,80 982,16 1.885,43 0,00 0,00 2.867,59 10.512,21 31/01/2023
900 398900 ERIC TEIXEIRA SILVA OFICIAL DO MP UBERLÂNDIA - COMARCA; UBERLANDIA-PJ-SEC CIVEIS CRIMINAIS 10.661,25 2.132,25 0,00 0,00 0,00 0,00 592,64 1.911,00 15.297,14 1.827,91 2.146,18 0,00 0,00 3.974,09 11.323,05 31/01/2023
901 703600 ERICA CORDEIRO SANTOS ASSESSOR PROMOTOR JUSTICA MINAS NOVAS - COMARCA; MINAS NOVAS-PJ-UNPJ 0,00 0,00 7.857,77 0,00 0,00 0,00 287,79 1.911,00 10.056,56 877,22 1.416,87 0,00 0,00 2.294,09 7.762,47 31/01/2023
902 274200 ERICA DE SOUZA ANDRADE OFICIAL DO MP CURVELO - COMARCA; CURVELO-PJ-03PJ 13.341,69 4.002,51 0,00 0,00 0,00 0,00 1.440,62 7.461,14 26.245,96 2.556,02 3.145,25 0,00 0,00 5.701,27 20.544,69 31/01/2023
903 225700 ERICA GOMES DO COUTO OFICIAL DO MP BELO HORIZONTE - COMARCA; BH-21PJ TUTELA FUNDACOES-SECRETARIA 16.695,70 6.678,28 0,00 0,00 0,00 0,00 987,82 2.796,30 27.158,10 3.520,79 4.590,27 0,00 0,00 8.111,06 19.047,04 31/01/2023
904 632600 ERICA LEONOR MARTINS OFICIAL DO MP RESENDE COSTA - COMARCA; RESENDE COSTA-PJ-UNPJ 6.483,63 648,36 0,00 0,00 0,00 0,00 297,06 1.911,00 9.340,05 923,95 837,85 0,00 0,00 1.761,80 7.578,25 31/01/2023
905 524800 ERICA MACHADO DA COSTA E SOUZA ANALISTA DO MP BELO HORIZONTE - COMARCA; ASSESS TECNICO-JUR JUNTO AS PROC. DE JUST 12.118,97 2.423,79 0,00 0,00 0,00 0,00 735,26 1.911,00 17.189,02 2.107,79 2.550,26 0,00 0,00 4.658,05 12.530,97 31/01/2023
906 249500 ERICA RODRIGUES ANDRADE OFICIAL DO MP SÃO FRANCISCO - COMARCA; SAO FRANCISCO-PJ-02PJ 11.008,33 3.302,50 0,00 0,00 0,00 0,00 1.265,20 7.635,33 23.211,36 2.070,68 2.444,54 0,00 0,00 4.515,22 18.696,14 31/01/2023
907 260800 ERICA VIANA GIARDINI DE OLIVEIRA OFICIAL DO MP BELO HORIZONTE - COMARCA; DIRETORIA GESTAO COMPRAS LICITACOES 11.736,91 3.521,07 0,00 0,00 0,00 0,00 633,10 1.911,00 17.802,08 2.222,23 2.715,47 0,00 0,00 4.937,70 12.864,38 31/01/2023
908 299800 ERICH DOUGLAS RIBEIRO GARCIA ANALISTA DO MP BELO HORIZONTE - COMARCA; CENTRAL DE APOIO TECNICO-SETOR CONTABIL 19.791,01 5.937,30 0,00 0,00 0,00 0,00 1.713,99 7.056,66 34.498,96 3.897,48 5.134,12 0,00 0,00 9.031,60 25.467,36 31/01/2023
909 365000 ERICK EDUARDO JOSE DA SILVA OFICIAL DO MP JUIZ DE FORA - COMARCA; JUIZ DE FORA-PJ-12PJ 6.694,66 2.008,40 0,00 0,00 0,00 0,00 426,51 1.911,00 11.040,57 1.173,44 1.201,29 0,00 0,00 2.374,73 8.665,84 31/01/2023
910 227400 ERIKA DE LAET GOULART BOECHAT OFICIAL DO MP BELO HORIZONTE - COMARCA; BH-17PJ PATRIMONIO PUBLICO-SECRETARIA 16.695,70 5.008,71 0,00 0,00 0,00 0,00 1.493,78 7.120,06 30.318,25 3.253,65 4.152,46 0,00 0,00 7.406,11 22.912,14 31/01/2023
911 681301 ERIKA FERNANDA ELISEU FERREIRA ASSESSOR PROCURADOR JUSTICA BELO HORIZONTE - COMARCA; GABINETE DE PROCURADOR DE JUSTIÇA - SALA 411 0,00 0,00 7.857,77 0,00 0,00 0,00 231,08 1.911,00 9.999,85 877,22 1.416,87 0,00 0,00 2.294,09 7.705,76 31/01/2023
912 285100 ERIKA FERREIRA DA SILVA OFICIAL DO MP JUIZ DE FORA - COMARCA; JUIZ DE FORA-PJ-11PJ 11.008,33 3.302,50 0,00 0,00 0,00 0,00 1.272,70 7.635,33 23.218,86 2.070,68 2.496,68 0,00 0,00 4.567,36 18.651,50 31/01/2023
913 420100 ERIKA JEANINE VERSIANI DE CASTRO ANALISTA DO MP BELO HORIZONTE - COMARCA; CAO-EDUCACAO 16.169,47 3.233,89 0,00 0,00 0,00 0,00 1.533,84 7.343,94 28.281,14 2.885,49 3.673,05 0,00 0,00 6.558,54 21.722,60 31/01/2023
914 677100 ERIKA LAYS CARDOSO FERNANDES ASSESSOR PROMOTOR JUSTICA GRAO MOGOL - COMARCA; GRAO MOGOL-PJ-UNPJ 0,00 0,00 7.857,77 0,00 0,00 0,00 619,35 5.054,11 13.531,23 877,22 1.416,87 0,00 0,00 2.294,09 11.237,14 31/01/2023
915 606900 ERIKA MARIA BARBOSA ANALISTA DO MP BELO HORIZONTE - COMARCA; CAO-SAUDE 10.325,15 1.032,52 0,00 0,00 0,00 0,00 530,24 1.911,00 13.798,91 1.598,18 1.762,36 0,00 0,00 3.360,54 10.438,37 31/01/2023
916 491000 ERIKA ROCHA PEREIRA E SILVA COORDENADOR II BELO HORIZONTE - COMARCA; DIR GOVERNANCA TECNOLOGIA INFORMACAO 18.312,36 3.662,47 0,00 0,00 0,00 0,00 1.401,75 7.184,96 30.561,54 2.034,43 4.192,08 0,00 1.535,17 7.761,68 22.799,86 31/01/2023
917 283201 ERIKA STEHLING COORDENADOR I BELO HORIZONTE - COMARCA; CENTRAL DE APOIO TECNICO-SETOR DE ENGENHARIA 14.687,60 2.937,52 0,00 0,00 0,00 0,00 756,05 1.911,00 20.292,17 1.894,55 3.456,55 0,00 0,00 5.351,10 14.941,07 31/01/2023
918 254000 ERLANDIA DA SILVA MENDES OFICIAL DO MP IPATINGA - COMARCA; IPATINGA-PJ-03PJ 15.659,55 6.263,82 0,00 0,00 0,00 0,00 1.564,79 7.172,61 30.660,77 3.288,69 4.098,77 0,00 0,00 7.387,46 23.273,31 31/01/2023
919 348500 ERNILANDIA DE OLIVEIRA DIAS OFICIAL DO MP MONTES CLAROS - COMARCA; MONTES CLAROS-PJ-16PJ 11.008,33 3.302,50 0,00 0,00 0,00 0,00 702,58 1.911,00 16.924,41 2.070,68 2.496,68 0,00 0,00 4.567,36 12.357,05 31/01/2023
920 199300 ERTON PORTINARI DE ANDRADE OFICIAL DO MP SETE LAGOAS - COMARCA; SETE LAGOAS-PJ-05PJ 18.312,36 7.324,94 0,00 0,00 0,00 0,00 1.687,84 7.038,46 34.363,60 3.882,92 5.008,82 0,00 0,00 8.891,74 25.471,86 31/01/2023
921 618800 ESLY DE CARLA AYALLA BARBOSA MENDES OFICIAL DO MP NOVA LIMA - COMARCA; NOVA LIMA-PJ-SECRETARIA 6.081,20 608,12 0,00 0,00 0,00 0,00 319,51 1.911,00 8.919,83 855,73 734,88 0,00 0,00 1.590,61 7.329,22 31/01/2023
922 537000 ESTANISLAU CORREIA ALMEIDA JUNIOR OFICIAL DO MP UBERLÂNDIA - COMARCA; UBERLANDIA-PJ-25PJ 6.694,66 669,47 0,00 0,00 0,00 0,00 372,74 1.911,00 9.647,87 959,93 891,80 0,00 0,00 1.851,73 7.796,14 31/01/2023
923 692100 ESTEFANIA FARIA FERREIRA ASSESSOR PROCURADOR JUSTICA BELO HORIZONTE - COMARCA; GABINETE DE PROCURADOR DE JUSTIÇA - SALA 814 0,00 0,00 7.857,77 0,00 0,00 0,00 871,03 7.882,91 16.611,71 877,22 1.416,87 0,00 0,00 2.294,09 14.317,62 31/01/2023
924 326900 ESTER ALICE PIMENTA OFICIAL DO MP BELO HORIZONTE - COMARCA; COORD DE INCLUSAO E MOBILIZACAO SOCIAIS 11.008,33 3.302,50 0,00 0,00 0,00 0,00 1.283,43 7.635,33 23.229,59 2.070,68 2.496,68 0,00 0,00 4.567,36 18.662,23 31/01/2023
925 503700 ESTHER GONCALVES FONSECA ANALISTA DO MP BELO HORIZONTE - COMARCA; DIR CRIACAO E MIDIAS 11.008,33 2.201,67 0,00 0,00 0,00 0,00 575,85 1.911,00 15.696,85 1.894,55 2.242,39 0,00 0,00 4.136,94 11.559,91 31/01/2023
926 475600 ETIENE DE FATIMA OLIVEIRA PEREIRA ANALISTA DO MP PATROCÍNIO - COMARCA; PATROCINIO-PJ-04PJ 11.008,33 2.201,67 0,00 0,00 0,00 0,00 584,31 1.911,00 15.705,31 982,16 2.195,74 0,00 0,00 3.177,90 12.527,41 31/01/2023
927 428800 EUGENIA RODRIGUES TRAJANO BORGES ANALISTA DO MP UBERABA - COMARCA; UBERABA-PJ-10PJ 15.659,55 3.131,91 0,00 0,00 0,00 0,00 1.046,54 5.051,28 24.889,28 2.787,58 3.531,71 0,00 0,00 6.319,29 18.569,99 31/01/2023
928 272700 EUGENIO DE BARCELOS FILHO OFICIAL DO MP FRUTAL - COMARCA; FRUTAL-PJ-03PJ 11.008,33 3.302,50 0,00 0,00 0,00 0,00 635,41 1.911,00 16.857,24 2.070,68 2.496,68 0,00 0,00 4.567,36 12.289,88 31/01/2023
929 254100 EULALIA ALVES MIRANDA LUCAS OFICIAL DO MP ALMENARA - COMARCA; ALMENARA-PJ-02PJ 14.224,47 5.689,79 0,00 0,00 0,00 0,00 1.455,05 7.486,99 28.856,30 2.967,23 3.686,80 0,00 0,00 6.654,03 22.202,27 31/01/2023
930 641200 EUNICE ELVIRA DA SILVA MATOS OFICIAL DO MP BELO HORIZONTE - COMARCA; BH-14PJ DEFESA CONSUMIDOR-SECRETARIA 5.889,39 588,94 0,00 0,00 0,00 0,00 271,88 1.911,00 8.661,21 824,08 685,56 0,00 0,00 1.509,64 7.151,57 31/01/2023
931 557900 EURIPEDES JOSUE PERES OFICIAL DO MP IBIÁ - COMARCA; IBIA-PJ-UNPJ 6.694,66 669,47 0,00 0,00 0,00 0,00 364,73 1.911,00 9.639,86 959,93 891,80 0,00 0,00 1.851,73 7.788,13 31/01/2023
932 225800 EURO CESAR VIEIRA BARBOSA ANALISTA DO MP BELO HORIZONTE - COMARCA; BH-17PJ PATRIMONIO PUBLICO-SECRETARIA 20.574,59 8.229,84 0,00 0,00 0,00 0,00 1.991,78 7.671,89 38.468,10 4.389,66 5.740,43 0,00 0,00 10.130,09 28.338,01 31/01/2023
933 199400 EUSTAQUIO ADAILTON LIMA E SILVA OFICIAL DO MP MANGA - COMARCA; MANGA-PJ-01PJ 18.312,36 12.818,66 0,00 0,00 0,00 0,00 1.937,99 6.891,96 39.960,97 4.761,91 6.225,73 0,00 0,00 10.987,64 28.973,33 31/01/2023
934 548000 EVA VILMA LEAO REIS JULIO OFICIAL DO MP BELO HORIZONTE - COMARCA; BH-07PJ 01 TRIBUNAL JURI-SECRETARIA 6.694,66 2.677,86 0,00 0,00 0,00 0,00 402,49 1.911,00 11.686,01 1.280,55 1.355,93 0,00 0,00 2.636,48 9.049,53 31/01/2023
935 517000 EVALDO SENA COSTA FILHO ANALISTA DO MP CONTAGEM - COMARCA; CONTAGEM-PJ-20PJ 11.008,33 4.403,33 0,00 0,00 0,00 0,00 754,18 1.911,00 18.076,84 2.246,81 2.646,70 0,00 0,00 4.893,51 13.183,33 31/01/2023
936 217500 EVELANGE LEAO RABELO ASSESSOR ADMINISTRATIVO II BELO HORIZONTE - COMARCA; CAO-PESSOAS IDOSAS E PESSOAS COM DEFICIENCIA 0,00 2.677,86 6.694,66 0,00 0,00 0,00 334,61 1.911,00 11.618,13 877,22 1.833,42 0,00 0,00 2.710,64 8.907,49 31/01/2023
937 679600 EVERTON BARBOSA DA SILVA ASSESSOR PROCURADOR JUSTICA BELO HORIZONTE - COMARCA; GABINETE DE PROCURADOR DE JUSTIÇA - SALA 510 0,00 0,00 7.857,77 0,00 0,00 0,00 365,48 1.911,00 10.134,25 877,22 1.416,87 0,00 0,00 2.294,09 7.840,16 31/01/2023
938 540400 EVIE SARAMELLA DE RESENDE OFICIAL DO MP BARBACENA - COMARCA; BARBACENA-PJ-05PJ 6.694,66 669,47 0,00 0,00 0,00 0,00 410,67 1.911,00 9.685,80 959,93 891,80 0,00 0,00 1.851,73 7.834,07 31/01/2023
939 469000 EWERTON CARDOSO DE SA RODRIGUES ANALISTA DO MP CAMPO BELO - COMARCA; CAMPO BELO-PJ-02PJ 11.008,33 2.201,67 0,00 0,00 0,00 0,00 1.169,97 7.723,40 22.103,37 1.894,55 2.138,11 0,00 0,00 4.032,66 18.070,71 31/01/2023
940 368900 FABIANA BARBOSA SIQUEIRA OFICIAL DO MP BELO HORIZONTE - COMARCA; CAO-ORDEM ECONOMICA E TRIBUTARIA-SECRETARIA 12.118,97 3.635,69 0,00 0,00 0,00 0,00 1.376,11 7.582,68 24.713,45 2.301,69 2.778,07 0,00 0,00 5.079,76 19.633,69 31/01/2023
941 273800 FABIANA CARNEIRO AMORIM OFICIAL DO MP BELO HORIZONTE - COMARCA; BH-23PJ CIVEL-COORD ADM CIVEL 13.776,02 4.132,81 3.876,29 0,00 0,00 0,00 1.598,42 7.139,43 30.522,97 2.646,36 4.341,66 0,00 0,00 6.988,02 23.534,95 31/01/2023
942 519300 FABIANA DE OLIVEIRA LOUREIRO ANALISTA DO MP BELO HORIZONTE - COMARCA; BH-09PJ AUDITORIA MILITAR-SECRETARIA 11.008,33 2.201,67 0,00 0,00 0,00 0,00 620,16 1.911,00 15.741,16 1.894,55 2.242,39 0,00 0,00 4.136,94 11.604,22 31/01/2023
943 363400 FABIANA DOURADO DUPIN VIEGAS ANALISTA DO MP BELO HORIZONTE - COMARCA; GABINETE DE PROCURADOR DE JUSTIÇA - SALA 705 19.037,29 5.711,19 0,00 0,00 0,00 0,00 1.104,55 1.911,00 27.764,03 3.740,71 4.855,64 0,00 0,00 8.596,35 19.167,68 31/01/2023
944 410800 FABIANA DUARTE QUITITE ANALISTA DO MP BELO HORIZONTE - COMARCA; BH-15PJ M AMB PAT HIST CULT-GAB 116PJ 16.169,47 3.233,89 0,00 0,00 0,00 0,00 1.610,84 7.343,94 28.358,14 2.885,49 3.673,05 0,00 0,00 6.558,54 21.799,60 31/01/2023
945 419500 FABIANA EULALIA DOS SANTOS ANALISTA DO MP SÃO JOÃO DEL REI - COMARCA; SAO JOAO DEL REI-PJ-01PJ 16.169,47 3.233,89 0,00 0,00 0,00 0,00 1.563,81 7.343,94 28.311,11 2.885,49 3.673,05 0,00 0,00 6.558,54 21.752,57 31/01/2023
946 725200 FABIANA LOPES DE JESUS ASSESSOR PROMOTOR JUSTICA CONTAGEM - COMARCA; CONTAGEM-PJ-01PJ 0,00 0,00 7.857,77 0,00 0,00 0,00 0,00 1.911,00 9.768,77 877,22 1.416,87 0,00 0,00 2.294,09 7.474,68 31/01/2023
947 700300 FABIANA MARCIA DE SOUZA ASSESSOR ADMINISTRATIVO II BELO HORIZONTE - COMARCA; DIRET DE CONTROLE E DE MANUTENCAO DE IMOVEIS 0,00 0,00 6.694,66 0,00 0,00 0,00 136,66 1.911,00 8.742,32 877,22 1.097,01 0,00 0,00 1.974,23 6.768,09 31/01/2023
948 331500 FABIANA PACHECO OFICIAL DO MP GUAXUPÉ - COMARCA; GUAXUPE-PJ-01PJ 11.008,33 3.302,50 0,00 0,00 0,00 0,00 634,38 2.796,30 17.741,51 2.070,68 2.392,41 0,00 0,00 4.463,09 13.278,42 31/01/2023
949 510700 FABIANA PEREIRA SANTOS BORGES ANALISTA DO MP BELO HORIZONTE - COMARCA; DIRETORIA DE SISTEMAS DE INFORMACAO 11.008,33 2.201,67 4.939,72 0,00 0,00 0,00 764,10 3.362,98 22.276,80 1.894,55 3.548,67 0,00 0,00 5.443,22 16.833,58 31/01/2023
950 181700 FABIANA SOUZA FERREIRA OFICIAL DO MP BELO HORIZONTE - COMARCA; BH-19PJ SAUDE-SECRETARIA 150PJ 6.694,66 2.677,86 0,00 0,00 0,00 0,00 453,05 1.911,00 11.736,57 1.280,55 1.251,66 0,00 0,00 2.532,21 9.204,36 31/01/2023
951 272900 FABIANA STOCKLER LEITE OFICIAL DO MP LAJINHA - COMARCA; LAJINHA-PJ-SECRETARIA 11.008,33 5.504,17 0,00 0,00 0,00 0,00 1.416,47 7.855,50 25.784,47 2.422,95 2.953,13 0,00 0,00 5.376,08 20.408,39 31/01/2023
952 225500 FABIANE DE FATIMA PORTELLA ANALISTA DO MP BELO HORIZONTE - COMARCA; BH-18PJ DIREITOS HUMANOS-SECRETARIA 20.574,59 8.229,84 0,00 0,00 0,00 0,00 1.143,65 1.911,00 31.859,08 4.389,66 5.844,70 0,00 0,00 10.234,36 21.624,72 31/01/2023
953 433800 FABIANE DINIZ MATTOS ANALISTA DO MP BELO HORIZONTE - COMARCA; BH-23PJ INFRACIONAL-ASS JURIDICA 16.169,47 3.233,89 0,00 0,00 0,00 0,00 5.020,40 3.681,60 28.105,36 3.524,15 4.595,13 0,00 0,00 8.119,28 19.986,08 31/01/2023
954 455000 FABIANO CARVALHO DA SILVA ANALISTA DO MP LAVRAS - COMARCA; LAVRAS-PJ-05PJ 11.008,33 2.201,67 0,00 0,00 0,00 0,00 1.162,91 7.723,40 22.096,31 1.894,55 2.242,39 0,00 0,00 4.136,94 17.959,37 31/01/2023
955 498800 FABIANO FURTADO PESSOA COELHO ANALISTA DO MP BELO HORIZONTE - COMARCA; DIRETORIA DE REDES E BANCOS DE DADOS 11.008,33 2.201,67 3.585,64 0,00 0,00 0,00 630,58 1.911,00 19.337,22 1.894,55 3.124,17 0,00 0,00 5.018,72 14.318,50 31/01/2023
956 663000 FABIANO MARQUES CORREA ASSESSOR ADMINISTRATIVO II BELO HORIZONTE - COMARCA; DIRETORIA DE SUPORTE E MANUTENCAO 0,00 0,00 6.694,66 0,00 2.231,55 0,00 314,52 2.714,36 11.955,09 877,22 1.710,69 0,00 0,00 2.587,91 9.367,18 31/01/2023
957 394600 FABIANO PALHARES SILVA ANALISTA DO MP BELO HORIZONTE - COMARCA; CENTRAL DE APOIO TECN-SETOR DE MEIO AMBIENTE 16.695,70 3.339,14 0,00 0,00 0,00 0,00 1.034,54 1.911,00 22.980,38 2.986,52 3.766,79 0,00 0,00 6.753,31 16.227,07 31/01/2023
958 676600 FABIANO RESENDE VELOSO ASSESSOR PROCURADOR JUSTICA BELO HORIZONTE - COMARCA; GABINETE DE PROCURADOR DE JUSTIÇA - SALA 1002 0,00 0,00 7.857,77 0,00 0,00 0,00 334,35 1.911,00 10.103,12 877,22 1.416,87 0,00 0,00 2.294,09 7.809,03 31/01/2023
959 444400 FABIANO SARAIVA MEDEIROS ANALISTA DO MP BETIM - COMARCA; BETIM-PJ-11PJ 15.659,55 3.131,91 0,00 0,00 0,00 0,00 1.322,12 7.172,61 27.286,19 2.787,58 3.427,43 0,00 0,00 6.215,01 21.071,18 31/01/2023
960 408700 FABIANO SOARES PORTILHO ANALISTA DO MP JUIZ DE FORA - COMARCA; GAECO REGIONAL DA ZONA DA MATA-JUIZ DE FORA 16.169,47 3.233,89 0,00 0,00 0,00 0,00 1.508,57 7.343,94 28.255,87 2.885,49 3.673,05 0,00 0,00 6.558,54 21.697,33 31/01/2023
961 442600 FABIO CARVALHO VIEIRA ANALISTA DO MP MONTES CLAROS - COMARCA; MONTES CLAROS-PJ-06PJ 11.008,33 2.201,67 0,00 0,00 0,00 0,00 704,05 1.911,00 15.825,05 1.894,55 2.242,39 0,00 0,00 4.136,94 11.688,11 31/01/2023
962 716600 FABIO DAMASCENA MONTEIRO DE CARVALHO ASSESSOR PROMOTOR JUSTICA JACINTO - COMARCA; JACINTO-PJ-UNPJ 0,00 0,00 7.857,77 0,00 0,00 0,00 65,43 1.911,00 9.834,20 877,22 1.416,87 0,00 0,00 2.294,09 7.540,11 31/01/2023
963 702700 FABIO JUNIOR COSTA BARREIROS ASSESSOR ADMINISTRATIVO I BELO HORIZONTE - COMARCA; DIVISAO DE MANUTENCAO PREDIAL 0,00 0,00 4.345,58 0,00 0,00 0,00 522,88 6.256,58 11.125,04 858,07 199,20 0,00 0,00 1.057,27 10.067,77 31/01/2023
964 240101 FABIO JUNQUEIRA DE ASSIS FONSECA OFICIAL DO MP BELO HORIZONTE - COMARCA; BH-17PJ PATRIMONIO PUBLICO-SECRETARIA 9.223,00 2.766,90 0,00 0,00 0,00 0,00 1.125,52 7.666,15 20.781,57 1.699,33 1.960,55 0,00 0,00 3.659,88 17.121,69 31/01/2023
965 271500 FABIO LUIZ VIEIRA OFICIAL DO MP SANTA VITÓRIA - COMARCA; SANTA VITORIA-PJ-UNPJ 11.008,33 3.302,50 0,00 0,00 0,00 0,00 1.281,68 7.635,33 23.227,84 2.070,68 2.444,54 0,00 0,00 4.515,22 18.712,62 31/01/2023
966 213100 FABIO PRATES GONCALVES ASSESSOR ADMINISTRATIVO IV BELO HORIZONTE - COMARCA; DIR RELACOES INSTITUCIONAIS 0,00 5.168,38 12.920,95 0,00 0,00 0,00 715,53 1.911,00 20.715,86 877,22 4.074,13 0,00 0,00 4.951,35 15.764,51 31/01/2023
967 436700 FABIO SANTIAGO DE CARVALHO OFICIAL DO MP POÇO FUNDO - COMARCA; POCO FUNDO-PJ-UNPJ 9.999,62 1.999,92 0,00 0,00 0,00 0,00 1.160,48 7.670,78 20.830,80 1.700,87 1.962,77 0,00 0,00 3.663,64 17.167,16 31/01/2023
968 208400 FABIOLA DE SOUSA CARDOSO ANALISTA DO MP BELO HORIZONTE - COMARCA; CGMP-ASSESSORIA JURIDICA 20.574,59 8.229,84 5.493,71 0,00 0,00 0,00 2.116,29 7.398,70 43.813,13 4.389,66 7.355,47 0,00 0,00 11.745,13 32.068,00 31/01/2023
969 392200 FABIOLA LEROY COSTA ANALISTA DO MP ESMERALDAS - COMARCA; ESMERALDAS-PJ-01PJ 11.008,33 2.201,67 0,00 0,00 0,00 0,00 573,11 3.681,60 17.464,71 1.894,55 2.242,39 0,00 0,00 4.136,94 13.327,77 31/01/2023
970 409000 FABIOLA MONTEIRO DE CARVALHO CASTRO ANALISTA DO MP BOM SUCESSO - COMARCA; BOM SUCESSO-PJ-UNPJ 13.776,02 2.755,20 0,00 0,00 0,00 0,00 1.462,53 7.862,24 25.855,99 2.425,94 3.009,59 0,00 0,00 5.435,53 20.420,46 31/01/2023
971 525800 FABRICIA ALVES DANTAS OFICIAL DO MP MONTES CLAROS - COMARCA; MONTES CLAROS-PJ-01PJ 8.650,50 1.730,10 0,00 0,00 0,00 0,00 997,11 7.724,14 19.101,85 1.441,84 1.536,66 0,00 0,00 2.978,50 16.123,35 31/01/2023
972 263400 FABRICIA PINTO TEIXEIRA SANTIAGO OFICIAL DO MP BELO HORIZONTE - COMARCA; CAO-FUNDACOES-SECRETARIA 15.659,55 4.697,87 0,00 0,00 0,00 0,00 1.453,90 7.611,08 29.422,40 3.038,14 3.789,17 0,00 0,00 6.827,31 22.595,09 31/01/2023
973 420800 FABRICIO BERNARDES DE OLIVEIRA OFICIAL DO MP ITURAMA - COMARCA; ITURAMA-PJ-02PJ 9.999,62 1.999,92 0,00 0,00 0,00 0,00 1.160,48 8.622,14 21.782,16 1.700,87 1.910,64 0,00 0,00 3.611,51 18.170,65 31/01/2023
974 474000 FABRICIO DE FREITAS SALES ANALISTA DO MP MONTES CLAROS - COMARCA; COORD REG PP NORTE MINAS GERAIS MONTES CLAROS 11.008,33 2.201,67 0,00 0,00 0,00 0,00 1.188,43 7.723,40 22.121,83 1.894,55 2.242,39 0,00 0,00 4.136,94 17.984,89 31/01/2023
975 510100 FABRICIO FURTADO ASSIS DO CARMO ANALISTA DO MP BELO HORIZONTE - COMARCA; SERVICO MEDICO-DEPTO PERIC MEDICA SAUDE OCUP 11.008,33 2.201,67 0,00 0,00 0,00 0,00 1.751,00 3.681,60 18.642,60 1.894,55 2.532,05 0,00 0,00 4.426,60 14.216,00 31/01/2023
976 519600 FABRICIO GONTIJO SALVATI ANALISTA DO MP JUIZ DE FORA - COMARCA; JUIZ DE FORA-CAO ESPECIALIZADO-SECRETARIA 11.008,33 2.201,67 0,00 0,00 0,00 0,00 564,74 1.911,00 15.685,74 1.894,55 2.242,39 0,00 0,00 4.136,94 11.548,80 31/01/2023
977 637400 FABRICIO HENRIQUE DA SILVA PASSOS ANALISTA DO MP BELO HORIZONTE - COMARCA; DIR CRIACAO E MIDIAS 11.008,33 1.100,83 3.585,64 0,00 0,00 0,00 560,49 1.911,00 18.166,29 1.718,41 2.974,15 0,00 0,00 4.692,56 13.473,73 31/01/2023
978 428200 FABRICIO ORZIL VIANA ANALISTA DO MP SANTA LUZIA - COMARCA; SANTA LUZIA-PJ-04PJ 11.008,33 2.201,67 0,00 0,00 0,00 0,00 1.224,42 7.723,40 22.157,82 1.894,55 2.242,39 0,00 0,00 4.136,94 18.020,88 31/01/2023
979 455600 FABRICIO PAIVA DA ROCHA ANALISTA DO MP SÃO JOÃO DEL REI - COMARCA; SAO JOAO DEL REI-PJ-06PJ 11.008,33 2.201,67 0,00 0,00 0,00 0,00 1.230,06 8.608,70 23.048,76 1.894,55 2.190,25 0,00 0,00 4.084,80 18.963,96 31/01/2023
980 511500 FABRICIO RENE CARDOSO DE PADUA ANALISTA DO MP SÃO SEBASTIÃO DO PARAÍSO - COMARCA; SAO SEBASTIAO DO PARAISO-PJ-03PJ 11.008,33 2.201,67 0,00 0,00 0,00 0,00 1.123,73 7.723,40 22.057,13 1.894,55 2.242,39 0,00 0,00 4.136,94 17.920,19 31/01/2023
981 496100 FABRICIO RESENDE GONCALVES OFICIAL DO MP ENTRE-RIOS DE MINAS - COMARCA; ENTRE RIOS DE MINAS-PJ-UNPJ 8.650,50 1.730,10 0,00 0,00 0,00 0,00 442,72 1.911,00 12.734,32 1.441,84 1.588,80 0,00 0,00 3.030,64 9.703,68 31/01/2023
982 650300 FABRICIO ROBERTO AZEVEDO OFICIAL DO MP NOVA SERRANA - COMARCA; NOVA SERRANA-PJ-04PJ 5.438,14 543,81 0,00 0,00 0,00 0,00 275,55 1.911,00 8.168,50 749,62 569,53 0,00 0,00 1.319,15 6.849,35 31/01/2023
983 514900 FADUA MARIA DRUMOND CHEQUER ANALISTA DO MP BETIM - COMARCA; BETIM-PJ-12PJ 11.008,33 2.201,67 0,00 0,00 0,00 0,00 657,28 1.911,00 15.778,28 1.894,55 2.138,11 0,00 0,00 4.032,66 11.745,62 31/01/2023
984 282500 FANNY FERREIRA MELO OFICIAL DO MP ARAXÁ - COMARCA; ARAXA-PJ-03PJ 11.736,91 3.521,07 0,00 0,00 0,00 0,00 558,19 1.911,00 17.727,17 2.222,23 2.715,47 0,00 0,00 4.937,70 12.789,47 31/01/2023
985 692500 FARID JUNIOR NUNES DA SILVA ASSESSOR PROCURADOR JUSTICA BELO HORIZONTE - COMARCA; GABINETE DE PROCURADOR DE JUSTIÇA - SALA 912 0,00 0,00 7.857,77 0,00 0,00 0,00 902,89 7.882,91 16.643,57 877,22 1.312,59 0,00 0,00 2.189,81 14.453,76 31/01/2023
986 382800 FATIMA DE OLIVEIRA COELHO E SILVA OFICIAL DO MP BELO HORIZONTE - COMARCA; DIRETORIA DE ADMINISTRACAO FINANCEIRA 9.999,62 2.999,89 3.585,64 0,00 0,00 0,00 610,72 1.911,00 19.106,87 1.860,87 3.127,68 0,00 0,00 4.988,55 14.118,32 31/01/2023
987 398601 FELIPE ANTONIO HORTA DE PAULA ANALISTA DO MP BELO HORIZONTE - COMARCA; PROC. JUSTICA DIR. DIFUSOS E COLETIVOS-SEC 11.008,33 1.100,83 0,00 0,00 0,00 0,00 1.138,66 7.723,40 20.971,22 1.718,41 1.988,10 0,00 0,00 3.706,51 17.264,71 31/01/2023
988 430900 FELIPE BOY VIEIRA ANALISTA DO MP BELO HORIZONTE - COMARCA; DIRETORIA DE SEGURANCA 14.224,47 2.844,89 0,00 0,00 0,00 0,00 864,93 1.911,00 19.845,29 982,16 3.241,11 0,00 0,00 4.223,27 15.622,02 31/01/2023
989 631700 FELIPE DE MORAIS SIMOES COELHO ANALISTA DO MP BELO HORIZONTE - COMARCA; BH-18PJ VIOLENCIA DOMESTICA-SECRETARIA 9.378,86 937,89 0,00 0,00 0,00 0,00 475,66 1.911,00 12.703,41 1.431,63 1.574,05 0,00 0,00 3.005,68 9.697,73 31/01/2023
990 549100 FELIPE FERNANDES ALVIM ANALISTA DO MP LAJINHA - COMARCA; LAJINHA-PJ-UNPJ 11.008,33 1.100,83 0,00 0,00 0,00 0,00 1.161,62 8.608,70 21.879,48 1.718,41 1.988,10 0,00 0,00 3.706,51 18.172,97 31/01/2023
991 693100 FELIPE FROIS DO AMARAL ASSESSOR PROMOTOR JUSTICA RIBEIRÃO DAS NEVES - COMARCA; RIBEIRAO NEVES-SEC PJ EXECUCAO PENAL 0,00 0,00 7.857,77 0,00 0,00 0,00 886,51 7.882,91 16.627,19 877,22 1.312,59 0,00 0,00 2.189,81 14.437,38 31/01/2023
992 620100 FELIPE GOMES DE AZEVEDO OFICIAL DO MP BELO HORIZONTE - COMARCA; DIVISAO DE SERVICOS 6.081,20 608,12 3.585,64 0,00 0,00 0,00 463,14 1.911,00 12.649,10 855,73 1.696,07 0,00 0,00 2.551,80 10.097,30 31/01/2023
993 601600 FELIPE RODRIGUES DE SIQUEIRA ANALISTA DO MP BELO HORIZONTE - COMARCA; BH-02PJ FAMILIA-SECRETARIA 11.008,33 1.100,83 0,00 0,00 0,00 0,00 1.107,20 7.723,40 20.939,76 982,16 1.566,12 0,00 0,00 2.548,28 18.391,48 31/01/2023
994 628900 FELIX FERNANDO JUNIO VIEIRA ANALISTA DO MP BELO HORIZONTE - COMARCA; BH-21PJ TUTELA DAS FUNDACOES-ASS CURADORES 10.325,15 1.032,52 0,00 0,00 0,00 0,00 1.165,23 8.702,29 21.225,19 1.598,18 1.710,23 0,00 0,00 3.308,41 17.916,78 31/01/2023
995 544500 FELLIPE LEMOS MARCONDES BUENO ANALISTA DO MP SÃO SEBASTIÃO DO PARAÍSO - COMARCA; SAO SEBASTIAO DO PARAISO-PJ-04PJ 11.008,33 1.100,83 0,00 0,00 0,00 0,00 1.166,75 7.723,40 20.999,31 1.718,41 1.988,10 0,00 0,00 3.706,51 17.292,80 31/01/2023
996 688500 FELLIPE TADEU DE ANDRADE RAMOS ASSESSOR PROCURADOR JUSTICA BELO HORIZONTE - COMARCA; GABINETE DE PROCURADOR DE JUSTIÇA - SALA 907 0,00 0,00 7.857,77 0,00 0,00 0,00 907,16 7.882,91 16.647,84 877,22 1.416,87 0,00 0,00 2.294,09 14.353,75 31/01/2023
997 612600 FERNANDA ADRIANA DE PAULA GUIDO ANALISTA DO MP BELO HORIZONTE - COMARCA; SUPERINTENDENCIA GESTÃO DE PESSOAS 10.325,15 1.032,52 0,00 0,00 0,00 0,00 1.144,34 8.702,29 21.204,30 1.598,18 1.814,50 0,00 0,00 3.412,68 17.791,62 31/01/2023
998 508400 FERNANDA AGANETTI MATTOS DE OLIVEIRA ANALISTA DO MP BELO HORIZONTE - COMARCA; SUPER DE RECURSOS HUMANOS-COOP REMOTA 11.008,33 2.201,67 0,00 0,00 0,00 0,00 553,14 3.681,60 17.444,74 982,16 2.499,58 0,00 0,00 3.481,74 13.963,00 31/01/2023
999 453600 FERNANDA ALBERNAZ RABELO ANALISTA DO MP BELO HORIZONTE - COMARCA; GABINETE DE PROCURADOR DE JUSTIÇA - SALA 616 11.008,33 2.201,67 0,00 0,00 0,00 0,00 584,82 2.796,30 16.591,12 1.894,55 2.242,39 0,00 0,00 4.136,94 12.454,18 31/01/2023
1000 255600 FERNANDA ALINA DE ALMEIDA ANDRADE OFICIAL DO MP BELO HORIZONTE - COMARCA; DIRETORIA DE INTELIGENCIA 11.008,33 3.302,50 0,00 0,00 0,00 0,00 755,38 1.911,00 16.977,21 2.070,68 2.496,68 0,00 0,00 4.567,36 12.409,85 31/01/2023
1001 443200 FERNANDA ALMEIDA LOPES ANALISTA DO MP CONTAGEM - COMARCA; CONTAGEM-PJ-10PJ 15.659,55 3.131,91 0,00 0,00 0,00 0,00 875,29 2.796,30 22.463,05 2.787,58 3.427,43 0,00 0,00 6.215,01 16.248,04 31/01/2023
1002 281100 FERNANDA ANANIAS MEIRA ANALISTA DO MP BELO HORIZONTE - COMARCA; BH-23PJ INFRACIONAL-ASS JURIDICA 19.791,01 5.937,30 0,00 0,00 0,00 0,00 7.230,28 7.056,66 40.015,25 4.744,31 6.356,74 0,00 0,00 11.101,05 28.914,20 31/01/2023
1003 539000 FERNANDA BARBOSA ALVES ANALISTA DO MP UBERABA - COMARCA; UBERABA-PJ-04PJ 11.008,33 1.100,83 0,00 0,00 0,00 0,00 522,53 2.796,30 15.427,99 1.718,41 1.988,10 0,00 0,00 3.706,51 11.721,48 31/01/2023
1004 451200 FERNANDA BLOISE PRADO OFICIAL DO MP BELO HORIZONTE - COMARCA; GAECO - SECRETARIA 9.378,86 1.875,77 0,00 0,00 0,00 0,00 601,80 1.911,00 13.767,43 1.581,69 1.790,70 0,00 0,00 3.372,39 10.395,04 31/01/2023
1005 427900 FERNANDA BRAGA CARNEIRO BICALHO ANALISTA DO MP PEÇANHA - COMARCA; PECANHA-PJ-SECRETARIA 11.008,33 2.201,67 0,00 0,00 0,00 0,00 584,26 1.911,00 15.705,26 1.894,55 2.190,25 0,00 0,00 4.084,80 11.620,46 31/01/2023
1006 507100 FERNANDA CABRINI VAZ MOTA ANALISTA DO MP BELO HORIZONTE - COMARCA; DIVISAO DE MATERIAIS 11.008,33 2.201,67 0,00 0,00 0,00 0,00 2.001,83 3.681,60 18.893,43 982,16 2.672,28 0,00 0,00 3.654,44 15.238,99 31/01/2023
1007 259800 FERNANDA CALZAVARA DE SOUSA OFICIAL DO MP BELO HORIZONTE - COMARCA; DIRET DE INFORMACAO E CONHECIMENTO-DINC/CEAF 15.659,55 4.697,87 5.493,71 0,00 0,00 0,00 1.544,76 7.966,53 35.362,42 3.038,14 5.352,08 0,00 0,00 8.390,22 26.972,20 31/01/2023
1008 494400 FERNANDA CAMPOS BARATA OFICIAL DO MP JUIZ DE FORA - COMARCA; JUIZ DE FORA-PJ-08PJ 6.694,66 1.338,93 0,00 0,00 0,00 0,00 726,71 5.124,44 13.884,74 1.066,32 1.046,64 0,00 0,00 2.112,96 11.771,78 31/01/2023
1009 555600 FERNANDA CAROLINE RIBEIRO ANALISTA DO MP BELO HORIZONTE - COMARCA; DIRETORIA GESTAO CONTRATOS CONVENIOS 11.008,33 1.100,83 0,00 0,00 0,00 0,00 539,45 1.911,00 14.559,61 1.718,41 1.988,10 0,00 0,00 3.706,51 10.853,10 31/01/2023
1010 692000 FERNANDA CESAR SILVA ASSESSOR PROCURADOR JUSTICA BELO HORIZONTE - COMARCA; GABINETE DE PROCURADOR DE JUSTIÇA - SALA 809 0,00 0,00 7.857,77 0,00 0,00 0,00 323,78 1.911,00 10.092,55 877,22 1.416,87 0,00 0,00 2.294,09 7.798,46 31/01/2023
1011 294500 FERNANDA COSTA FLORES OFICIAL DO MP PARÁ DE MINAS - COMARCA; PARA DE MINAS-PJ-04PJ 11.736,91 3.521,07 0,00 0,00 0,00 0,00 755,30 1.911,00 17.924,28 2.222,23 2.715,47 0,00 0,00 4.937,70 12.986,58 31/01/2023
1012 344500 FERNANDA CRISTINA DE SOUZA PAZ ASSESSOR ADMINISTRATIVO II BELO HORIZONTE - COMARCA; CENTRAL DE APOIO TECN-SETOR DE MEIO AMBIENTE 0,00 0,00 6.694,66 0,00 0,00 0,00 244,87 1.911,00 8.850,53 877,22 992,74 0,00 0,00 1.869,96 6.980,57 31/01/2023
1013 538100 FERNANDA CRISTINA DOS SANTOS ROSA OFICIAL DO MP RIBEIRÃO DAS NEVES - COMARCA; RIBEIRAO DAS NEVES-PJ-04PJ 6.694,66 2.008,40 0,00 0,00 0,00 0,00 393,21 1.911,00 11.007,27 1.173,44 1.201,29 0,00 0,00 2.374,73 8.632,54 31/01/2023
1014 337800 FERNANDA CRISTINA ROLAND CLIMACO MENDES COORDENADOR II BELO HORIZONTE - COMARCA; DIRETORIA DE PAGAMENTO DE PESSOAL-DPAG 18.312,36 5.493,71 0,00 0,00 0,00 0,00 1.652,67 7.624,46 33.083,20 2.646,36 4.871,32 0,00 0,00 7.517,68 25.565,52 31/01/2023
1015 545400 FERNANDA CUNHA GUIMARAES ANALISTA DO MP BELO HORIZONTE - COMARCA; CAO-VIOLENCIA DOMESTICA E FAMILIAR 11.008,33 1.100,83 0,00 0,00 0,00 0,00 586,00 1.911,00 14.606,16 1.718,41 1.988,10 0,00 0,00 3.706,51 10.899,65 31/01/2023
1016 429801 FERNANDA CUNHA PINHEIRO DA SILVA ANALISTA DO MP BELO HORIZONTE - COMARCA; ASSESSORIA DE COMUNICACAO INTEGRADA 11.008,33 2.201,67 0,00 0,00 0,00 0,00 596,85 1.911,00 15.717,85 1.894,55 2.138,11 0,00 0,00 4.032,66 11.685,19 31/01/2023
1017 408000 FERNANDA DAS NEVES RAMOS ANALISTA DO MP BELO HORIZONTE - COMARCA; FEPDC-SECRETARIA EXECUTIVA 16.169,47 3.233,89 0,00 0,00 0,00 0,00 1.031,30 1.911,00 22.345,66 2.885,49 3.673,05 0,00 0,00 6.558,54 15.787,12 31/01/2023
1018 496000 FERNANDA DE ALMEIDA VIANA ANALISTA DO MP BELO HORIZONTE - COMARCA; PROC JUST ATUACAO TRIBUNAIS SUPERIORES-GAB002 11.008,33 2.201,67 0,00 0,00 0,00 0,00 1.216,78 9.494,00 23.920,78 1.894,55 2.138,11 0,00 0,00 4.032,66 19.888,12 31/01/2023
1019 266700 FERNANDA DE CASTRO LUCAS OFICIAL DO MP BELO HORIZONTE - COMARCA; DIRET DE DESENV DE RECURSOS HUMANOS-DDRH 15.659,55 4.697,87 5.493,71 0,00 0,00 0,00 3.679,36 7.966,53 37.497,02 3.038,14 5.898,78 0,00 0,00 8.936,92 28.560,10 31/01/2023
1020 433200 FERNANDA DE FIGUEIREDO NORTE ANALISTA DO MP BELO HORIZONTE - COMARCA; ASSESS JUR DO CONS SUPERIOR DO MINISTERIO PUB 16.169,47 3.233,89 0,00 0,00 0,00 0,00 981,23 1.911,00 22.295,59 2.885,49 3.568,78 0,00 0,00 6.454,27 15.841,32 31/01/2023
1021 419200 FERNANDA DE MIRANDA MARTINS SIMOES ANALISTA DO MP UBERLÂNDIA - COMARCA; UBERLANDIA-PJ-17PJ 16.169,47 3.233,89 0,00 0,00 0,00 0,00 1.606,26 8.229,24 29.238,86 2.885,49 3.673,05 0,00 0,00 6.558,54 22.680,32 31/01/2023
1022 441400 FERNANDA DE MORAIS PINTO ANALISTA DO MP BELO HORIZONTE - COMARCA; PROC. JUSTICA DIR. DIFUSOS E COLETIVOS-SEC 15.659,55 3.131,91 0,00 0,00 0,00 0,00 861,56 1.911,00 21.564,02 2.787,58 3.531,71 0,00 0,00 6.319,29 15.244,73 31/01/2023
1023 432200 FERNANDA DE MOURA GUIMARAES ANALISTA DO MP BELO HORIZONTE - COMARCA; BH-26 CRIME CONT CRIAN ADOL-SECRETARIA 15.659,55 3.131,91 0,00 0,00 0,00 0,00 829,37 1.911,00 21.531,83 2.787,58 3.531,71 0,00 0,00 6.319,29 15.212,54 31/01/2023
1024 461800 FERNANDA DE OLIVEIRA SANTOS ANALISTA DO MP JUIZ DE FORA - COMARCA; JUIZ DE FORA-PJ-21PJ 13.341,69 2.668,34 0,00 0,00 0,00 0,00 1.302,51 8.559,91 25.872,45 2.342,55 2.889,20 0,00 0,00 5.231,75 20.640,70 31/01/2023
1025 432500 FERNANDA DE PAULA PINTO ANALISTA DO MP BELO HORIZONTE - COMARCA; PROC JUST ATUACAO TRIBUNAIS SUPERIORES-GAB003 15.659,55 3.131,91 0,00 0,00 0,00 0,00 851,68 2.796,30 22.439,44 2.787,58 3.531,71 0,00 0,00 6.319,29 16.120,15 31/01/2023
1026 729700 FERNANDA DE SOUZA GUIMARAES ASSESSOR ADMINISTRATIVO I BELO HORIZONTE - COMARCA; DIRETORIA DE PAGAMENTO DE PESSOAL-DPAG 0,00 0,00 4.345,58 0,00 0,00 0,00 0,00 1.911,00 6.256,58 621,17 521,42 0,00 0,00 1.142,59 5.113,99 31/01/2023
1027 431600 FERNANDA DIAS BARBOSA PEREIRA ANALISTA DO MP BELO HORIZONTE - COMARCA; BH-02PJ FAMILIA-SECRETARIA 15.659,55 3.131,91 0,00 0,00 0,00 0,00 877,79 2.796,30 22.465,55 2.787,58 3.375,30 0,00 0,00 6.162,88 16.302,67 31/01/2023
1028 162200 FERNANDA FERNANDES MONTEIRO ASSESSOR ADMINISTRATIVO II BELO HORIZONTE - COMARCA; BH-18PJ VIOLENCIA DOMESTICA-SECRETARIA 0,00 2.677,86 6.694,66 0,00 0,00 0,00 394,16 1.911,00 11.677,68 877,22 1.729,15 0,00 0,00 2.606,37 9.071,31 31/01/2023
1029 512800 FERNANDA FERREIRA BARBOSA MOREIRA ANALISTA DO MP IPATINGA - COMARCA; IPATINGA-PJ-05PJ 11.008,33 2.201,67 0,00 0,00 0,00 0,00 645,83 2.796,30 16.652,13 982,16 2.310,67 0,00 0,00 3.292,83 13.359,30 31/01/2023
1030 329200 FERNANDA GABRIEL GUZELLA OFICIAL DO MP BELO HORIZONTE - COMARCA; DIRET DE PLANOS PROJETOS E PROGRAMAS INST 11.008,33 3.302,50 0,00 0,00 4.770,28 0,00 1.227,87 7.635,33 27.944,31 2.070,68 3.808,51 0,00 0,00 5.879,19 22.065,12 31/01/2023
1031 324200 FERNANDA GEORGIA NEVES ZAHAN OFICIAL DO MP IPANEMA - COMARCA; IPANEMA-PJ-01PJ 11.008,33 8.806,67 0,00 0,00 0,00 0,00 1.253,90 7.459,20 28.528,10 2.951,35 3.768,14 0,00 0,00 6.719,49 21.808,61 31/01/2023
1032 548200 FERNANDA GONCALVES DE CARVALHO ZUZA OFICIAL DO MP TUPACIGUARA - COMARCA; TUPACIGUARA-PJ-01PJ 6.694,66 669,47 0,00 0,00 0,00 0,00 947,25 7.802,30 16.113,68 959,93 891,80 0,00 0,00 1.851,73 14.261,95 31/01/2023
1033 355400 FERNANDA HELENA BASQUES OFICIAL DO MP SABARÁ - COMARCA; SABARA-PJ-01PJ 11.008,33 3.302,50 0,00 0,00 0,00 0,00 754,76 1.911,00 16.976,59 2.070,68 2.496,68 0,00 0,00 4.567,36 12.409,23 31/01/2023
1034 454800 FERNANDA IATAROLA BARBOSA DIAS ANALISTA DO MP BARBACENA - COMARCA; BARBACENA-PJ-05PJ 13.341,69 2.668,34 0,00 0,00 0,00 0,00 1.329,05 7.674,61 25.013,69 2.342,55 2.837,06 0,00 0,00 5.179,61 19.834,08 31/01/2023
1035 515500 FERNANDA LILIANE MARUGEIRO ANALISTA DO MP LAGOA SANTA - COMARCA; LAGOA SANTA-PJ-01PJ 11.008,33 2.201,67 0,00 0,00 0,00 0,00 671,75 3.681,60 17.563,35 1.894,55 2.190,25 0,00 0,00 4.084,80 13.478,55 31/01/2023
1036 392900 FERNANDA MAGALHAES SILVA ANALISTA DO MP BELO HORIZONTE - COMARCA; DIR CONTEUDO JORNALISTICO 16.695,70 3.339,14 0,00 0,00 0,00 0,00 1.033,06 1.911,00 22.978,90 2.986,52 3.818,93 0,00 0,00 6.805,45 16.173,45 31/01/2023
1037 409200 FERNANDA MAIA SANTIAGO CARDOSO ANALISTA DO MP PIRAPORA - COMARCA; PIRAPORA-PJ-02PJ 11.008,33 2.201,67 0,00 0,00 0,00 0,00 1.199,68 8.608,70 23.018,38 1.894,55 2.242,39 0,00 0,00 4.136,94 18.881,44 31/01/2023
1038 714100 FERNANDA MELO FIORENZANO REIS ASSESSOR ADMINISTRATIVO IV BELO HORIZONTE - COMARCA; DIR CONTEUDO JORNALISTICO 0,00 0,00 12.920,95 0,00 0,00 0,00 199,93 1.911,00 15.031,88 877,22 2.809,24 0,00 0,00 3.686,46 11.345,42 31/01/2023
1039 556500 FERNANDA OTERO COSTA ANALISTA DO MP BELO HORIZONTE - COMARCA; ASSESS TECNICO-JUR JUNTO AS PROC. DE JUST 11.008,33 1.100,83 0,00 0,00 0,00 0,00 1.133,12 7.723,40 20.965,68 982,16 2.035,68 0,00 0,00 3.017,84 17.947,84 31/01/2023
1040 615300 FERNANDA PATRICIA RIBEIRO MOTA OFICIAL DO MP UBERABA - COMARCA; UBERABA-PJ-10PJ 6.694,66 669,47 0,00 0,00 0,00 0,00 552,64 3.383,83 11.300,60 959,93 891,39 0,00 0,00 1.851,32 9.449,28 31/01/2023
1041 619800 FERNANDA PINTO PEREIRA ANALISTA DO MP UBERLÂNDIA - COMARCA; UBERLANDIA-PJ-20PJ 10.325,15 1.032,52 0,00 0,00 0,00 0,00 620,28 3.681,60 15.659,55 1.598,18 1.762,36 0,00 0,00 3.360,54 12.299,01 31/01/2023
1042 412900 FERNANDA PORTELA ROSA ANALISTA DO MP BELO HORIZONTE - COMARCA; BH-08PJ JUIZADO ESPECIAL-SECRETARIA 16.169,47 </